[[{"header":{"parameterUnit":"m.s-1","parameterCategory":1,"la1":30.6,"la2":28.766,"lo1":-90.7593,"lo2":-88.6598,"dy":0.0162,"dx":0.0183,"nx":116,"ny":114,"refTime":"2023-06-01T06:00:00:Z","depth":0,"parameterNumber":2,"parameterNumberName":"U-component_of_WINDS"},"data":[0.0,0.0,0.0,0.0,0.0,0.0,0.0,0.0,0.0,0.0,0.0,0.0,0.0,0.0,0.0,0.0,0.0,0.0,0.0,0.0,0.0,0.0,0.0,0.0,0.0,0.0,0.0,0.0,0.0,0.0,0.0,0.0,0.0,0.0,0.0,0.0,0.0,0.0,0.0,0.0,0.0,0.0,0.0,0.0,0.0,0.0,0.0,0.0,0.0,0.0,0.0,0.0,0.0,0.0,0.0,0.0,0.0,0.0,0.0,0.0,0.0,0.0,0.0,0.0,0.0,0.0,0.0,0.0,0.0,0.0,0.0,0.0,0.0,0.0,0.0,0.0,0.0,0.0,0.0,0.0,0.0,0.0,0.0,0.0,0.0,0.0,0.0,0.0,0.0,0.0,0.0,0.0,0.0,0.0,0.0,0.0,0.0,0.0,0.0,0.0,0.0,0.0,0.0,0.0,0.0,0.0,0.0,0.0,0.0,0.0,0.0,0.0,0.0,0.0,0.0,0.0,0.0,0.0,0.0,0.0,0.0,0.0,0.0,0.0,0.0,0.0,0.0,0.0,0.0,0.0,0.0,0.0,0.0,0.0,0.0,0.0,0.0,0.0,0.0,0.0,0.0,0.0,0.0,0.0,0.0,0.0,0.0,0.0,0.0,0.0,0.0,0.0,0.0,0.0,0.0,0.0,0.0,0.0,0.0,0.0,0.0,0.0,0.0,0.0,0.0,0.0,0.0,0.0,0.0,0.0,0.0,0.0,0.0,0.0,0.0,0.0,0.0,0.0,0.0,0.0,0.0,0.0,0.0,0.0,0.0,0.0,0.0,0.0,0.0,0.0,0.0,0.0,0.0,0.0,0.0,0.0,0.0,0.0,0.0,0.0,0.0,0.0,0.0,0.0,0.0,0.0,0.0,0.0,0.0,0.0,0.0,0.0,0.0,0.0,0.0,0.0,0.0,0.0,0.0,0.0,0.0,0.0,0.0,0.0,0.0,0.0,0.0,0.0,0.0,0.0,0.0,0.0,0.0,0.0,0.0,0.0,0.0,0.0,0.0,0.0,0.0,0.0,0.0,0.0,0.0,0.0,0.0,0.0,0.0,0.0,0.0,0.0,0.0,0.0,0.0,0.0,0.0,0.0,0.0,0.0,0.0,0.0,0.0,0.0,0.0,0.0,0.0,0.0,0.0,0.0,0.0,0.0,0.0,0.0,0.0,0.0,0.0,0.0,0.0,0.0,0.0,0.0,0.0,0.0,0.0,0.0,0.0,0.0,0.0,0.0,0.0,0.0,0.0,0.0,0.0,0.0,0.0,0.0,0.0,0.0,0.0,0.0,0.0,0.0,0.0,0.0,0.0,0.0,0.0,0.0,0.0,0.0,0.0,0.0,0.0,0.0,0.0,0.0,0.0,0.0,0.0,0.0,0.0,0.0,0.0,0.0,0.0,0.0,0.0,0.0,0.0,0.0,0.0,0.0,0.0,0.0,0.0,0.0,0.0,0.0,0.0,0.0,0.0,0.0,0.0,0.0,0.0,0.0,0.0,0.0,0.0,0.0,0.0,0.0,0.0,0.0,0.0,0.0,0.0,0.0,0.0,0.0,0.0,0.0,0.0,0.0,0.0,0.0,0.0,0.0,0.0,0.0,0.0,0.0,0.0,0.0,0.0,0.0,0.0,0.0,0.0,0.0,0.0,0.0,0.0,0.0,0.0,0.0,0.0,0.0,0.0,0.0,0.0,0.0,0.0,0.0,0.0,0.0,0.0,0.0,0.0,0.0,0.0,0.0,0.0,0.0,0.0,0.0,0.0,0.0,0.0,0.0,0.0,0.0,0.0,0.0,0.0,0.0,0.0,0.0,0.0,0.0,0.0,0.0,0.0,0.0,0.0,0.0,0.0,0.0,0.0,0.0,0.0,0.0,0.0,0.0,0.0,0.0,0.0,0.0,0.0,0.0,0.0,0.0,0.0,0.0,0.0,0.0,0.0,0.0,0.0,0.0,0.0,0.0,0.0,0.0,0.0,0.0,0.0,0.0,0.0,0.0,0.0,0.0,0.0,0.0,0.0,0.0,0.0,0.0,0.0,0.0,0.0,0.0,0.0,0.0,0.0,0.0,0.0,0.0,0.0,0.0,0.0,0.0,0.0,0.0,0.0,0.0,0.0,0.0,0.0,0.0,0.0,0.0,0.0,0.0,0.0,0.0,0.0,0.0,0.0,0.0,0.0,0.0,0.0,0.0,0.0,0.0,0.0,0.0,0.0,0.0,0.0,0.0,0.0,0.0,0.0,0.0,0.0,0.0,0.0,0.0,0.0,0.0,0.0,0.0,0.0,0.0,0.0,0.0,0.0,0.0,0.0,0.0,0.0,0.0,0.0,0.0,0.0,0.0,0.0,0.0,0.0,0.0,0.0,0.0,0.0,0.0,0.0,0.0,0.0,0.0,0.0,0.0,0.0,0.0,0.0,0.0,0.0,0.0,0.0,0.0,0.0,0.0,0.0,0.0,0.0,0.0,0.0,0.0,0.0,0.0,0.0,0.0,0.0,0.0,0.0,0.0,0.0,0.0,0.0,0.0,0.0,0.0,0.0,0.0,0.0,0.0,0.0,0.0,0.0,0.0,0.0,0.0,0.0,0.0,0.0,0.0,0.0,0.0,0.0,0.0,0.0,0.0,0.0,0.0,0.0,0.0,0.0,0.0,0.0,0.0,0.0,0.0,0.0,0.0,0.0,0.0,0.0,0.0,0.0,0.0,0.0,0.0,0.0,0.0,0.0,0.0,0.0,0.0,0.0,0.0,0.0,0.0,0.0,0.0,0.0,0.0,0.0,0.0,0.0,0.0,0.0,0.0,0.0,0.0,0.0,0.0,0.0,0.0,0.0,0.0,0.0,0.0,0.0,0.0,0.0,0.0,0.0,0.0,0.0,0.0,0.0,0.0,0.0,0.0,0.0,0.0,0.0,0.0,0.0,0.0,0.0,0.0,0.0,0.0,0.0,0.0,0.0,0.0,0.0,0.0,0.0,0.0,0.0,0.0,0.0,0.0,0.0,0.0,0.0,0.0,0.0,0.0,0.0,0.0,0.0,0.0,0.0,0.0,0.0,0.0,0.0,0.0,0.0,0.0,0.0,0.0,0.0,0.0,0.0,0.0,0.0,0.0,0.0,0.0,0.0,0.0,0.0,0.0,0.0,0.0,0.0,0.0,0.0,0.0,0.0,0.0,0.0,0.0,0.0,0.0,0.0,0.0,0.0,0.0,0.0,0.0,0.0,0.0,0.0,0.0,0.0,0.0,0.0,0.0,0.0,0.0,0.0,0.0,0.0,0.0,0.0,0.0,0.0,0.0,0.0,0.0,0.0,0.0,0.0,0.0,0.0,0.0,0.0,0.0,0.0,0.0,0.0,0.0,0.0,0.0,0.0,0.0,0.0,0.0,0.0,0.0,0.0,0.0,0.0,0.0,0.0,0.0,0.0,0.0,0.0,0.0,0.0,0.0,0.0,0.0,0.0,0.0,0.0,0.0,0.0,0.0,0.0,0.0,0.0,0.0,0.0,0.0,0.0,0.0,0.0,0.0,0.0,0.0,0.0,0.0,0.0,0.0,0.0,0.0,0.0,0.0,0.0,0.0,0.0,0.0,0.0,0.0,0.0,0.0,0.0,0.0,0.0,0.0,0.0,0.0,0.0,0.0,0.0,0.0,0.0,0.0,0.0,0.0,0.0,0.0,0.0,0.0,0.0,0.0,0.0,0.0,0.0,0.0,0.0,0.0,0.0,0.0,0.0,0.0,0.0,0.0,0.0,0.0,0.0,0.0,0.0,0.0,0.0,0.0,0.0,0.0,0.0,0.0,0.0,0.0,0.0,0.0,0.0,0.0,0.0,0.0,0.0,0.0,0.0,0.0,0.0,0.0,0.0,0.0,0.0,0.0,0.0,0.0,0.0,0.0,0.0,0.0,0.0,0.0,0.0,0.0,0.0,0.0,0.0,0.0,0.0,0.0,0.0,0.0,0.0,0.0,0.0,0.0,0.0,0.0,0.0,0.0,0.0,0.0,0.0,0.0,0.0,0.0,0.0,0.0,0.0,0.0,0.0,0.0,0.0,0.0,0.0,0.0,0.0,0.0,0.0,0.0,0.0,0.0,0.0,0.0,0.0,0.0,0.0,0.0,0.0,0.0,0.0,0.0,0.0,0.0,0.0,0.0,0.0,0.0,0.0,0.0,0.0,0.0,0.0,0.0,0.0,0.0,0.0,0.0,0.0,0.0,0.0,0.0,0.0,0.0,0.0,0.0,0.0,0.0,0.0,0.0,0.0,0.0,0.0,0.0,0.0,0.0,0.0,0.0,0.0,0.0,0.0,0.0,0.0,0.0,0.0,0.0,0.0,0.0,0.0,0.0,0.0,0.0,0.0,0.0,0.0,0.0,0.0,0.0,0.0,0.0,0.0,0.0,0.0,0.0,0.0,0.0,0.0,0.0,0.0,0.0,0.0,0.0,0.0,0.0,0.0,0.0,0.0,0.0,0.0,0.0,0.0,0.0,0.0,0.0,0.0,0.0,0.0,0.0,0.0,0.0,0.0,0.0,0.0,0.0,0.0,0.0,0.0,0.0,0.0,0.0,0.0,0.0,0.0,0.0,0.0,0.0,0.0,0.0,0.0,0.0,0.0,0.0,0.0,0.0,0.0,0.0,0.0,0.0,0.0,0.0,0.0,0.0,0.0,0.0,0.0,0.0,0.0,0.0,0.0,0.0,0.0,0.0,0.0,0.0,0.0,0.0,0.0,0.0,0.0,0.0,0.0,0.0,0.0,0.0,0.0,0.0,0.0,0.0,0.0,0.0,0.0,0.0,0.0,0.0,0.0,0.0,0.0,0.0,0.0,0.0,0.0,0.0,0.0,0.0,0.0,0.0,0.0,0.0,0.0,0.0,0.0,0.0,0.0,0.0,0.0,0.0,0.0,0.0,0.0,0.0,0.0,0.0,0.0,0.0,0.0,0.0,0.0,0.0,0.0,0.0,0.0,0.0,0.0,0.0,0.0,0.0,0.0,0.0,0.0,0.0,0.0,0.0,0.0,0.0,0.0,0.0,0.0,0.0,0.0,0.0,0.0,0.0,0.0,0.0,0.0,0.0,0.0,0.0,0.0,0.0,0.0,0.0,0.0,0.0,0.0,0.0,0.0,0.0,0.0,0.0,0.0,0.0,0.0,0.0,0.0,0.0,0.0,0.0,0.0,0.0,0.0,0.0,0.0,0.0,0.0,0.0,0.0,0.0,0.0,0.0,0.0,0.0,0.0,0.0,0.0,0.0,0.0,0.0,0.0,0.0,0.0,0.0,0.0,0.0,0.0,0.0,0.0,0.0,0.0,0.0,0.0,0.0,0.0,0.0,0.0,0.0,0.0,0.0,0.0,0.0,0.0,0.0,0.0,0.0,0.0,0.0,0.0,0.0,0.0,0.0,0.0,0.0,0.0,0.0,0.0,0.0,0.0,0.0,0.0,0.0,0.0,0.0,0.0,0.0,0.0,0.0,0.0,0.0,0.0,0.0,0.0,0.0,0.0,0.0,0.0,0.0,0.0,0.0,0.0,0.0,0.0,0.0,0.0,0.0,0.0,0.0,0.0,0.0,0.0,0.0,0.0,0.0,0.0,0.0,0.0,0.0,0.0,0.0,0.0,0.0,0.0,0.0,0.0,0.0,0.0,0.0,0.0,0.0,0.0,0.0,0.0,0.0,0.0,0.0,0.0,0.0,0.0,0.0,0.0,0.0,0.0,0.0,0.0,0.0,0.0,0.0,0.0,0.0,0.0,0.0,0.0,0.0,0.0,0.0,0.0,0.0,0.0,0.0,0.0,0.0,0.0,0.0,0.0,0.0,0.0,0.0,0.0,0.0,0.0,0.0,0.0,0.0,0.0,0.0,0.0,0.0,0.0,0.0,0.0,0.0,0.0,0.0,0.0,0.0,0.0,0.0,0.0,0.0,0.0,0.0,0.0,0.0,0.0,0.0,0.0,0.0,0.0,0.0,0.0,0.0,0.0,0.0,0.0,0.0,0.0,0.0,0.0,0.0,0.0,0.0,0.0,0.0,0.0,0.0,0.0,0.0,-1.2352,0.0,0.0,0.0,0.0,0.0,0.0,0.0,0.0,0.0,0.0,0.0,0.0,0.0,0.0,0.0,0.0,0.0,0.0,0.0,0.0,0.0,0.0,0.0,0.0,0.0,0.0,0.0,0.0,0.0,0.0,0.0,0.0,0.0,0.0,0.0,0.0,0.0,0.0,-0.7991,-0.673,-0.5901,-0.5284,-0.3714,-0.1551,0.0925,0.0,0.0,0.0,0.0,0.0,0.0,0.0,0.0,0.0,0.0,0.0,0.0,0.0,0.0,0.0,0.0,0.0,0.0,0.0,0.0,0.0,0.0,0.0,0.0,0.0,0.0,0.0,0.0,0.0,0.0,0.0,0.0,0.0,0.0,0.0,0.0,0.0,0.0,0.0,0.0,0.0,0.0,0.0,0.0,0.0,0.0,0.0,0.0,0.0,0.0,0.0,0.0,0.0,0.0,0.0,0.0,0.0,0.0,0.0,0.0,0.0,0.0,0.0,0.0,0.0,0.0,0.0,0.0,0.0,0.0,0.0,-1.2043,0.0,0.0,0.0,0.0,0.0,0.0,0.0,0.0,0.0,0.0,0.0,0.0,0.0,0.0,0.0,0.0,0.0,0.0,0.0,0.0,0.0,0.0,0.0,0.0,-0.4038,-0.4071,-0.4143,0.0,0.0,0.0,0.0,0.0,0.0,0.0,0.0,-0.8434,-0.8356,-0.8834,-0.7642,-0.6556,-0.5605,-0.5118,-0.3567,-0.1114,-0.0735,0.0,0.0,0.0,0.0,0.0,0.0,0.0,0.0,0.0,0.0,0.0,0.0,0.0,0.0,0.0,0.0,0.0,0.0,0.0,0.0,0.0,0.0,0.0,0.0,0.0,0.0,0.0,0.0,0.0,0.0,0.0,0.0,0.0,0.0,0.0,0.0,0.0,0.0,0.0,0.0,0.0,0.0,0.0,0.0,0.0,0.0,0.0,0.0,0.0,0.0,0.0,0.0,0.0,0.0,0.0,0.0,0.0,0.0,0.0,0.0,0.0,0.0,0.0,-1.4964,-1.5098,-1.5065,-1.5289,-1.5166,-1.4746,-1.393,-1.2666,-1.1081,-0.9333,0.0,0.0,0.0,0.0,0.0,0.0,0.0,0.0,0.0,0.0,0.0,0.0,0.0,0.0,0.0,0.0,0.0,0.0,0.0,0.0,0.0,-0.3695,-0.3836,-0.3982,-0.4454,-0.5048,0.0,0.0,0.0,0.0,0.0,0.0,-0.8764,-0.8483,-0.8547,-0.8964,-0.8204,-0.7535,-0.688,-0.6852,-0.6491,-0.5866,-0.3308,-0.1518,-0.0232,0.0,0.0,0.0,0.0,0.0,0.0,0.0,0.0,0.0,0.0,0.0,0.0,0.0,0.0,0.0,0.0,0.0,0.0,0.0,0.0,0.0,0.0,0.0,0.0,0.0,0.0,0.0,0.0,0.0,0.0,0.0,0.0,0.0,0.0,0.0,0.0,0.0,0.0,0.0,0.0,0.0,-1.0963,-1.1172,0.0,0.0,0.0,0.0,0.0,0.0,0.0,0.0,0.0,0.0,0.0,0.0,0.0,-1.4849,-1.4439,-1.4891,-1.5128,-1.516,-1.5569,-1.5774,-1.5461,-1.5579,-1.5087,-1.4114,-1.4272,0.0,-1.1693,-1.1007,0.0,0.0,0.0,0.0,0.0,0.0,0.0,0.0,0.0,0.0,0.0,0.0,0.0,0.0,0.0,0.0,0.0,0.0,0.0,0.0,0.0,-0.4226,-0.4202,-0.446,-0.4658,-0.5022,-0.5466,0.0,0.0,0.0,0.0,-0.8751,-0.9432,-0.8977,-0.8612,-0.8427,-0.7843,-0.7596,-0.7604,-0.7432,-0.7506,-0.782,-0.6458,-0.4803,-0.2912,-0.2025,0.0,0.0,0.0,0.0,0.0,0.0,0.0,0.0,0.0,0.0,0.0,0.0,0.0,0.0,0.0,0.0,0.0,0.0,0.0,0.0,0.0,0.0,0.0,0.0,0.0,0.0,0.0,0.0,0.0,0.0,0.0,0.0,0.0,0.0,0.0,0.0,0.0,0.0,0.0,-1.1622,-1.2489,-1.157,-1.2511,-1.2694,0.0,0.0,0.0,0.0,0.0,0.0,0.0,0.0,0.0,-1.5044,-1.4735,-1.4855,-1.5332,-1.5677,-1.5914,-1.6043,-1.6247,-1.6043,-1.5329,-1.5329,-1.4632,-1.3542,-1.3624,-1.2979,-1.184,-1.1113,-0.9787,-0.8137,0.0,0.0,0.0,0.0,-0.6877,-0.6807,0.0,0.0,0.0,0.0,0.0,0.0,0.0,0.0,0.0,0.0,0.0,0.0,-0.4924,-0.4472,-0.4262,-0.4564,-0.4626,-0.4737,-0.5158,-0.5931,0.0,0.0,-0.7871,-0.884,-0.9851,-0.9226,-0.8656,-0.8219,-0.7705,-0.7682,-0.7987,-0.7979,-0.8313,-0.8989,-0.8813,-0.7424,-0.5121,-0.4601,-0.3488,-0.2059,0.0,0.0,0.0,0.0,0.0,0.0,0.0,0.0,0.0,0.0,0.0,0.0,0.0,0.0,0.0,0.0,0.0,0.0,0.0,0.0,0.0,0.0,0.0,0.0,0.0,0.0,0.0,0.0,0.0,0.0,0.0,0.0,0.0,0.0,0.0,0.0,0.0,-1.2745,-1.3222,-1.1834,-1.2873,-1.2981,0.0,0.0,0.0,0.0,0.0,0.0,-1.3321,-1.2425,-1.2623,-1.4585,-1.4091,-1.4324,-1.534,-1.5587,-1.5782,-1.6059,-1.5946,-1.5563,-1.49,-1.4714,-1.4153,-1.3079,-1.3079,-1.2507,-1.168,-1.118,-1.0364,-0.9305,-0.8771,-0.8629,-0.8629,-0.8629,-0.8629,-0.8647,0.0,0.0,0.0,0.0,0.0,0.0,0.0,0.0,0.0,0.0,0.0,-0.4389,-0.4661,-0.4112,-0.3731,-0.3803,-0.3813,-0.4319,-0.5359,-0.5275,-0.5893,-0.7528,-0.7567,-0.8182,-0.9516,-0.9134,-0.895,-0.8779,-0.8321,-0.7975,-0.7826,-0.8965,-0.9653,-0.9826,-0.9662,-0.8414,-0.6452,-0.5805,-0.4816,-0.3707,-0.2787,0.0,0.0,0.0,0.0,0.0,0.0,0.0,0.0,0.0,0.0,0.0,0.0,0.0,0.0,0.0,0.0,0.0,0.0,0.0,0.0,0.0,0.0,0.0,0.0,0.0,0.0,0.0,0.0,0.0,0.0,0.0,0.0,0.0,0.0,0.0,0.0,0.0,0.0,-1.2921,-1.3325,0.0,0.0,0.0,0.0,-1.0482,-1.1479,-1.1804,-1.1114,-1.2147,-1.2839,-1.2979,-1.3163,-1.3444,-1.3822,-1.3646,-1.3873,-1.4254,-1.3882,-1.3769,-1.4112,-1.3936,-1.3386,-1.2764,-1.2764,-1.2216,-1.1234,-1.1702,-1.133,-1.0531,-1.0384,-1.033,-1.033,-1.033,-1.033,-1.035,0.0,0.0,0.0,0.0,0.0,0.0,0.0,0.0,0.0,-0.5737,-0.5022,-0.4589,-0.4838,-0.3891,-0.3373,-0.3594,-0.4125,-0.4434,-0.4407,-0.5815,-0.6665,-0.6852,-0.7815,-0.8351,-0.8428,-0.8016,-0.7823,-0.7966,-0.7688,-0.7845,-0.8345,-0.8802,-0.9167,-0.9349,-0.9531,-0.8852,-0.7416,-0.6987,-0.6079,-0.4932,-0.4295,-0.3553,0.0,0.0,0.0,0.0,0.0,0.0,0.0,0.0,0.0,0.0,0.0,0.0,0.0,0.0,0.0,0.0,0.0,0.0,0.0,0.0,0.0,0.0,0.0,0.0,0.0,0.0,0.0,0.0,0.0,0.0,0.0,0.0,0.0,0.0,0.0,0.0,0.0,-1.3853,-1.4167,0.0,-1.2153,-1.2299,-1.1766,-1.0208,-1.0652,-1.1193,-1.1674,-1.1411,-1.2082,-1.3604,-1.3029,-1.3178,-1.4101,-1.4031,-1.4066,-1.4205,-1.4066,-1.3671,-1.3254,-1.3062,-1.2558,-1.1717,-1.1824,-1.1643,-1.145,-1.1523,-1.1212,-1.1009,-1.105,-1.107,-1.1084,-1.1179,-1.108,-1.0809,0.0,0.0,0.0,0.0,0.0,0.0,0.0,0.0,-0.6082,-0.6167,-0.5378,-0.478,-0.4845,-0.3778,-0.3237,-0.373,-0.4288,-0.4606,-0.465,-0.6107,-0.6899,-0.6899,-0.7937,-0.8311,-0.757,-0.7127,-0.7031,-0.7184,-0.7,-0.7165,-0.7771,-0.8045,-0.8139,-0.8146,-0.8606,-0.8326,-0.7289,-0.7275,-0.6687,-0.5725,-0.5191,-0.4418,-0.3556,0.0,0.0,0.0,0.0,0.0,0.0,0.0,0.0,0.0,0.0,0.0,0.0,0.0,0.0,0.0,0.0,0.0,0.0,0.0,0.0,0.0,0.0,0.0,0.0,0.0,0.0,0.0,0.0,0.0,0.0,0.0,0.0,0.0,0.0,-1.2625,-1.3069,-1.2862,-1.358,-1.3346,-1.1335,-1.1557,-1.1285,-1.0022,-1.0078,-1.0484,-1.1372,-1.0717,-1.1073,-1.2624,-1.209,-1.2035,-1.2889,-1.2826,-1.2826,-1.2889,-1.2826,-1.2589,-1.1874,-1.1874,-1.165,-1.1044,-1.1142,-1.124,-1.1338,-1.1186,-1.0932,-1.0681,-1.1018,-1.1181,-1.1201,-1.1351,-1.1257,-1.0976,0.0,0.0,0.0,0.0,0.0,0.0,0.0,-0.6647,-0.6636,-0.6557,-0.5639,-0.4853,-0.4858,-0.3784,-0.3436,-0.4219,-0.4384,-0.483,-0.5942,-0.5935,-0.6549,-0.7711,-0.8007,-0.7717,-0.6943,-0.6767,-0.6674,-0.656,-0.6268,-0.6117,-0.6,-0.6649,-0.6738,-0.6278,-0.7014,-0.682,-0.6167,-0.6549,-0.6467,-0.6,-0.5521,-0.4984,-0.443,0.0,0.0,0.0,0.0,0.0,0.0,0.0,0.0,0.0,0.0,0.0,0.0,0.0,0.0,0.0,0.0,0.0,0.0,0.0,0.0,0.0,0.0,0.0,0.0,0.0,0.0,0.0,0.0,0.0,0.0,0.0,0.0,0.0,-0.9421,-1.0826,-1.1443,-1.0229,-1.1638,-1.1988,-1.0086,-1.0344,-1.0332,-0.9673,-0.9912,-1.0058,-1.0058,-1.0058,-1.0058,-1.0064,-1.0064,-1.0138,-1.0272,-1.0144,-1.015,-1.0278,-1.0144,-1.0223,-1.048,-1.048,-1.062,-1.0871,-1.0877,-1.0877,-1.0895,-1.0878,-1.0468,-0.984,-1.048,-1.0733,-1.0745,-1.0884,-1.0938,-1.0668,0.0,0.0,0.0,0.0,0.0,0.0,0.0,-0.6527,-0.6432,-0.662,-0.5326,-0.4594,-0.4753,-0.3692,-0.3204,-0.4004,-0.4818,-0.5336,-0.5441,-0.6721,-0.7524,-0.7511,-0.653,-0.5882,-0.5688,-0.5118,-0.5018,-0.5589,-0.5693,-0.5976,-0.6339,-0.6726,-0.653,-0.6049,-0.624,-0.6038,-0.5551,-0.6235,-0.624,-0.5733,-0.5867,-0.5596,-0.5096,0.0,0.0,0.0,0.0,0.0,0.0,0.0,0.0,0.0,0.0,0.0,0.0,0.0,0.0,0.0,0.0,0.0,0.0,0.0,0.0,0.0,0.0,0.0,0.0,0.0,0.0,0.0,0.0,0.0,0.0,0.0,-0.8717,-0.9208,-0.9939,-1.0492,-1.0849,-1.1047,-1.1682,-1.1791,-1.069,-1.0766,-1.0626,-0.9948,-1.0015,-1.0058,-1.0058,-1.0058,-1.0101,-1.0199,-1.0303,-1.0419,-1.0547,-1.0608,-1.0663,-1.07,-1.0657,-1.0682,-1.0755,-1.0755,-1.0847,-1.1018,-1.1109,-1.1207,-1.1155,-1.0335,-0.9908,-0.9739,-1.009,-0.9891,-0.9276,-0.9392,-0.9162,-0.8446,0.0,0.0,0.0,0.0,0.0,0.0,0.0,-0.5634,-0.5654,-0.5691,-0.481,-0.4182,-0.4124,-0.3226,-0.2924,-0.3729,-0.4433,-0.4931,-0.5536,-0.6866,-0.7217,-0.6328,-0.5598,-0.5031,-0.473,-0.4232,-0.4232,-0.473,-0.4834,-0.5135,-0.5436,-0.5532,-0.5436,-0.5039,-0.5039,-0.4738,-0.4437,-0.5436,-0.5837,-0.5822,-0.648,-0.6424,-0.5945,-0.5557,-0.5746,-0.6128,-0.5746,-0.5596,-0.5443,-0.4598,0.0,0.0,0.0,0.0,0.0,0.0,0.0,0.0,0.0,0.0,0.0,0.0,0.0,0.0,0.0,0.0,0.0,0.0,0.0,0.0,0.0,0.0,0.0,0.0,-0.8034,-0.8811,-0.9548,-1.0029,-1.0247,-1.0392,-1.088,-1.1023,-1.0073,-1.0197,-1.0144,-0.9724,-0.9631,-0.966,-0.966,-0.9712,-0.9775,-0.985,-0.9983,-0.9934,-0.9706,-0.9777,-0.9661,-0.9361,-0.9361,-0.9257,-0.935,-0.935,-0.9444,-0.9604,-0.9661,-0.9724,-0.9801,-0.8987,-0.8393,0.0,0.0,0.0,0.0,0.0,-0.7845,-0.7263,0.0,0.0,0.0,0.0,0.0,0.0,0.0,-0.4543,-0.4474,-0.4296,-0.4044,-0.3629,-0.3123,-0.2521,-0.2622,-0.3528,-0.3629,-0.4329,-0.5832,-0.6331,-0.5932,-0.4734,-0.483,-0.4529,-0.383,-0.383,-0.383,-0.383,-0.3833,-0.3934,-0.3934,-0.3934,-0.3833,-0.3635,-0.3534,-0.3433,-0.333,-0.4638,-0.5536,-0.6132,-0.7129,-0.7347,-0.6965,-0.6765,-0.6865,-0.6977,-0.7077,-0.639,-0.5592,-0.5482,0.0,0.0,0.0,0.0,0.0,0.0,0.0,0.0,0.0,0.0,0.0,0.0,0.0,0.0,0.0,0.0,0.0,0.0,0.0,0.0,0.0,0.0,0.0,0.0,-0.7296,-0.8231,-0.8611,-0.9448,-0.9753,-0.8916,-0.9722,-0.9938,-0.897,-0.9095,-0.9171,-0.9171,-0.928,-0.9345,-0.9345,-0.9449,0.0,0.0,0.0,-0.9081,-0.8173,-0.8186,-0.7742,-0.7145,-0.7145,-0.7233,-0.724,-0.724,-0.7334,-0.7502,-0.7495,-0.7665,-0.7534,-0.7187,-0.6579,-0.574,-0.7006,-0.7304,-0.7323,-0.7141,-0.6722,-0.6258,0.0,0.0,0.0,0.0,0.0,0.0,0.0,-0.3838,-0.3827,-0.3206,-0.288,-0.262,-0.2217,-0.1513,-0.1816,-0.3428,-0.3827,-0.4429,-0.5632,-0.5131,-0.4529,-0.383,-0.3226,-0.2823,-0.2723,-0.2723,-0.2723,-0.2723,-0.3128,-0.333,-0.333,-0.3833,-0.3833,-0.3635,-0.3332,-0.3531,-0.3934,-0.4533,-0.5436,-0.6337,-0.7036,-0.7698,-0.8309,-0.7604,-0.7467,-0.7455,-0.7044,-0.679,-0.6536,-0.5913,-0.5202,-0.4607,-0.3484,-0.2632,0.0,0.0,0.0,0.0,0.0,0.0,0.0,0.0,0.0,0.0,0.0,0.0,0.0,0.0,0.0,0.0,0.0,0.0,0.0,-0.6302,-0.6918,-0.7699,-0.8842,-0.9165,-0.9137,-0.8927,-0.9165,-0.9242,-0.9101,-0.9291,-0.9421,-0.9421,-0.953,-0.9601,-0.9601,-0.9622,-0.9179,-0.8122,-0.8223,-0.782,-0.6597,-0.6656,-0.6566,-0.6469,0.0,0.0,-0.6609,-0.6609,-0.6696,-0.6843,-0.6843,-0.6909,-0.6853,-0.62,-0.538,-0.4544,-0.4668,-0.4819,-0.4827,-0.4891,-0.4569,-0.4058,0.0,0.0,0.0,0.0,0.0,0.0,0.0,-0.2192,-0.2228,-0.1761,-0.1692,-0.1411,-0.1009,-0.0606,-0.0909,-0.232,-0.2922,-0.3321,-0.3623,-0.3221,-0.2819,-0.2418,-0.2016,-0.1816,-0.2017,-0.2017,-0.2017,-0.2219,-0.2421,-0.2624,-0.2826,-0.3027,-0.3128,-0.3027,-0.3128,-0.333,-0.3632,-0.4734,-0.5732,-0.6631,-0.7036,-0.7864,-0.8674,-0.8163,-0.7897,-0.7868,-0.769,-0.7448,-0.7051,-0.6557,-0.6284,-0.6019,-0.5368,-0.4498,-0.3856,0.0,0.0,0.0,0.0,0.0,0.0,0.0,0.0,0.0,0.0,0.0,0.0,0.0,0.0,-0.3595,-0.3233,0.0,-0.48,-0.5145,-0.6492,-0.7475,-0.7964,-0.8371,-0.8853,-0.9226,-0.9275,-0.9334,-0.9394,-0.9508,-0.9579,-0.9579,-0.9633,-0.9366,-0.876,-0.8809,-0.8232,-0.7013,-0.7138,-0.658,-0.5645,-0.5713,-0.5442,-0.5153,-0.5153,-0.5185,-0.5082,-0.5111,-0.5171,-0.5425,-0.5285,-0.533,-0.5385,-0.4744,-0.4087,-0.3588,-0.3588,-0.3757,-0.3919,-0.3941,-0.3602,-0.326,0.0,0.0,0.0,0.0,0.0,0.0,0.0,0.0,-0.0294,0.0,-0.0199,-0.0201,0.0301,0.0402,0.0,-0.0904,-0.1805,-0.2007,-0.1209,-0.1208,-0.1107,-0.0706,-0.0706,-0.0907,-0.1312,-0.121,-0.131,-0.1614,-0.1513,-0.1715,-0.2017,-0.2017,-0.2118,-0.2118,-0.2624,-0.2932,-0.3245,-0.4859,-0.5977,-0.6597,-0.7012,-0.7629,-0.8223,-0.8046,-0.7986,-0.7962,-0.8182,-0.782,-0.7376,-0.7376,-0.746,-0.755,-0.722,-0.6478,-0.5737,-0.6251,-0.5579,0.0,0.0,0.0,0.0,0.0,0.0,0.0,0.0,-0.4027,-0.3827,-0.3269,-0.2979,-0.2684,-0.2157,-0.323,-0.4097,-0.3849,-0.573,-0.7226,-0.6892,-0.7774,-0.8637,-0.9255,-0.9239,-0.9409,-0.9511,-0.9537,-0.9553,-0.9397,-0.9418,-0.8824,-0.7604,-0.754,-0.7127,-0.5739,-0.5859,-0.5445,-0.4648,-0.4693,-0.4232,-0.3591,-0.3598,-0.3625,-0.3666,-0.3709,-0.3748,-0.379,-0.3838,-0.3861,-0.3866,-0.3583,-0.3265,-0.2927,-0.2951,-0.3134,-0.3484,-0.3477,-0.3308,-0.2962,0.0,0.0,0.0,0.0,0.0,0.0,0.0,0.0,0.0,0.2353,0.1595,0.1203,0.1677,0.1676,0.1181,-0.0098,-0.1179,-0.1187,0.01,0.0201,0.0403,0.0907,0.0907,0.0605,-0.0202,0.0303,0.0303,-0.0202,0.0,-0.0101,-0.0606,-0.0908,-0.1008,-0.1008,-0.1512,-0.2238,-0.2993,-0.4538,-0.5408,-0.6013,-0.6548,-0.6709,-0.6437,-0.6223,-0.6813,-0.7662,-0.7365,-0.7598,-0.7931,-0.7931,-0.8027,-0.8022,-0.7085,-0.6359,-0.5743,-0.5722,-0.4857,-0.4008,-0.4896,-0.463,-0.4273,-0.4208,-0.4289,-0.4211,0.0,-0.3648,-0.3261,-0.3408,-0.2836,-0.2226,-0.2132,-0.2299,-0.2755,-0.3824,-0.4887,-0.5967,-0.6925,-0.7769,-0.8478,-0.8726,-0.8648,-0.86,-0.9065,-0.9157,-0.8903,-0.8287,-0.822,-0.7799,-0.6552,-0.6469,-0.5877,-0.4611,-0.467,-0.4055,-0.2921,-0.2925,-0.2778,-0.2807,-0.2836,-0.2866,-0.29,-0.2932,-0.2963,-0.2998,-0.3056,-0.3082,-0.3085,-0.3121,-0.2953,-0.2957,-0.296,-0.2976,-0.2994,-0.3152,-0.2958,-0.2965,0.0,0.0,0.0,0.0,0.0,0.0,0.0,0.0,0.0,0.0,0.2809,0.2414,0.2598,0.2095,0.1489,0.0883,0.0297,0.04,0.1508,0.2012,0.2416,0.2819,0.2819,0.2517,0.1915,0.2116,0.1814,0.0908,0.1008,0.071,-0.0205,-0.0308,-0.0309,-0.0312,-0.1458,-0.2091,-0.2527,-0.4313,-0.5172,-0.5316,-0.5633,-0.5642,-0.5443,-0.4518,-0.4491,-0.5027,-0.5859,-0.6543,0.0,-0.7271,-0.7573,-0.7903,-0.7556,-0.6489,-0.5397,-0.5346,-0.4564,-0.3909,-0.4538,-0.3998,-0.3366,-0.3688,-0.3455,-0.3116,-0.2874,-0.2623,-0.2501,-0.2464,-0.2113,-0.1747,-0.1648,-0.1965,-0.229,-0.2333,-0.3397,-0.4325,-0.4344,-0.5758,-0.6732,-0.6765,-0.7403,-0.7872,-0.8184,-0.822,-0.7929,-0.6995,-0.7072,-0.649,-0.5226,-0.5285,-0.4678,-0.3388,-0.3428,-0.3131,-0.2654,-0.2672,-0.2697,-0.2727,-0.2739,-0.2752,-0.2765,-0.2796,-0.2836,-0.2881,-0.2905,-0.2926,-0.2945,-0.2975,-0.2988,-0.299,-0.3007,-0.3033,-0.3054,-0.3005,-0.2999,-0.3016,0.0,0.0,0.0,0.0,0.0,0.0,0.0,0.0,0.0,0.0,0.421,0.3804,0.3604,0.2887,0.2374,0.2255,0.2084,0.2304,0.312,0.3827,0.4329,0.4425,0.4626,0.4325,0.3623,0.3827,0.3425,0.2517,0.2732,0.2147,0.1038,0.1042,0.0946,0.0745,-0.0851,-0.1495,-0.1609,-0.3752,-0.4514,-0.4102,-0.4425,-0.4226,-0.3817,-0.273,-0.2531,-0.3001,-0.4299,-0.5202,-0.6038,-0.6487,-0.7124,-0.7675,-0.7328,-0.6489,-0.5397,-0.4893,-0.426,-0.3743,-0.3888,-0.3374,-0.2757,-0.3064,-0.2731,-0.2257,-0.1909,-0.1916,-0.1802,-0.1459,-0.1484,-0.1374,-0.113,-0.1589,-0.1766,-0.1341,-0.2414,-0.3041,-0.2432,-0.3839,-0.5106,-0.5106,-0.5923,-0.6434,-0.6141,-0.693,-0.693,-0.5827,-0.5731,-0.5291,-0.4012,-0.3895,-0.3598,-0.2627,-0.2656,-0.2687,-0.2717,-0.2739,-0.2762,-0.2784,-0.2792,-0.2796,-0.2797,-0.2836,-0.2881,-0.2928,-0.2938,-0.2954,-0.2976,-0.3007,-0.3024,-0.3033,-0.2865,-0.289,-0.291,-0.2678,-0.2676,-0.2885,0.0,0.0,0.0,0.0,0.0,0.0,0.0,0.0,0.0,0.0,0.0,0.0,0.0,0.4434,0.4227,0.4208,0.402,0.4248,0.5031,0.5632,0.5832,0.5536,0.6037,0.5832,0.4822,0.5231,0.5231,0.4722,0.5422,0.5064,0.3626,0.3689,0.3295,0.2451,0.0745,-0.0107,-0.0218,-0.2835,-0.3193,-0.2015,-0.2794,-0.2213,-0.0875,-0.0875,-0.1421,-0.2302,-0.2897,-0.358,-0.4359,-0.5815,-0.6786,-0.722,-0.6303,-0.6027,-0.5773,-0.4315,-0.3735,-0.3365,-0.296,-0.265,-0.2464,-0.2466,-0.227,-0.2069,-0.1706,-0.158,-0.1459,-0.1229,-0.1111,-0.113,-0.1161,-0.1178,-0.1193,-0.1208,-0.1987,-0.2463,-0.2463,-0.3267,-0.3918,-0.3918,-0.3918,-0.3623,-0.2711,-0.5263,-0.6218,-0.4626,-0.4517,-0.4061,-0.2762,-0.2628,-0.266,-0.2688,-0.272,-0.275,-0.278,-0.2781,-0.2782,-0.2784,-0.2814,-0.2827,-0.2829,-0.2887,-0.293,-0.2961,-0.2991,-0.3005,-0.3007,-0.3039,-0.3069,-0.3095,-0.2515,-0.2335,-0.2355,-0.1765,-0.1962,-0.2355,0.0,0.0,0.0,0.0,0.0,0.0,0.0,0.0,0.0,0.0,0.0,0.0,0.0,0.0,0.0,0.0,0.6219,0.6283,0.6526,0.7223,0.7422,0.693,0.7627,0.7672,0.7155,0.7262,0.71,0.6562,0.6604,0.6032,0.5034,0.4529,0.4029,0.3413,0.1871,0.1111,0.079,-0.0677,-0.0911,-0.0578,-0.1028,-0.1248,-0.1128,-0.067,-0.1001,-0.1669,0.0,-0.3024,-0.47,-0.515,-0.5506,-0.5643,-0.5306,-0.4911,-0.4422,-0.3709,-0.3134,-0.2661,-0.258,-0.236,-0.2144,-0.2209,-0.1977,-0.1732,-0.1622,-0.1502,-0.11,-0.0825,-0.0695,-0.0703,-0.0426,-0.0437,-0.0447,-0.0449,-0.0153,0.0,0.0,-0.0475,-0.0793,-0.0793,-0.1596,-0.1761,-0.0798,-0.2713,-0.3525,-0.2425,-0.1797,-0.1315,-0.0822,-0.0335,-0.0339,-0.1361,-0.1376,-0.1738,-0.2812,-0.2814,-0.2823,-0.2844,-0.2872,-0.2897,-0.2917,-0.2938,-0.2962,-0.2992,-0.3002,-0.284,-0.2492,-0.25,-0.2325,-0.1954,-0.1759,-0.1769,-0.1784,-0.1586,-0.1393,-0.1398,0.0,0.0,0.0,0.0,0.0,0.0,0.0,0.0,0.0,0.0,0.0,0.0,0.0,0.0,0.0,0.0,0.0,0.8018,0.7918,0.8612,0.8711,0.8223,0.8825,0.9076,0.878,0.878,0.8526,0.8007,0.7897,0.7464,0.6577,0.6122,0.5422,0.4585,0.3354,0.2485,0.1836,0.0689,0.0346,0.0466,-0.0115,-0.0572,-0.0682,-0.0338,-0.0673,0.0,-0.1346,-0.2466,-0.4148,-0.4369,-0.4484,-0.4487,-0.4402,-0.402,-0.3408,-0.3136,-0.244,-0.1848,-0.1768,-0.1666,-0.143,-0.1471,-0.1492,-0.1507,-0.1382,-0.1115,-0.0841,-0.0419,-0.028,-0.0281,0.0,0.0,0.0,0.0,0.0459,0.094,0.1427,0.1274,0.1278,0.1765,0.113,0.081,0.1293,0.0323,-0.0324,-0.0327,0.0166,0.0502,0.0502,0.1021,0.0861,-0.0346,-0.0348,-0.1055,-0.2311,-0.232,-0.2337,-0.2362,-0.2558,-0.2579,-0.2419,-0.2605,-0.2624,-0.2469,-0.2469,-0.23,-0.1945,-0.1945,-0.1761,-0.1579,-0.1382,-0.1191,-0.1201,-0.1001,-0.0804,-0.0605,0.0,0.0,0.0,0.0,0.0,0.0,0.0,0.0,0.0,0.0,0.0,0.0,0.0,0.0,0.0,0.0,0.0,0.0,0.9312,0.9805,0.9805,0.9312,0.9813,0.9929,0.964,0.964,0.9549,0.926,0.9587,0.9212,0.8157,0.833,0.7575,0.5797,0.4908,0.3948,0.2754,0.1262,0.0804,0.0921,0.0115,0.0,0.0337,0.0112,-0.0561,-0.1347,-0.1348,-0.191,-0.2697,-0.3367,-0.3485,-0.3498,-0.3441,-0.3183,-0.2665,-0.2339,-0.1624,-0.0761,-0.0386,-0.0396,-0.027,0.0,-0.0689,-0.1264,-0.0562,-0.0281,-0.0282,0.0,0.0142,0.0,0.0,0.0,0.0,0.0,0.0,0.0465,0.1884,0.2064,0.2568,0.3899,0.4067,0.3923,0.3632,0.364,0.298,0.1657,0.152,0.1538,0.1538,0.1728,0.1222,0.0176,0.0177,-0.0356,-0.1257,-0.1453,-0.1468,-0.1483,-0.1853,-0.1863,-0.1505,-0.1882,-0.1902,-0.1356,-0.155,-0.1363,-0.1376,-0.1376,-0.1581,-0.1395,-0.0997,-0.0802,-0.0606,-0.0202,0.0,0.0,0.0,0.0,0.0,0.0,0.0,0.0,0.0,0.0,0.0,0.0,0.0,0.0,0.0,0.0,0.0,0.0,0.0,0.0,1.0681,1.1179,1.1082,1.01,1.06,1.0879,1.0733,1.0532,1.0399,1.0433,1.0319,1.0048,0.9526,0.856,0.7636,0.6781,0.5782,0.4547,0.3272,0.2968,0.2428,0.1752,0.1156,0.0688,0.0114,-0.0225,-0.0897,-0.1686,-0.1706,-0.1828,-0.2172,-0.2744,-0.2554,-0.2136,-0.1688,-0.1351,-0.0875,-0.0634,-0.0129,0.0261,0.0663,0.0808,0.0824,0.0841,0.1132,0.1421,0.1563,0.2005,0.2297,0.1414,0.1264,0.098,0.014,0.0,0.0,0.0,0.0608,0.1417,0.2891,0.3551,0.4388,0.5754,0.597,0.5989,0.579,0.5873,0.5761,0.4915,0.3919,0.3432,0.3459,0.4195,0.4048,0.2648,0.1972,0.1086,-0.0363,-0.1101,-0.1483,-0.1498,-0.1684,-0.17,-0.1537,-0.1537,-0.116,-0.0391,-0.1173,-0.0786,0.0198,-0.0595,-0.0798,-0.0403,-0.0201,-0.0202,-0.0202,0.0,0.0,0.0202,0.0,0.0,0.0,0.0,0.0,0.0,0.0,0.0,0.0,0.0,0.0,0.0,0.0,0.0,0.0,0.0,0.0,0.0,0.0,1.2262,1.2078,1.1277,1.1482,1.1452,1.1278,1.1179,1.1034,1.083,1.0826,1.0664,1.0355,0.9287,0.8374,0.7644,0.6378,0.5068,0.3813,0.3305,0.2539,0.0,0.0,0.0458,-0.0114,-0.045,-0.0901,-0.1362,-0.1375,-0.1166,-0.095,-0.0956,-0.0724,-0.0366,0.0,0.0254,0.0387,0.0527,0.1067,0.1616,0.191,0.1936,0.1964,0.2278,0.2439,0.2443,0.2716,0.3303,0.3303,0.211,0.2092,0.1801,0.0688,0.0566,0.0579,0.0579,0.0906,0.1886,0.3697,0.4374,0.5232,0.6981,0.7368,0.7223,0.7048,0.7127,0.7035,0.6586,0.5724,0.5043,0.4898,0.548,0.5167,0.3938,0.344,0.2378,0.0739,0.0186,-0.0187,-0.0189,0.0,0.0383,0.058,0.0389,0.0783,0.1382,0.0,0.1191,0.2202,0.1602,0.1206,0.101,0.101,0.0606,0.0,0.0812,0.1219,0.1424,0.0,0.0,0.0,0.0,0.0,0.0,0.0,0.0,0.0,0.0,0.0,0.0,0.0,0.0,0.0,0.0,0.0,0.0,0.0,0.0,1.2759,1.2565,1.2273,1.198,1.1785,1.1688,1.1394,1.0904,1.1088,1.097,1.0575,0.9919,0.9168,0.8249,0.6679,0.5377,0.4244,0.2841,0.1947,0.1261,0.0344,-0.0114,-0.0336,0.0,-0.0907,-0.092,-0.0809,-0.0357,0.0371,0.1132,0.1383,0.1254,0.1547,0.1577,0.1602,0.164,0.2341,0.3038,0.3079,0.3119,0.329,0.4009,0.3465,0.3047,0.3723,0.4142,0.4124,0.2943,0.2769,0.2608,0.1508,0.1262,0.1143,0.1147,0.1195,0.2175,0.4464,0.4844,0.557,0.804,0.824,0.8113,0.7681,0.7711,0.7439,0.7227,0.6895,0.6372,0.5839,0.5898,0.5421,0.4387,0.4389,0.3506,0.1693,0.1696,0.1705,0.1719,0.2314,0.2714,0.3107,0.2741,0.2964,0.359,0.3389,0.3605,0.4035,0.4033,0.343,0.2422,0.2623,0.1818,0.081,0.2449,0.3071,0.3284,0.0,0.0,0.0,0.0,0.0,0.0,0.0,0.0,0.0,0.0,1.4545,1.3814,0.0,0.0,0.0,0.0,0.0,0.0,0.0,0.0,0.0,1.334,1.2856,1.2662,1.2565,1.2175,1.1785,1.1492,1.1531,1.1058,1.0069,0.9299,0.8578,0.7788,0.6243,0.4959,0.3841,0.3015,0.2026,0.0901,0.0563,0.0225,-0.0112,-0.0336,0.0,0.0,-0.0356,0.0485,0.1362,0.2162,0.2213,0.226,0.2839,0.3019,0.3055,0.3349,0.3632,0.3783,0.4259,0.4567,0.4875,0.4927,0.5525,0.6239,0.6158,0.6709,0.6944,0.5667,0.4669,0.3693,0.2571,0.1658,0.1134,0.116,0.1193,0.2159,0.4829,0.5191,0.6224,0.8878,0.8973,0.8688,0.8705,0.8507,0.8085,0.7761,0.7648,0.751,0.6974,0.6504,0.5864,0.4481,0.4483,0.3945,0.285,0.2874,0.2888,0.2894,0.2922,0.3145,0.317,0.357,0.419,0.5235,0.4628,0.0,0.4035,0.4436,0.3832,0.2624,0.3832,0.4254,0.4285,0.49,0.5337,0.5792,0.0,0.0,0.0,0.0,0.0,0.0,0.0,0.0,1.4578,1.5152,1.4854,1.4741,0.0,0.0,0.0,0.0,0.0,0.0,0.0,0.0,0.0,0.0,1.3352,1.305,1.2759,1.2565,1.2175,1.1785,0.0,1.1198,1.0413,0.9514,0.8585,0.7443,0.5955,0.4762,0.3826,0.2892,0.2018,0.1346,0.1009,0.0673,0.0561,0.0,0.0,0.0,0.1451,0.2093,0.2878,0.3198,0.3546,0.3915,0.3999,0.4063,0.4112,0.4284,0.4456,0.4774,0.495,0.5275,0.5753,0.623,0.6651,0.7169,0.7313,0.7809,0.7845,0.6541,0.5968,0.5417,0.4305,0.3712,0.3383,0.3451,0.3555,0.4297,0.6238,0.663,0.7367,0.9212,0.9328,0.9238,0.9288,0.9087,0.8841,0.8534,0.8441,0.7952,0.7235,0.7157,0.669,0.6006,0.5687,0.5158,0.4798,0.4845,0.4868,0.4868,0.5509,0.5745,0.5772,0.5996,0.6425,0.6858,0.6654,0.6452,0.6657,0.6855,0.6251,0.5443,0.6246,0.6262,0.5888,0.7172,0.7632,0.809,0.0,0.0,0.0,0.0,0.0,0.0,0.0,1.4231,1.4617,1.4804,1.5153,1.5369,1.5434,1.4712,1.4292,0.0,0.0,0.0,0.0,0.0,0.0,0.0,0.0,0.0,1.305,0.0,0.0,1.2175,1.1785,0.0,0.0,0.0,0.0,0.0,0.592,0.4811,0.4179,0.2899,0.2132,0.0,0.0,0.1573,0.1469,0.0,0.0,0.0,0.0,0.3725,0.4276,0.4357,0.4851,0.5248,0.4839,0.4797,0.4869,0.4918,0.5134,0.5493,0.5493,0.5995,0.6506,0.7105,0.7335,0.7668,0.8041,0.8329,0.8183,0.7152,0.6982,0.6715,0.5908,0.5607,0.5447,0.5554,0.5726,0.6391,0.7611,0.789,0.8354,0.9579,0.9705,0.9806,0.9908,0.9495,0.9414,0.9491,0.9062,0.841,0.7516,0.7631,0.7708,0.7555,0.6902,0.6577,0.6589,0.6655,0.6687,0.6687,0.755,0.7984,0.7987,0.8242,0.827,0.827,0.8471,0.8672,0.8672,0.9279,0.8869,0.8259,0.8661,0.8266,0.7686,0.9239,0.9922,1.0165,0.0,0.0,0.0,0.0,0.0,0.0,0.0,1.4668,1.5073,1.6223,1.5818,1.5439,1.5439,1.4771,1.4292,0.0,0.0,0.0,0.0,0.0,0.0,0.0,0.0,0.0,0.0,0.0,0.0,1.2759,1.198,0.0,0.0,0.0,0.0,0.0,0.0,0.517,0.5139,0.3362,0.0,0.0,0.0,0.0,0.0,0.0,0.0,0.0,0.0,0.4807,0.4833,0.5361,0.5598,0.5697,0.5454,0.5461,0.557,0.558,0.5825,0.5941,0.5941,0.6589,0.7256,0.7252,0.8085,0.8695,0.8469,0.8614,0.8745,0.8504,0.765,0.6982,0.6849,0.6057,0.5464,0.5537,0.5784,0.6414,0.8067,0.8375,0.9029,1.0525,1.0496,1.0442,1.0544,1.0131,0.9843,0.9852,0.9671,0.9078,0.8233,0.8065,0.7953,0.7708,0.7728,0.7766,0.7837,0.7912,0.795,0.795,0.8021,0.8058,0.8058,0.8672,0.8877,0.8877,0.9878,0.9472,0.0,1.0275,1.0275,0.9059,1.0476,1.0936,1.1019,1.1652,1.2129,1.222,0.0,0.0,0.0,0.0,0.0,0.0,0.0,1.4847,1.5164,1.5468,1.5534,1.5439,1.4771,1.4484,1.4292,0.0,0.0,0.0,0.0,0.0,0.0,0.0,0.0,0.0,0.0,0.0,1.3614,1.3467,1.247,0.0,0.0,0.0,0.0,0.0,0.0,0.6333,0.5931,0.4923,0.0,0.0,0.0,0.0,0.0,0.0,0.0,0.0,0.0,0.0,0.6251,0.6454,0.6584,0.6723,0.6668,0.7093,0.7265,0.6111,0.6543,0.7277,0.6888,0.7759,0.8799,0.8645,0.878,0.8856,0.8981,0.889,0.8812,0.872,0.8428,0.8023,0.8023,0.7747,0.7538,0.7585,0.77,0.8047,0.9051,0.9261,0.9652,1.0655,1.0704,1.0725,1.1079,1.0677,1.0441,1.0207,1.0165,0.9924,0.9274,0.8952,0.8798,0.8622,0.8722,0.8787,0.8822,0.8906,0.8975,0.9028,0.9059,0.9074,0.9074,0.9681,0.9882,0.9882,1.0748,1.0771,0.0,1.1037,1.1227,1.0973,1.1648,1.2069,1.2476,1.2816,1.29,1.2948,0.0,0.0,0.0,0.0,0.0,1.3771,1.4244,1.4837,1.5074,1.4816,1.5166,1.5166,1.4496,1.44,1.4328,1.4413,0.0,0.0,0.0,0.0,0.0,0.0,0.0,0.0,0.0,0.0,1.4049,1.401,1.2694,1.1928,0.0,0.0,0.9154,0.8016,0.0,0.0,0.0,0.0,0.0,0.0,0.0,0.0,0.0,0.0,0.0,0.0,0.0,0.0,0.0,0.0,0.0,0.8154,0.8055,0.8446,0.8617,0.7004,0.7791,0.8897,0.8383,0.9193,1.0175,0.9864,0.945,0.916,0.9334,0.9057,0.8812,0.878,0.8802,0.8823,0.8823,0.8823,0.8861,0.8986,0.9106,0.9296,0.9622,0.9873,1.0139,1.0465,1.0688,1.0922,1.1194,1.1041,1.087,1.0509,1.062,1.0559,1.0126,0.982,0.9636,0.9187,0.9524,0.9615,0.964,0.9934,1.0015,1.0083,1.0083,1.0083,1.0284,1.048,1.0681,1.069,1.1397,1.1648,0.0,1.1959,1.2369,1.2517,1.259,1.2779,1.314,1.3308,1.3368,1.3379,0.0,0.0,0.0,0.0,0.0,0.0,0.0,1.4643,1.4833,1.5045,1.4892,1.4688,1.4688,1.4496,1.4413,1.469,0.0,0.0,0.0,0.0,0.0,0.0,0.0,0.0,0.0,0.0,1.434,1.4319,1.2594,1.1904,1.2009,1.0412,0.9544,0.9375,0.0,0.0,0.0,0.0,0.0,0.0,0.0,0.0,0.0,0.0,0.0,0.0,0.0,0.0,0.0,0.0,0.0,0.0,0.0,0.9643,0.9407,0.8872,0.9524,1.0645,1.0498,1.0643,1.0641,1.0641,1.0056,0.9454,0.9334,0.9122,0.8916,0.8796,0.8867,0.8948,0.8948,0.8948,0.8992,0.9111,0.9226,0.9389,0.9633,0.9873,1.0112,1.0356,1.0487,1.0704,1.1069,1.1427,1.1502,1.1064,1.1176,1.1157,1.0802,1.0816,1.0239,0.9281,0.9945,1.0232,1.033,1.103,1.1282,1.1282,1.1282,1.1282,1.1282,1.1282,1.1282,1.1292,1.2004,1.2257,0.0,1.2989,1.3238,1.3238,1.3238,1.3238,1.3238,1.3238,1.3238,1.3238,0.0,0.0,0.0,0.0,0.0,0.0,0.0,1.5021,1.5126,1.514,1.4987,1.4796,1.4496,1.44,1.4413,1.469,0.0,0.0,0.0,0.0,0.0,0.0,0.0,0.0,0.0,0.0,1.4521,1.4879,1.3296,1.2548,1.276,1.1131,1.0482,1.0755,1.0412,1.0453,0.0,0.0,0.0,0.0,0.0,0.0,1.0554,0.0,0.0,0.0,0.0,0.0,0.0,0.0,0.0,0.0,0.0,0.0,0.0,1.0905,1.1063,1.1248,1.0779,1.1411,1.1911,1.1418,1.0614,0.997,1.0155,0.9547,0.8965,0.9008,0.9052,0.9079,0.9079,0.9079,0.9117,0.9231,0.928,0.9389,0.9633,0.9873,1.0139,1.0465,1.0971,1.1373,1.1574,1.1764,1.1889,1.1742,1.1855,1.1805,1.1387,1.1392,1.1008,1.0431,1.0523,1.0787,1.082,1.1121,1.1211,1.1287,1.1359,1.1354,1.1287,1.1762,1.1959,1.1894,1.2611,1.2909,1.2989,1.3314,1.3363,1.3374,1.3455,1.3439,1.3374,1.3455,1.3488,1.3488,0.0,0.0,0.0,0.0,0.0,0.0,0.0,1.5322,1.5404,1.5389,1.5114,1.4783,1.4496,1.4388,1.4449,1.4835,0.0,0.0,0.0,0.0,0.0,0.0,0.0,0.0,0.0,1.4401,1.4714,1.5258,1.4035,1.364,1.3973,1.2652,1.2074,1.2289,1.2289,1.2329,0.0,0.0,0.0,0.0,0.0,0.0,1.1954,0.0,0.0,0.0,0.0,0.0,0.0,0.0,0.0,0.0,0.0,0.0,0.0,0.0,1.2586,1.255,1.2153,1.2529,1.2887,1.2751,1.1543,1.05,1.0725,0.9865,0.9181,0.9677,0.9735,0.9906,1.0333,1.0048,0.9792,0.9867,1.0064,1.0023,1.0231,1.0479,1.0645,1.0574,1.1145,1.1547,1.1667,1.1868,1.1987,1.1987,1.2145,1.2101,1.2031,1.2036,1.1859,1.1513,1.1383,1.1397,1.1358,1.1703,1.1838,1.1949,1.1979,1.1994,1.2009,1.2398,1.2584,1.2558,1.2877,1.3172,0.0,1.3423,1.3488,1.3499,1.3575,1.3558,1.3499,1.3575,1.3813,1.3813,0.0,0.0,0.0,0.0,0.0,0.0,0.0,0.0,0.0,1.5722,1.5175,1.4783,1.4688,1.4496,1.4509,0.0,0.0,0.0,0.0,0.0,0.0,0.0,0.0,0.0,0.0,1.4558,1.4956,1.5487,1.4927,1.4877,1.5445,1.4572,1.4002,1.3878,1.3878,1.3744,0.0,0.0,0.0,0.0,0.0,0.0,0.0,0.0,0.0,0.0,0.0,0.0,0.0,0.0,0.0,0.0,0.0,0.0,0.0,0.0,0.0,0.0,0.0,1.3839,1.3704,1.4179,1.2809,1.1155,1.1168,1.0221,0.0,1.069,1.0934,1.1312,1.2466,1.1886,1.1175,1.1181,1.1299,1.1449,1.1158,1.1753,1.1842,1.1053,1.1262,1.1533,1.1482,1.1803,1.1998,1.1998,1.2221,1.2406,1.2531,1.2542,1.2596,1.27,1.2321,1.2072,1.1952,1.2572,1.295,1.3069,1.2966,1.3026,1.3232,1.302,1.2982,0.0,1.3194,1.3243,1.327,1.3499,1.3597,1.3602,1.3602,1.3602,1.3602,1.3602,1.403,1.4452,0.0,0.0,0.0,0.0,0.0,0.0,0.0,0.0,0.0,0.0,1.5457,1.5261,1.4496,1.4292,1.4509,0.0,0.0,0.0,0.0,0.0,0.0,0.0,0.0,0.0,0.0,1.468,1.506,1.5853,1.5194,1.5077,1.5568,1.4813,1.4738,1.5264,1.5264,1.5613,0.0,0.0,0.0,0.0,0.0,0.0,0.0,0.0,0.0,0.0,1.4109,1.4145,0.0,0.0,0.0,0.0,0.0,0.0,0.0,0.0,1.3875,1.3936,1.4504,0.0,1.4113,1.4587,1.3891,1.2871,0.0,1.1722,1.1123,1.1409,1.1435,1.1743,1.261,1.2459,1.2359,1.2474,1.2626,1.2827,1.3108,1.3735,1.3818,1.2834,1.3053,1.2993,1.2035,1.2025,1.2129,1.2129,1.227,1.2406,1.2531,1.2618,1.2678,1.2705,1.2599,1.2588,1.2465,1.2814,1.295,1.3069,1.3129,1.3183,1.3238,1.3276,1.3259,1.32,1.3227,1.3292,1.3385,1.3439,1.352,1.3602,1.3602,1.3819,1.4241,1.4241,1.4657,1.5078,0.0,0.0,0.0,0.0,0.0,0.0,0.0,0.0,0.0,0.0,0.0,0.0,0.0,0.0,0.0,0.0,0.0,0.0,0.0,0.0,0.0,0.0,0.0,0.0,1.5771,1.5183,1.5469,1.6673,1.6041,1.6032,1.6564,1.6082,1.6362,1.7205,1.7426,0.0,0.0,0.0,0.0,0.0,1.6001,0.0,0.0,0.0,0.0,0.0,1.4847,1.4838,0.0,1.4827,1.48,1.4539,0.0,0.0,0.0,0.0,1.4408,1.4444,1.4787,1.4773,1.4647,1.5229,1.4675,1.3915,1.3587,1.2745,1.2316,1.2888,1.2888,1.3174,1.4181,1.3961,1.3762,1.3704,1.4144,1.4517,1.4947,1.5295,1.5353,1.4472,1.4668,1.4441,1.3168,1.3257,1.2945,1.2254,1.2368,1.2487,1.2607,1.2727,1.2786,1.2786,1.2852,1.283,1.2705,1.2825,1.2977,1.3145,1.3156,1.3249,1.3406,1.3357,1.333,1.3325,1.3325,1.3357,1.3428,1.3482,1.3758,1.4024,1.4024,1.4235,1.4868,1.4868,1.5078,1.5704,0.0,0.0,0.0,0.0,0.0,0.0,0.0,0.0,0.0,0.0,0.0,0.0,0.0,0.0,0.0,0.0,0.0,0.0,0.0,0.0,0.0,0.0,0.0,1.6059,1.719,1.5882,1.594,1.7655,1.7154,1.7212,1.7701,1.7867,1.8399,1.9181,1.9766,1.9685,0.0,0.0,0.0,0.0,1.6462,0.0,0.0,0.0,0.0,0.0,0.0,0.0,0.0,1.5514,1.5332,1.5062,1.5062,0.0,0.0,0.0,0.0,0.0,1.531,1.5278,1.5366,1.5819,1.5447,1.4884,1.4742,1.403,1.346,1.46,1.4742,1.5035,1.6084,1.565,1.5197,1.5113,1.5595,1.6164,1.6733,1.6943,1.673,1.621,1.6369,1.614,1.4926,1.4785,1.4291,1.3107,1.3234,1.3361,1.3482,1.3416,1.3284,1.3684,1.3084,1.3035,1.3127,1.3035,1.3004,1.3238,1.314,1.3276,1.3597,1.339,1.3352,1.345,0.0,0.0,1.3873,1.3979,1.4446,1.5078,1.4868,1.5078,1.5704,1.5493,1.571,1.6341,0.0,0.0,0.0,0.0,0.0,0.0,0.0,0.0,0.0,0.0,0.0,0.0,0.0,0.0,0.0,0.0,0.0,0.0,0.0,0.0,0.0,0.0,1.6182,1.6593,1.7428,1.6137,1.626,1.7864,1.7862,1.8184,1.8713,1.9794,2.0413,2.0545,2.0794,2.0755,2.0371,0.0,0.0,0.0,1.7973,0.0,0.0,0.0,0.0,0.0,0.0,0.0,0.0,1.5903,1.5844,1.5844,1.5844,0.0,0.0,0.0,0.0,0.0,1.6125,1.6476,1.6649,1.6412,1.6298,1.6301,1.6018,1.5735,1.5735,1.5877,1.5877,1.6216,1.6845,1.6903,1.6749,1.6805,1.7232,1.7845,1.8458,1.8922,1.8831,1.7806,1.7994,1.7684,1.6272,1.6212,1.6357,1.6335,1.6493,1.6652,1.6803,1.5585,1.5466,1.6857,1.4277,1.3473,1.4837,1.3473,1.3004,1.3238,1.3221,1.3352,1.3602,1.3564,1.3558,1.3575,0.0,1.4411,1.5666,1.5685,1.6531,1.7789,1.6958,1.6958,1.7377,1.6335,1.6341,1.6768,0.0,0.0,0.0,0.0,0.0,0.0,0.0,0.0,0.0,0.0,0.0,0.0,0.0,0.0,0.0,0.0,0.0,0.0,0.0,0.0,0.0,1.6186,1.6586,1.7021,1.7512,1.633,1.6668,1.8631,1.8453,1.8744,1.9666,2.0723,2.1231,2.1291,2.1728,2.145,2.0615,2.0206,0.0,0.0,0.0,0.0,0.0,0.0,0.0,0.0,0.0,0.0,0.0,0.0,1.6364,1.5974,1.5974,0.0,0.0,0.0,0.0,0.0,1.5449,1.5779,1.6137,1.57,1.6471,1.7345,1.7073,1.7142,1.7231,1.7231,1.7132,1.7122,1.7494,1.7633,1.7812,1.829,1.8541,1.8862,1.9259,1.9666,1.9868,1.9455,1.9563,1.9219,1.7845,1.7925,1.771,1.7222,1.7121,1.7277,1.7523,1.6814,1.6857,1.765,1.6261,1.5864,1.646,1.5864,1.4611,1.3238,1.4794,1.5314,1.4755,1.5509,1.5886,1.5892,0.0,1.6627,1.7259,1.7336,1.7999,1.9044,1.8843,1.9044,1.9462,1.9462,1.9469,1.9678,0.0,0.0,0.0,0.0,0.0,0.0,0.0,0.0,0.0,0.0,0.0,0.0,0.0,0.0,0.0,0.0,0.0,0.0,0.0,0.0,1.6126,1.5895,1.6433,1.7054,1.7624,1.6545,1.7067,1.9346,1.8982,1.969,2.1177,2.1847,2.2186,2.2228,2.2467,2.184,2.0845,2.0233,1.9442,0.0,0.0,0.0,0.0,0.0,0.0,0.0,0.0,0.0,0.0,0.0,0.0,0.0,0.0,0.0,0.0,1.6483,1.6483,1.6234,1.525,1.5443,1.5942,1.5542,1.6651,1.7753,1.7928,1.828,1.8529,1.8686,1.8571,1.8363,1.8392,1.8499,1.8692,1.9331,1.9522,1.9571,1.9876,2.0062,2.0393,2.0658,2.0828,2.0428,1.9462,1.9515,1.9116,1.8296,1.836,1.8511,1.8623,1.8441,1.8244,1.8639,1.8046,1.7848,1.8244,1.8244,1.6792,1.4212,1.6731,1.7227,1.6267,1.7581,1.7931,1.7938,1.8313,1.8594,1.8808,1.9184,1.9879,2.072,2.0929,2.1128,2.1336,2.1751,2.2374,2.2788,0.0,0.0,0.0,0.0,0.0,0.0,0.0,0.0,0.0,0.0,0.0,0.0,0.0,0.0,0.0,0.0,0.0,0.0,0.0,0.0,1.4862,1.4838,1.5348,1.6329,1.783,1.6825,1.727,1.9346,1.964,2.1159,2.3858,2.3889,2.3905,2.3889,2.2676,2.1906,2.1408,1.9933,1.9369,1.9499,0.0,0.0,0.0,0.0,0.0,0.0,0.0,0.0,0.0,0.0,0.0,0.0,0.0,0.0,1.7905,1.7905,1.7905,1.7703,1.6876,1.7006,1.7358,1.7368,1.7133,1.7248,1.8497,1.9257,2.0014,2.0694,2.053,2.0219,1.979,1.9398,1.9381,1.9887,1.9844,2.0007,2.0783,2.0553,2.0667,2.1074,2.114,2.1149,2.0983,2.1151,2.1348,2.1392,2.1577,2.1772,2.1986,2.0611,2.0414,2.1995,1.9232,1.8244,1.9824,1.9824,1.9123,1.7494,1.7687,1.7769,1.7945,1.7931,1.7931,1.7938,1.8313,1.9212,2.0669,2.1466,2.2788,2.4048,2.3635,2.2797,2.1959,2.1959,2.3202,2.4853,0.0,0.0,0.0,0.0,0.0,0.0,0.0,0.0,0.0,0.0,0.0,0.0,0.0,0.0,0.0,0.0,0.0,0.0,0.0,0.0,1.4278,1.4956,1.5306,1.6093,1.7395,1.7443,1.8424,2.0501,2.1609,2.262,2.3518,2.3104,2.2659,2.2259,2.146,2.0816,2.0155,1.9929,1.9448,1.9074,1.8981,0.0,0.0,0.0,0.0,0.0,0.0,0.0,0.0,0.0,1.8173,1.8033,1.8033,1.8033,1.8033,1.8033,1.8033,1.7798,1.6848,1.7191,1.7654,1.6955,1.7725,1.867,1.9779,2.0478,2.0991,2.1425,2.1238,2.1029,2.0726,2.0515,2.0502,2.0797,2.0756,2.0836,2.1213,2.1581,2.1507,2.1491,2.1452,2.1538,2.1168,2.1348,2.1556,2.1773,2.1981,2.2179,2.2378,2.1799,2.1799,2.2387,2.1201,2.0808,2.1406,2.1406,2.1237,2.0716,2.0716,2.0215,1.9396,2.0283,2.082,2.0846,2.1353,2.2102,2.2747,2.3689,2.4461,2.5089,2.5491,2.5687,2.5687,2.5892,2.6723,2.7338,0.0,0.0,0.0,0.0,0.0,0.0,0.0,0.0,0.0,0.0,0.0,0.0,0.0,0.0,0.0,0.0,0.0,0.0,1.3511,1.3682,1.4196,1.5169,1.554,1.6458,1.7871,1.8577,1.9651,2.1083,2.2544,2.3119,2.2946,2.2364,2.1665,2.118,2.0708,2.0054,1.9611,1.9735,1.9437,1.8831,1.9139,1.937,0.0,0.0,0.0,0.0,0.0,0.0,0.0,0.0,1.8618,1.8395,1.8325,1.8302,1.8302,1.8302,1.8348,1.8289,1.7239,1.7572,1.8078,1.7451,1.8389,1.9892,2.1071,2.1569,2.1919,2.2408,2.2159,2.19,2.1682,2.1689,2.1589,2.1734,2.1692,2.1721,2.1771,2.201,2.2111,2.1748,2.1945,2.1898,2.1723,2.1788,2.182,2.1973,2.2038,2.2245,2.2387,2.2387,2.2387,2.2387,2.2387,2.2387,2.2387,2.265,2.2659,2.2583,2.2856,2.2332,2.1001,2.206,2.2583,2.2612,2.363,2.4016,2.4056,2.5113,2.5707,2.6118,2.7133,2.7758,2.8178,2.8382,2.879,2.879,0.0,0.0,0.0,0.0,0.0,0.0,0.0,0.0,0.0,0.0,0.0,0.0,0.0,0.0,0.0,0.0,0.0,0.0,1.4292,1.4304,1.4618,1.549,1.6056,1.7387,1.9346,2.0193,2.0753,2.0753,2.1974,2.2617,2.2632,2.1854,2.1474,2.1087,2.0411,2.0047,2.0073,1.9345,1.9072,1.9084,1.9365,1.9524,0.0,0.0,0.0,0.0,0.0,0.0,0.0,0.0,1.9253,1.9422,1.9169,1.9084,1.9084,1.9084,1.9265,1.9209,1.8159,1.8239,1.8661,1.9044,1.9491,2.0343,2.2313,2.2452,2.2573,2.3623,2.3329,2.2747,2.2682,2.2567,2.2576,2.2577,2.2544,2.2588,2.2308,2.2378,2.2293,2.2293,2.2495,2.2637,2.2637,2.2478,2.2544,2.2544,2.2548,2.2387,2.2387,2.2387,2.2387,2.2387,2.2387,2.2387,2.2387,2.3197,2.3395,2.318,2.3996,2.3592,2.2397,2.2974,2.317,2.3199,2.4227,2.4628,2.4659,2.5726,2.6734,2.7758,2.8382,2.8586,2.8586,2.8586,2.8994,2.9389,0.0,0.0,0.0,0.0,0.0,0.0,0.0,0.0,0.0,0.0,0.0,0.0,0.0,0.0,0.0,0.0,0.0,0.0,1.3414,1.4072,1.4789,1.577,1.6746,1.7914,1.9257,2.0208,2.0988,2.1805,2.2079,2.1802,2.0698,2.0429,1.9942,1.9145,1.9187,1.9187,1.9074,1.9091,1.9181,1.935,1.9492,1.9759,0.0,0.0,0.0,0.0,0.0,0.0,0.0,0.0,0.0,0.0,1.9434,1.9483,1.9603,1.941,1.9543,1.976,1.9362,1.974,2.0142,2.0225,2.0911,2.1829,2.2561,2.273,2.3007,2.3707,2.3764,2.3651,2.3062,2.319,2.326,2.3087,2.3247,2.3436,2.3326,2.3477,2.3379,2.2816,2.3044,2.3005,2.2637,2.2713,2.2873,2.2873,2.3093,2.3148,2.3148,2.3481,2.3571,2.3571,2.3571,2.3571,2.3571,2.3789,2.4067,2.4006,2.4274,2.4067,2.3799,2.3836,2.3846,2.4016,2.4906,2.5429,2.585,2.7355,2.7974,2.8382,2.8982,2.9186,2.9186,2.9604,2.9808,3.0011,0.0,0.0,0.0,0.0,0.0,0.0,0.0,0.0,0.0,0.0,0.0,0.0,0.0,0.0,0.0,0.0,0.0,0.0,0.0,1.4741,1.5604,1.65,1.7387,1.8419,1.9652,2.0382,2.0876,2.0886,2.1014,2.0635,1.9728,1.9491,1.905,1.8456,1.8722,1.8843,1.8855,1.9012,1.9229,1.9483,1.9652,1.9941,2.0291,0.0,0.0,0.0,0.0,0.0,0.0,0.0,0.0,0.0,1.9724,1.9748,1.9857,1.9688,1.982,2.0062,2.0171,2.0496,2.0895,2.1221,2.1788,2.2392,2.2862,2.3176,2.3454,2.378,2.3973,2.3908,2.3686,2.3889,2.3986,2.3746,2.4013,2.4143,2.4024,2.4305,2.4197,2.39,2.4139,2.4107,2.3546,2.3571,2.3334,2.3147,2.3294,2.3536,2.3627,2.3759,2.387,2.3951,2.3961,2.3961,2.3961,2.4472,2.4782,2.4887,2.5273,2.5514,2.5607,2.4691,2.4474,2.4898,2.5922,2.6682,2.7192,2.8403,2.8924,2.8855,2.9557,2.9796,2.9796,3.0011,3.0214,3.0214,0.0,0.0,0.0,0.0,0.0,0.0,0.0,0.0,0.0,0.0,1.6358,0.0,0.0,0.0,0.0,0.0,0.0,0.0,0.0,0.0,1.6742,1.7526,1.8167,1.8988,2.0252,2.067,2.0189,1.892,1.9168,1.9429,1.9581,1.9038,1.8686,1.8698,1.8963,1.9072,1.9072,1.9072,1.9241,1.9543,1.9807,2.0047,2.034,2.0581,0.0,0.0,0.0,0.0,0.0,0.0,0.0,0.0,2.0002,1.9941,1.9953,1.9929,2.0245,2.0513,2.0768,2.1035,2.1424,2.2214,2.2469,2.2712,2.3321,2.3671,2.3852,2.384,2.3888,2.3985,2.419,2.4468,2.4579,2.4507,2.4585,2.466,2.4569,2.4657,2.4909,2.516,2.5388,2.5354,2.5001,2.4638,2.4398,2.3862,2.3717,2.3565,2.3779,2.3809,2.3922,2.4341,2.4351,2.4351,2.4351,2.5179,2.5901,2.6103,2.6948,2.7671,2.7867,2.5776,2.5288,2.6103,2.73,2.7958,2.8445,2.9057,2.9225,2.9261,2.9915,3.0214,3.0214,3.0214,3.0214,3.0214,0.0,0.0,0.0,0.0,0.0,0.0,0.0,0.0,0.0,0.0,0.0,0.0,0.0,0.0,0.0,0.0,0.0,0.0,0.0,0.0,1.7441,1.7862,1.8603,1.9549,2.0574,1.9527,1.903,1.9207,1.9272,1.8979,1.8323,1.858,1.8686,1.8698,1.8963,1.9072,1.9072,1.9072,1.935,1.9808,1.9905,2.0195,2.0593,2.0641,2.0665,0.0,0.0,0.0,0.0,0.0,0.0,0.0,2.0279,2.06,2.086,2.065,2.1059,2.1596,2.1735,2.2011,2.2363,2.3151,2.3795,2.4221,2.4306,2.4295,2.4172,2.384,2.4166,2.4407,2.4263,2.4637,2.4975,2.4867,2.5095,2.5187,2.4916,2.5185,2.5275,2.516,2.524,2.5354,2.5354,2.5252,2.5071,2.5262,2.5325,2.5395,2.5628,2.6018,2.623,2.6476,2.6476,2.6476,2.6476,2.6789,2.721,2.7345,2.7645,2.7883,2.8403,2.73,2.7108,2.7334,2.7974,2.8486,2.9081,2.9546,2.9771,2.9927,3.0189,3.0214,3.0214,3.0214,3.0214,3.0214,0.0,0.0,0.0,0.0,0.0,0.0,0.0,0.0,0.0,0.0,0.0,0.0,0.0,0.0,0.0,0.0,0.0,0.0,0.0,0.0,1.8167,1.8812,1.9284,1.9552,1.9794,1.9038,1.8622,1.8583,1.8734,1.8617,1.8263,1.8553,1.8819,1.906,1.9072,1.9145,1.9265,1.9265,1.9507,1.9893,2.0026,2.0315,2.0665,2.0665,2.0665,2.0665,2.0665,0.0,0.0,0.0,0.0,0.0,0.0,0.0,2.1459,2.132,2.1521,2.1861,2.2281,2.2586,2.3006,2.3833,2.4481,2.4939,2.4773,2.4912,2.5012,2.469,2.4576,2.448,2.4601,2.4854,2.5083,2.5216,2.5349,2.5359,2.5437,2.5604,2.5618,2.5689,2.583,2.5791,2.5739,2.5739,2.5604,2.5548,2.5685,2.5925,2.6302,2.6439,2.6679,2.7044,2.7056,2.7056,2.7056,2.7444,2.7824,2.8032,2.8403,2.8859,2.919,2.8463,2.8102,2.8218,2.867,2.9105,2.9605,2.9795,3.0008,3.0033,3.0165,3.0214,3.0214,3.0214,3.0214,3.0238,0.0,0.0,0.0,0.0,0.0,0.0,0.0,0.0,0.0,0.0,0.0,0.0,0.0,0.0,0.0,0.0,0.0,0.0,0.0,0.0,0.0,1.9706,1.9642,1.9292,1.8871,1.8816,1.85,1.795,1.8472,1.8765,1.9071,1.8945,1.9176,1.9719,1.9499,1.9419,1.9531,1.9695,1.9866,1.9977,2.0171,2.0424,2.0665,2.0665,2.0665,2.0665,2.0665,2.0665,2.0665,2.0804,0.0,0.0,0.0,0.0,2.1897,2.1897,2.1897,2.2164,2.255,2.2998,2.3574,2.4649,2.511,2.5302,2.5512,2.5545,2.5737,2.6002,2.52,2.4668,2.4963,2.5083,2.5192,2.5397,2.5433,2.5518,2.5735,2.5796,2.5904,2.6122,2.6399,2.6402,2.6092,2.6293,2.6253,2.5924,2.5924,2.5972,2.6478,2.6501,2.6743,2.743,2.7453,2.7453,2.7453,2.7674,2.8021,2.8493,2.9238,2.9629,2.9719,2.9117,2.8847,2.8883,2.9183,2.9538,2.9888,3.0069,3.0033,2.9888,3.0129,3.0214,3.0214,3.0214,3.0214,3.025,0.0,0.0,0.0,0.0,0.0,0.0,0.0,0.0,0.0,0.0,1.4353,0.0,0.0,0.0,0.0,0.0,0.0,0.0,1.7725,0.0,0.0,1.9358,1.8892,1.8506,1.8468,1.8158,1.8082,1.8239,1.9347,2.0255,2.0773,1.9881,1.9918,2.0773,2.0734,2.0354,1.9929,2.0593,2.0577,2.0219,2.0318,2.0513,2.0665,2.0665,2.0665,2.0665,2.0665,2.0665,2.0804,2.1081,2.1207,0.0,0.0,0.0,2.2173,2.2173,2.2448,2.2802,2.3147,2.401,2.5033,2.5936,2.6201,2.6453,2.7013,2.6626,2.6313,2.7317,2.6415,2.544,2.5514,2.5398,2.5397,2.5433,2.5433,2.5446,2.5482,2.5687,2.5844,2.588,2.6109,2.6375,2.6438,2.6486,2.6606,2.6833,2.6845,2.7073,2.7601,2.7625,2.7876,2.8404,2.8428,2.8428,2.8428,2.85,2.874,2.9159,2.9735,2.9948,2.9453,2.9417,2.9327,2.9719,2.926,2.9477,3.0141,2.9936,2.9972,3.0165,3.0202,3.0214,3.0214,3.0214,3.0214,3.025,0.0,0.0,0.0,0.0,0.0,0.0,0.0,0.0,0.0,0.0,0.0,1.5261,0.0,0.0,0.0,1.613,1.6731,1.7373,1.8164,1.8579,1.8915,1.9318,1.8353,1.8069,1.8402,1.8101,1.801,1.83,1.9534,2.0823,2.191,2.1214,2.1369,2.2399,2.1595,2.1542,2.1938,2.1674,2.1395,2.123,2.0674,2.0617,2.0883,2.0883,2.0991,2.1124,2.1124,2.1157,2.1163,2.1443,2.1609,2.1897,2.2035,0.0,0.0,0.0,2.2722,2.3046,2.3834,2.4983,2.6363,2.7462,2.7727,2.781,2.8438,2.7676,2.7224,2.7642,2.7161,2.6605,2.6436,2.6029,2.5763,2.5763,2.5604,2.5433,2.5433,2.553,2.5663,2.5808,2.6061,2.6327,2.6616,2.6773,2.6906,2.7015,2.7027,2.7256,2.7787,2.7811,2.8065,2.8608,2.8475,2.8463,2.862,2.862,2.8958,2.9622,2.9864,2.9936,2.9851,2.9695,2.961,2.9562,2.9332,2.961,3.0202,3.0081,3.0105,3.0214,3.0214,3.0214,3.0214,3.0214,3.031,3.0467,0.0,0.0,0.0,0.0,0.0,0.0,0.0,0.0,0.0,0.0,0.0,0.0,0.0,0.0,0.0,0.0,1.637,1.7082,1.8248,1.8318,1.8596,1.9098,1.802,1.7767,1.8269,1.808,1.8118,1.8396,1.9884,2.1182,2.2277,2.2481,2.3075,2.4089,2.2794,2.2687,2.3281,2.2714,2.2067,2.1705,2.1032,2.0786,2.0967,2.1028,2.1148,2.1293,2.1426,0.0,0.0,0.0,2.2039,2.2402,2.2474,2.2722,0.0,0.0,0.0,2.3928,2.5077,2.6192,2.7449,2.8657,2.9079,2.9283,2.9617,2.9122,2.8538,2.8288,2.8157,2.7968,2.7292,2.6613,2.6273,2.6273,2.5933,2.5604,2.5604,2.5433,2.553,2.5796,2.6061,2.6327,2.6616,2.6882,2.7027,2.7027,2.7027,2.7256,2.7787,2.7751,2.7956,2.85,2.8246,2.821,2.8415,2.856,2.8982,2.9695,2.9767,2.99,3.0105,2.9888,2.9682,2.9501,2.9501,2.9779,3.0214,3.0214,3.0214,3.0214,3.0214,3.025,3.031,3.031,3.0479,3.0745,0.0,0.0,0.0,0.0,0.0,0.0,0.0,0.0,0.0,0.0,0.0,0.0,1.5832,1.5832,1.5652,1.5439,1.6025,1.6834,1.8003,1.8227,1.8383,1.845,1.7811,0.0,1.7961,1.8131,1.8396,1.8662,2.0935,2.1888,2.1542,2.342,2.4981,2.5873,2.4744,2.3637,2.2776,2.3454,2.2754,2.1132,2.0762,2.0678,2.0714,2.0967,2.0907,2.0774,2.1293,0.0,0.0,0.0,0.0,0.0,2.2815,2.2859,2.3133,0.0,0.0,0.0,2.7085,2.7742,2.8228,2.926,2.9989,3.0551,3.0405,3.0911,3.1078,2.9731,2.9621,2.9635,2.8305,2.7292,2.6783,2.6783,2.6443,2.6103,2.6103,2.5604,2.553,2.5796,2.6061,2.6327,2.6616,2.6882,2.7027,2.7027,2.7027,2.7256,2.7787,2.7582,2.7679,2.821,2.7968,2.7836,2.786,2.8367,2.8898,2.9429,2.9682,2.9803,2.9815,2.9803,2.9791,2.9779,2.9779,2.9948,3.0214,3.0214,3.0214,3.0214,3.0214,3.0371,3.0588,3.0588,3.0757,3.101,0.0,0.0,0.0,0.0,0.0,0.0,0.0,0.0,0.0,0.0,0.0,0.0,0.0,1.5608,1.5473,1.5379,1.5972,1.66,1.7147,1.7436,1.7603,1.7785,1.759,1.764,1.7865,1.8312,1.8951,1.9661,2.1325,2.2441,2.3121,2.352,2.4274,2.5293,2.4417,2.4355,2.4787,2.3694,2.277,2.2026,2.1236,2.1124,2.1426,2.1354,2.1378,0.0,0.0,0.0,0.0,0.0,0.0,0.0,0.0,0.0,2.5452,2.574,2.6148,2.6634,2.7656,2.8582,2.9568,3.0839,3.1522,3.1873,3.2283,3.2205,3.1827,3.1271,3.0636,3.0026,2.9733,2.8587,2.7512,2.7343,2.6936,2.6815,2.6639,2.6607,2.6648,2.691,2.7197,2.7305,2.7386,2.7328,2.7377,2.7027,2.7027,2.7184,2.7546,2.7473,2.7582,2.7944,2.7703,2.7642,2.7811,2.8355,2.8995,2.9738,3.0194,3.0403,3.0802,3.0977,3.1064,3.1064,3.1064,3.0723,3.0214,3.0619,3.0619,3.0809,3.1012,3.1388,3.1625,3.1625,3.1693,3.1881,0.0,0.0,0.0,0.0,0.0,0.0,0.0,0.0,0.0,0.0,0.0,0.0,0.0,0.0,1.5469,1.5157,1.5865,1.6355,1.6542,1.7022,1.735,1.773,1.7646,1.7696,1.8131,1.8865,1.9587,2.0289,2.1881,2.282,2.325,2.352,2.3876,2.4189,2.3624,2.4038,2.4972,2.3541,2.2743,2.2317,2.1518,2.1414,2.174,2.1886,0.0,0.0,0.0,0.0,0.0,0.0,0.0,0.0,0.0,0.0,0.0,2.7442,2.7715,2.818,2.8869,2.9741,3.0883,3.2059,3.2588,3.2879,3.3354,3.3339,3.2833,3.2247,3.1467,3.0861,3.0576,2.9446,2.8327,2.8142,2.759,2.7209,2.7119,2.726,2.7304,2.7584,2.7877,2.7991,2.7895,2.792,2.792,2.7571,2.7571,2.7694,2.7952,2.7891,2.7915,2.81,2.7928,2.8014,2.8371,2.874,2.9147,2.9979,3.0453,3.0926,3.1412,3.1692,3.1819,3.1819,3.1819,3.1416,3.0822,3.1214,3.1214,3.1226,3.1719,3.2124,3.2391,3.248,3.2603,3.2573,0.0,0.0,0.0,0.0,0.0,0.0,0.0,0.0,0.0,0.0,0.0,0.0,0.0,0.0,0.0,1.4664,1.5671,1.6296,1.6296,1.6993,1.773,1.8273,1.7843,1.7997,1.8787,1.9799,2.0427,2.0576,2.2606,2.2808,2.1437,2.342,2.3785,2.2701,2.2454,2.2636,2.3028,2.3458,2.2873,2.186,2.1595,2.1498,2.1716,2.2657,0.0,0.0,2.4433,2.5253,0.0,2.6343,0.0,0.0,0.0,0.0,0.0,0.0,2.961,3.0532,0.0,0.0,0.0,3.2963,3.3237,3.333,3.3525,3.4242,3.4525,3.2632,3.2608,3.2278,3.047,2.9985,2.9539,2.9219,2.8221,2.7604,2.7865,2.756,2.7304,2.7584,2.7889,2.8169,2.8449,2.8474,2.8474,2.8474,2.8474,2.8589,2.8869,2.8627,2.8474,2.8474,2.8474,2.8742,2.9301,2.9301,2.9721,3.056,3.084,3.112,3.1399,3.1679,3.1806,3.1819,3.1819,3.1819,3.1819,3.1819,3.1819,3.1845,3.2124,3.2609,3.2684,3.2964,3.3243,3.3498,0.0,0.0,0.0,0.0,0.0,0.0,0.0,0.0,0.0,0.0,0.0,0.0,1.4956,1.4873,1.4714,1.4309,1.5277,1.5904,1.5904,1.6714,1.7359,1.7701,1.8677,1.9338,1.9786,2.0994,2.1644,2.1727,2.2455,2.2652,2.2175,2.2481,2.2418,2.2141,2.2128,2.2304,2.2312,2.2112,2.2239,2.2571,2.2313,2.2583,2.334,0.0,0.0,0.0,0.0,2.7291,2.7848,0.0,2.9215,3.0574,0.0,0.0,0.0,0.0,0.0,3.1753,3.2157,0.0,0.0,0.0,0.0,0.0,3.4381,3.5033,3.5382,3.5004,3.4354,3.3694,3.3384,3.196,3.0895,3.1193,2.9727,2.8579,2.8446,2.8261,2.8366,2.8644,2.8947,2.906,2.8976,2.9002,2.8835,2.8474,2.8474,2.8513,2.8589,2.8525,2.8474,2.8474,2.8474,2.8742,2.9301,2.9301,2.9819,3.0842,3.1127,3.1607,3.2287,3.2577,3.2815,3.3013,3.3013,3.3013,3.3013,3.2611,3.241,3.2436,3.3153,3.3646,3.3937,3.4227,3.4308,3.4134,0.0,0.0,0.0,0.0,0.0,0.0,0.0,0.0,0.0,0.0,0.0,0.0,1.4815,1.4461,1.4304,1.4228,1.523,1.5989,1.6092,1.6819,1.7701,1.8551,1.9369,2.0222,2.1128,2.1949,2.237,2.2496,2.2535,2.2558,2.2173,2.211,2.1842,2.1721,2.2049,2.2231,2.2488,2.2211,2.2459,2.3141,2.2978,2.3612,2.4723,2.5093,2.5736,0.0,0.0,0.0,2.9917,3.0274,3.1231,0.0,0.0,0.0,0.0,0.0,0.0,0.0,0.0,3.3106,3.3215,3.3624,0.0,0.0,3.5237,3.5326,3.5281,3.6236,3.5498,3.4692,3.4785,3.3525,3.2462,3.2819,3.1368,2.9872,2.9325,2.9138,2.9032,2.9205,2.9486,2.9548,2.9528,2.9554,2.9375,2.9015,2.9015,2.9015,2.9015,2.9015,2.9015,2.9015,2.9015,2.9287,2.9857,2.9857,3.0342,3.1297,3.1587,3.2058,3.2559,3.2839,3.3133,3.3414,3.3414,3.3414,3.3414,3.3013,3.3092,3.3237,3.3745,3.4242,3.4536,3.483,3.4833,3.4768,0.0,0.0,0.0,0.0,0.0,0.0,0.0,0.0,0.0,0.0,0.0,1.4927,1.4414,1.4107,1.4147,0.0,1.5539,1.6355,1.6571,1.7315,1.8357,1.9957,2.0021,2.0779,2.2396,2.2552,2.272,2.2766,2.2821,2.2457,2.1662,2.1971,0.0,0.0,2.2094,2.2501,2.3031,2.3216,2.3369,2.3735,2.3774,2.4539,2.6004,0.0,2.7891,2.8972,3.0561,3.1292,3.1827,3.2697,3.3191,0.0,0.0,0.0,0.0,0.0,3.4047,3.389,0.0,0.0,0.0,3.4501,3.4215,0.0,3.5932,3.5539,3.505,3.651,3.6167,3.5481,3.5536,3.4785,3.4151,3.3903,3.2859,3.1699,3.065,2.9975,2.9622,2.9649,2.9891,2.9887,2.9913,2.9913,2.9913,2.9913,2.9913,2.9913,2.9913,2.9913,2.9913,2.9913,2.9913,3.0181,3.0742,3.0953,3.1262,3.1623,3.2286,3.2611,3.2559,3.3009,3.3305,3.3414,3.3414,3.3414,3.3414,3.3454,3.3627,3.3921,3.4202,3.4496,3.4803,3.5084,3.5191,3.5191,0.0,0.0,1.3424,1.469,0.0,0.0,0.0,1.5632,1.5107,1.4907,1.4505,1.3923,1.3448,1.3884,1.4316,0.0,1.5904,1.6788,1.6834,1.8119,1.8922,1.8729,2.0849,2.188,2.1265,2.2936,2.3093,2.1714,2.2176,2.1893,2.0869,2.177,2.2032,0.0,2.296,2.3417,2.3482,2.4009,2.4864,2.58,2.5755,2.6332,2.7216,2.9076,3.0001,3.0659,3.1927,3.2808,3.3534,3.4351,3.4433,3.4299,0.0,0.0,0.0,3.5435,0.0,0.0,0.0,0.0,0.0,0.0,0.0,0.0,3.6679,3.6773,3.6887,3.6782,3.6605,3.6426,3.6043,3.572,3.5433,3.502,3.4419,3.3413,3.2033,3.1005,3.0427,3.0664,3.0395,3.0179,3.0423,3.0093,2.9913,2.9913,2.9913,2.9913,2.9913,2.9913,2.9913,2.9913,2.9913,3.0087,3.0434,3.1944,3.2066,3.1316,3.4017,3.4288,3.2545,3.3949,3.4087,3.3414,3.3414,3.3414,3.3427,3.3694,3.3828,3.3921,3.4202,3.4496,3.4803,3.5084,3.5191,3.5191,1.0968,1.2042,1.3051,1.3773,0.0,0.0,0.0,1.4195,1.3879,1.413,1.3818,1.3577,1.323,1.4094,1.469,1.4801,0.0,0.0,0.0,1.8275,1.9013,1.9412,2.0913,2.1782,2.2011,2.2552,2.2508,2.188,2.162,2.1207,2.0955,2.1777,2.2312,2.2624,2.3495,2.4263,2.4993,2.529,2.631,2.7482,2.6747,2.7466,2.9256,3.0595,3.1729,3.2824,3.361,3.4425,3.515,3.5247,3.5484,0.0,0.0,3.5838,3.5883,0.0,3.6585,3.647,0.0,0.0,0.0,3.6777,0.0,0.0,0.0,3.7232,3.7123,3.7297,3.7427,3.7407,3.7374,3.6982,3.6658,3.6852,3.591,3.4978,3.4668,3.2558,3.1094,3.1035,3.1127,3.1155,3.0945,3.1151,3.1137,3.0616,3.0616,3.0616,3.0616,3.0973,3.1315,3.1315,3.1671,3.2169,3.2498,3.3539,3.3861,3.3443,3.5398,3.5891,3.4846,3.5004,3.4941,3.4612,3.3814,3.3507,3.3654,3.3828,3.4055,3.4336,3.4482,3.4723,3.5004,3.5137,3.5191,3.5191,1.0168,1.1351,1.2215,1.2264,1.3015,0.0,0.0,0.0,1.273,1.326,1.3334,1.3476,1.3561,1.4429,1.5034,1.5155,1.6538,0.0,0.0,1.8304,1.91,2.0232,2.0602,2.1301,2.2359,2.1991,2.1888,2.2035,2.1131,2.1041,2.1381,2.2019,2.2713,2.3379,2.4129,2.5198,2.6357,2.6721,2.7774,2.9043,2.7936,2.8943,3.1318,3.1976,3.3272,3.4742,3.5246,3.5827,3.6331,3.6294,3.6529,3.6827,3.6739,3.6784,0.0,0.0,0.0,0.0,0.0,0.0,0.0,0.0,0.0,3.7658,0.0,0.0,0.0,3.793,3.8063,3.8008,3.8368,3.7874,3.762,3.8135,3.7134,3.6351,3.6723,3.4199,3.2364,3.2091,3.2469,3.2614,3.2074,3.2514,3.2543,3.1671,3.1671,3.1848,3.1848,3.2543,3.2896,3.2896,3.3777,3.428,3.4616,3.5147,3.553,3.5746,3.6916,3.7412,3.7241,3.6535,3.6261,3.6202,3.4853,3.4432,3.449,3.4612,3.4733,3.4971,3.4763,3.4937,3.5191,3.5191,3.5191,3.5191,0.8979,0.9655,1.0278,1.0706,1.1569,0.0,0.0,0.0,1.2493,1.283,1.3278,1.3797,1.4166,1.4696,1.5216,1.5812,1.6976,0.0,1.7976,0.0,1.965,1.8986,2.0821,2.1384,2.0269,2.1334,2.148,2.0943,2.1035,2.142,2.1939,0.0,2.3267,2.394,2.5465,2.621,2.6517,2.7849,2.9305,3.0809,3.0958,3.1449,3.2143,3.3978,3.4936,3.5659,3.6754,3.6961,3.6924,0.0,3.815,3.747,0.0,3.8164,3.7441,3.8203,0.0,0.0,0.0,0.0,0.0,0.0,3.9537,0.0,0.0,0.0,3.8689,3.8144,0.0,3.7958,3.7554,0.0,0.0,3.7104,3.7464,3.7294,3.5775,3.5245,3.5029,3.5103,3.4895,3.4668,3.4486,3.4119,3.3601,3.2543,3.3249,3.3777,3.3777,3.3952,3.3952,3.3952,3.4128,3.428,3.4601,3.64,3.6908,3.6282,3.9287,3.9625,3.7755,3.878,3.8791,3.778,3.8067,3.7606,3.6708,3.685,3.6327,3.5387,3.4971,3.4937,3.5191,3.5191,3.5191,3.5191,0.8404,0.9132,0.9565,0.9657,1.0548,0.0,0.0,0.0,1.2738,1.2864,1.3609,1.4118,1.4288,1.4972,1.5529,1.5934,1.7303,1.8148,0.0,0.0,2.0061,2.0042,2.0691,2.1047,2.104,2.1182,2.0958,2.0665,2.1212,2.1678,2.2216,0.0,0.0,2.4236,2.5702,2.691,2.7819,2.9419,3.1039,3.2792,3.3681,3.4109,3.4592,3.515,3.5869,3.6683,3.7147,3.7406,3.7587,0.0,3.8271,0.0,0.0,0.0,0.0,0.0,0.0,0.0,0.0,0.0,0.0,0.0,0.0,0.0,3.9062,0.0,3.8789,0.0,0.0,0.0,0.0,0.0,0.0,0.0,3.7951,3.7764,3.6957,3.6934,3.6546,3.5493,3.5477,3.5758,3.6173,3.5508,3.5002,3.4847,3.5208,3.5476,3.5684,3.6221,3.6551,3.6551,3.674,3.7095,3.7633,3.8191,3.8741,3.8742,4.0629,4.1187,4.0345,4.0366,4.0077,3.9826,3.8981,3.866,3.865,3.8717,3.8545,3.8102,3.7273,3.6329,3.5191,3.5191,3.5191,3.5217,0.7577,0.8357,0.8853,0.8654,0.9671,1.0498,0.0,1.1836,1.2917,1.3075,1.3793,1.4317,1.4544,1.5288,1.5873,1.6217,1.7785,1.8812,0.0,0.0,2.058,0.0,0.0,0.0,0.0,0.0,2.1331,2.147,2.167,2.1986,2.2563,0.0,0.0,0.0,2.6735,2.8319,2.9514,3.1121,3.2826,3.4457,3.5467,3.611,3.6627,3.6348,3.6863,3.7587,3.7963,3.8054,3.8155,3.8194,3.8662,0.0,3.8437,0.0,0.0,0.0,0.0,0.0,3.9902,0.0,0.0,0.0,0.0,0.0,0.0,0.0,0.0,0.0,0.0,0.0,0.0,0.0,3.8542,3.8599,0.0,3.8231,3.7854,3.7835,3.7274,3.6126,3.6477,3.6933,3.7283,3.6941,3.6644,3.6675,3.6878,3.7216,3.7602,3.8306,3.8648,3.8648,3.9007,3.9423,3.9913,3.9843,4.0255,4.1119,4.1775,4.2276,4.2674,4.1699,4.1486,4.1816,4.0735,4.0322,4.0482,4.056,4.0338,4.0157,3.8915,3.7529,3.6142,3.5639,3.5455,3.5563,0.6278,0.7129,0.7629,0.7706,0.8821,0.9953,1.1028,1.1979,1.2782,1.335,1.3766,1.4326,1.5111,1.5692,1.6227,1.6874,1.8766,1.9953,2.0195,0.0,2.145,0.0,0.0,2.2686,0.0,0.0,2.2867,2.3287,2.2179,2.2329,2.3588,2.4733,0.0,0.0,2.9524,3.0828,3.1003,3.3289,3.4776,3.5669,3.6036,3.6941,3.7862,0.0,3.8009,3.8124,3.9401,0.0,0.0,4.0019,3.9629,0.0,0.0,0.0,0.0,0.0,0.0,0.0,0.0,0.0,0.0,4.0098,0.0,0.0,0.0,0.0,3.918,0.0,0.0,0.0,0.0,3.9844,3.957,0.0,3.8945,0.0,0.0,3.7393,3.7575,3.784,3.8681,3.8768,3.7862,3.8434,3.8678,3.7707,3.8432,3.9112,3.9671,3.9689,3.9689,3.9689,3.9689,4.0061,4.0841,4.0859,4.1462,4.2615,4.3023,4.3413,4.3785,4.3624,4.3626,4.4008,4.3999,4.3387,4.2754,4.2661,4.199,4.0791,3.9122,3.869,3.8728,3.676,3.6224,3.6471,0.5792,0.6771,0.7455,0.7742,0.8865,1.0082,1.1044,1.2277,1.3128,1.3589,1.4309,1.5109,1.5663,1.6181,1.6695,1.7623,0.0,1.9941,2.0539,2.1607,0.0,0.0,0.0,2.419,0.0,0.0,0.0,0.0,2.4479,2.4828,2.5482,2.6402,0.0,0.0,2.9854,3.1023,3.1811,3.3717,3.502,3.6202,3.7352,3.8437,3.9245,0.0,0.0,3.8467,3.8926,3.8828,0.0,3.9394,3.9551,3.9473,3.9609,3.9961,4.0234,3.9941,4.0293,0.0,0.0,0.0,4.1387,4.0527,0.0,0.0,0.0,0.0,0.0,0.0,0.0,0.0,0.0,0.0,0.0,0.0,0.0,0.0,0.0,3.7358,3.7429,3.7846,3.8709,3.9074,3.8892,3.9281,3.9801,3.996,4.0198,4.0657,4.1528,4.121,4.1024,4.1024,4.0385,4.0467,4.0815,4.0909,4.1338,4.2242,4.2632,4.3164,4.3785,4.3739,4.4286,4.5151,4.5098,4.4928,4.4916,4.4834,4.4279,4.367,4.2227,4.2024,4.1911,3.8249,3.715,3.7442,0.5708,0.6757,0.769,0.7834,0.903,1.0326,1.1245,1.2525,1.34,1.3664,1.4695,1.5586,1.6284,1.6599,1.741,0.0,1.9901,2.0992,2.2056,2.3028,0.0,2.5442,2.5491,0.0,0.0,0.0,0.0,0.0,0.0,2.6359,2.6934,2.784,2.8696,2.9367,3.0925,3.2157,3.3089,3.4443,3.5664,3.6701,3.8154,3.9193,0.0,0.0,3.9141,3.9277,0.0,3.9062,3.8887,3.9473,3.9668,3.9668,3.9844,4.0273,4.0664,4.0391,4.0605,4.0937,4.0937,4.1367,0.0,4.0918,4.0859,0.0,3.9863,0.0,0.0,0.0,0.0,0.0,0.0,0.0,0.0,0.0,0.0,0.0,0.0,3.7324,3.7559,3.7676,3.8793,3.9433,3.9586,3.9812,4.0401,4.1057,4.1114,4.1493,4.2364,4.2049,4.1882,4.1882,4.1397,4.1244,4.1629,4.1878,4.2057,4.2549,4.309,4.3686,4.4131,4.4088,4.4542,4.5522,4.547,4.5717,4.5918,4.5997,4.583,4.534,4.4361,4.3995,4.3779,3.9658,3.7999,3.7979,0.5913,0.7214,0.8128,0.801,0.9328,1.0661,1.1599,1.2696,1.358,1.384,1.4916,1.5882,1.6705,1.7188,1.8222,2.0238,2.1493,2.2741,2.4261,2.5143,0.0,0.0,2.7135,2.7473,2.8281,0.0,0.0,0.0,0.0,2.6969,2.774,2.9211,3.0098,3.06,3.2858,3.4064,3.4528,3.5725,3.6736,3.7625,3.8767,3.9531,3.9961,3.9961,4.0215,4.0586,4.0508,3.9941,3.9375,4.0234,3.9961,3.9355,3.9824,3.9961,4.0112,3.9961,4.0386,4.07,4.0586,4.1191,4.1738,4.1328,0.0,0.0,0.0,0.0,4.1229,0.0,0.0,0.0,0.0,0.0,0.0,0.0,0.0,0.0,3.7073,3.7524,3.7896,3.7383,3.8848,3.9888,3.997,4.0259,4.0698,4.1057,4.1133,4.1493,4.2364,4.2402,4.2421,4.244,4.2421,4.261,4.3046,4.3424,4.3668,4.3578,4.4398,4.4832,4.4691,4.4539,4.4966,4.5724,4.5558,4.5754,4.6179,4.6539,4.6241,4.5778,4.5069,4.454,4.4123,4.1069,3.9252,3.8518,0.6123,0.7719,0.9157,0.9802,1.0288,1.068,1.1366,1.2682,1.3793,1.4458,1.5394,1.6404,1.7378,1.7703,1.8715,2.1006,2.1703,0.0,0.0,0.0,0.0,2.6305,2.6899,2.7803,2.9028,2.8916,0.0,2.9624,0.0,2.9536,3.0485,3.0907,3.1705,3.2537,3.3438,3.4259,3.4883,3.5827,3.7073,3.836,3.9382,4.0176,4.084,0.0,4.1113,4.1348,4.0391,3.9902,3.9805,4.0332,4.0371,4.0254,4.0703,4.1436,4.2028,4.1148,4.2261,4.3318,4.1835,4.2467,4.3318,4.2288,4.2982,4.3533,0.0,0.0,0.0,0.0,0.0,0.0,0.0,0.0,0.0,0.0,0.0,0.0,0.0,3.8963,3.8928,3.8728,3.9885,4.0504,3.9888,4.0569,4.1347,4.2043,4.2101,4.2469,4.3341,4.3048,4.3036,4.3342,4.2721,4.2743,4.3481,4.3576,4.3841,4.4083,4.4932,4.5356,4.5222,4.5464,4.5906,4.6316,4.6543,4.6749,4.6753,4.7057,4.7,4.6364,4.6229,4.5097,4.3507,4.2173,4.1481,4.0996,0.6414,0.8097,0.9538,1.0137,1.0778,1.1271,1.1848,1.302,1.3962,1.4681,1.5876,1.7073,1.8042,1.8789,2.005,2.2214,2.298,0.0,2.5124,0.0,0.0,2.7651,2.8267,2.8997,2.9743,2.9743,0.0,3.0387,0.0,3.0762,3.1593,3.1856,3.2566,3.3272,3.3891,3.4619,3.5725,3.696,3.8348,3.9523,3.9907,4.0566,0.0,4.1172,4.1328,4.1426,4.0723,4.0332,4.0234,4.0664,4.0971,4.137,4.2007,4.3115,4.4016,4.3269,4.3854,4.4328,4.3014,4.3476,4.4437,4.366,4.4759,4.5732,4.5253,4.5149,4.4806,0.0,0.0,0.0,0.0,0.0,0.0,0.0,0.0,0.0,0.0,0.0,4.0229,4.0144,4.0797,4.1272,4.1174,4.1223,4.1523,4.2363,4.2422,4.2793,4.3652,4.3546,4.3593,4.402,4.3645,4.3856,4.4337,4.4683,4.4722,4.4606,4.5465,4.5716,4.5769,4.6201,4.6467,4.687,4.7313,4.7332,4.7343,4.7528,4.7472,4.6965,4.6519,4.5939,4.494,4.3421,4.2419,4.1333,0.6795,0.8425,0.9765,0.9943,1.1098,1.2091,1.286,1.357,0.0,1.5069,0.0,1.7837,1.914,2.0263,2.1674,2.3387,2.4834,2.5983,2.6852,2.8248,2.9183,2.9592,2.9907,3.0229,3.0394,3.0346,3.0367,0.0,0.0,3.1285,3.1801,3.2406,3.3008,3.3506,3.4134,3.5237,3.6691,3.8425,3.9775,4.0527,4.0527,4.0781,4.1172,4.1172,4.1172,4.1172,4.123,4.1016,4.0742,4.1288,4.1942,4.2698,4.3803,4.4803,4.5855,4.5724,4.5405,4.4877,4.4058,4.4687,4.5463,4.5226,4.6476,4.7761,4.7354,4.7205,4.6613,4.4588,4.3894,4.3204,0.0,0.0,0.0,0.0,0.0,0.0,0.0,0.0,4.155,4.1841,4.1793,0.0,4.2998,4.2015,4.1739,4.2683,4.2801,4.3175,4.3817,4.4021,4.4111,4.4473,4.4954,4.5209,4.5273,4.5957,4.5997,4.5222,4.6011,4.6389,4.6208,4.6865,4.712,4.725,4.7734,4.7951,4.7754,4.8107,4.8089,4.7544,4.6593,4.668,4.6906,4.479,4.2635,4.0693,0.7789,0.9442,1.0524,1.0826,1.1775,1.2693,1.3622,1.4103,1.5155,1.7195,1.8,1.8987,2.0658,2.1526,2.2621,2.4301,2.5511,0.0,0.0,0.0,0.0,2.8746,2.9049,2.9685,3.0759,3.0473,3.0718,0.0,0.0,0.0,3.291,3.3042,3.3592,3.4186,3.4689,3.5972,3.7727,3.8402,3.9353,4.0527,4.0527,4.0781,4.1172,4.1172,4.1172,4.1211,4.1562,4.1641,4.1739,4.2893,4.3583,4.4296,4.5532,4.6656,4.7422,4.6502,4.751,4.8275,4.5449,4.6426,4.7604,4.5917,4.7347,4.9157,4.9047,4.8718,4.8077,4.6635,4.493,4.3514,4.2758,0.0,0.0,0.0,0.0,0.0,0.0,0.0,0.0,4.3903,4.3488,4.3404,4.3891,4.3198,4.3291,4.4427,4.4816,4.4946,4.4822,4.5495,4.5552,0.0,4.5282,4.5837,0.0,0.0,4.6621,4.7067,4.7573,4.7664,4.7213,4.7998,4.8251,4.7856,4.8611,4.8794,4.8322,4.8805,4.8744,4.828,4.7213,4.6454,4.5826,4.4361,4.3068,4.1985,0.8353,0.9731,1.0808,1.1225,1.2274,1.3325,0.0,1.5183,1.6451,1.7663,1.8921,2.018,2.1595,2.3003,2.4091,2.485,2.6616,2.7759,2.7784,2.8988,2.9793,3.0112,3.0115,3.0514,3.1141,3.0926,3.1211,3.2021,0.0,0.0,0.0,3.3395,3.3816,3.4441,3.5671,3.7184,3.867,3.9353,0.0,4.1191,4.1191,4.1445,4.1816,4.1816,4.168,4.1562,4.1973,4.2605,4.3218,4.3847,4.5065,4.6519,4.7397,4.841,4.9328,4.8695,4.8587,4.8298,4.6395,4.6564,4.6955,4.6706,4.8049,4.9651,5.0299,5.0275,4.9695,4.8165,4.6936,4.5528,4.382,4.3995,0.0,0.0,0.0,0.0,0.0,0.0,4.514,0.0,0.0,0.0,4.598,4.5596,4.5179,4.4605,4.5512,4.567,4.4985,0.0,4.6393,0.0,0.0,0.0,4.848,0.0,0.0,4.8295,4.8405,4.8352,4.8207,4.9079,4.9413,4.9053,4.9454,4.9565,4.9226,4.9423,4.9347,4.8904,4.7458,4.6624,4.6252,4.4559,4.35,4.3068,0.876,1.0009,1.1001,1.1622,1.2775,1.3686,1.4464,1.6101,1.759,1.8165,1.9887,2.1412,2.2802,2.4327,2.5377,2.5759,2.7861,2.9064,2.8862,3.0236,3.1204,3.149,3.1506,3.1506,3.1506,3.1678,3.1804,0.0,0.0,0.0,0.0,0.0,3.429,3.491,3.6773,3.8292,0.0,0.0,4.1152,4.1933,4.1933,4.2129,4.2422,4.2422,4.2386,4.2467,4.2882,4.3977,4.542,4.5524,4.6776,4.8541,4.9095,4.9846,5.0483,5.0636,4.9318,4.7464,4.7103,4.6636,4.6608,4.739,4.8684,5.0143,5.1099,5.1431,5.0985,4.9318,4.8432,4.7289,4.5039,4.5252,0.0,0.0,0.0,0.0,0.0,0.0,0.0,0.0,0.0,0.0,4.8029,4.792,4.7004,4.5357,4.6448,4.6732,4.5941,0.0,0.0,0.0,0.0,4.8921,4.9701,0.0,4.9009,4.9271,4.9163,4.9004,4.9023,4.9922,5.0297,5.0204,5.0301,5.0144,5.0116,4.9921,4.9733,4.9533,4.7858,4.7408,4.7313,4.5416,4.4575,4.4559,0.9499,1.0537,1.1298,1.2196,0.0,1.3874,1.4666,1.632,1.8237,1.9858,2.1234,2.2853,2.5134,2.5907,2.6673,2.7711,2.8942,2.9762,3.0112,3.115,3.184,3.1872,3.1872,3.1872,3.1872,3.2307,3.2593,0.0,0.0,0.0,0.0,0.0,0.0,0.0,0.0,0.0,0.0,4.0763,4.1601,4.2363,4.2363,4.2402,4.2422,4.2422,4.3201,4.4173,4.46,4.6332,4.8432,4.8894,4.9182,4.9518,5.0853,5.0387,4.9897,5.103,4.9607,4.7549,4.7507,4.8324,4.8842,4.7868,4.9494,5.1254,5.1431,5.1431,5.1099,4.9763,4.8675,4.7724,4.6558,4.7243,4.7957,0.0,0.0,0.0,0.0,0.0,4.6558,4.8118,0.0,0.0,4.8771,4.8351,4.8058,4.8344,4.9318,4.945,0.0,0.0,0.0,4.7685,4.84,4.9128,4.9701,4.8716,4.8989,5.0176,4.959,4.9473,4.9492,5.0351,5.0762,5.082,5.1211,5.0998,5.0685,5.0516,5.0353,5.016,4.9302,4.887,4.8596,4.7525,4.6889,4.6889,0.0,0.0,0.0,0.0,0.0,0.0,0.0,1.742,1.9426,2.0249,2.1426,2.3095,2.5432,2.6279,2.7122,2.8198,2.9288,3.01,3.0576,3.1494,3.1824,3.1617,3.2414,3.2895,3.2665,3.3496,3.389,0.0,0.0,0.0,0.0,0.0,0.0,0.0,0.0,3.9568,4.0783,4.1367,4.2031,4.2812,4.3599,4.4221,4.4764,4.5566,4.6037,4.6342,4.6807,4.7734,4.883,4.9317,4.9964,5.0611,5.0299,4.9964,4.9494,4.9157,4.8367,4.7549,4.7549,4.8049,4.8367,4.8684,4.9273,5.0094,5.1185,5.1179,5.0887,5.0721,5.0045,4.9254,4.8259,4.8292,4.8476,0.0,0.0,0.0,0.0,0.0,0.0,4.8887,0.0,4.8476,5.0219,5.0053,5.0191,5.0995,5.0807,0.0,0.0,0.0,0.0,4.9585,0.0,4.9539,5.0909,4.9199,4.9009,5.0297,5.0131,4.9922,4.9941,5.0801,5.1172,5.1191,5.1367,5.1037,5.0704,5.1198,5.1162,5.0767,5.0175,5.0108,4.9836,4.8771,4.8351,4.8351,1.0329,0.0,1.233,0.0,1.4078,1.4864,1.6018,1.8143,1.9968,2.0944,2.1934,2.3484,2.5718,2.6749,2.764,2.8828,2.9853,3.05,3.1089,3.1715,3.2155,3.2463,3.347,0.0,3.3838,3.4882,3.4984,3.445,3.4676,0.0,0.0,0.0,0.0,0.0,3.9315,4.049,4.1562,4.2467,4.322,4.3894,4.5328,4.6316,4.6909,4.8028,4.8287,4.8361,4.8689,4.9094,4.965,5.0009,5.0455,5.0611,4.9808,4.9,4.8367,4.8208,4.7549,4.7229,4.7868,4.8208,4.8367,4.9337,4.9563,4.9872,5.1185,5.1133,5.0972,5.1339,5.0995,5.0421,4.9858,4.919,4.8945,4.9544,0.0,0.0,0.0,0.0,0.0,0.0,4.9062,4.9368,5.0943,5.1084,5.1507,5.2518,0.0,0.0,0.0,0.0,0.0,0.0,0.0,0.0,5.2059,4.9859,4.9399,5.0864,5.0496,5.0176,5.0215,5.1055,5.1426,5.1426,5.1426,5.1231,5.0919,5.1768,5.1916,5.139,5.1407,5.1311,5.1104,5.0254,5.0045,5.0045,1.1099,1.1931,1.2865,1.3687,1.4464,1.5615,1.7358,1.8228,1.949,2.2093,2.294,2.4227,2.6502,2.7481,2.8487,2.9913,3.0469,3.1074,3.1887,3.2221,3.3192,0.0,0.0,3.5146,3.5446,3.5939,3.5608,3.4323,0.0,0.0,3.5556,0.0,3.8706,3.9902,4.0794,4.1694,4.2441,4.43,4.5229,4.5799,4.739,4.8187,4.8187,4.864,4.9271,5.0076,5.0076,5.0588,5.1408,5.1431,5.0611,4.9494,4.9494,4.773,4.6123,4.8684,4.773,4.6123,4.8842,4.9494,4.9494,4.9494,5.0455,5.1408,5.1431,5.1408,5.1408,5.1431,5.0995,5.0779,5.1257,5.042,5.0033,5.099,0.0,0.0,0.0,0.0,0.0,4.9438,4.9062,4.9368,5.0943,5.1084,5.1507,5.2518,0.0,0.0,0.0,0.0,0.0,5.0789,5.0811,0.0,5.3078,5.0717,5.045,5.2513,5.087,5.0176,5.0215,5.1055,5.1426,5.1426,5.1426,5.1426,5.1504,5.2363,5.2316,5.2012,5.2858,5.2794,5.2382,5.2382,5.2382,5.2382,1.187,1.2442,1.3509,1.5432,1.5943,1.6843,1.8943,2.0255,2.139,2.2676,2.4314,2.5963,2.7438,2.7784,2.8639,0.0,3.0469,3.1089,0.0,3.2781,3.3619,3.4458,3.6025,3.6785,3.6319,3.7072,3.688,3.5556,0.0,0.0,0.0,3.8213,3.9393,4.0357,4.2184,4.3218,4.3859,4.5571,4.6322,4.6608,4.8662,4.9607,5.0076,5.1339,5.1954,5.213,5.1977,5.1185,5.0588,5.1254,4.9964,4.8367,4.9157,4.8367,4.693,4.693,4.7571,4.8367,4.9315,5.0143,5.0789,5.0789,5.0825,5.0972,5.1339,5.1431,5.1431,5.1716,5.1731,5.1652,5.1629,5.1451,5.1178,5.093,5.0696,0.0,0.0,0.0,0.0,0.0,4.9769,5.0221,5.1823,5.1991,0.0,0.0,0.0,0.0,0.0,0.0,0.0,0.0,5.1447,0.0,5.2559,5.1186,5.077,5.0956,5.1431,5.1399,5.1035,5.1308,5.1426,5.1426,5.1426,5.1601,5.1914,5.248,5.2891,5.3021,5.3586,5.3615,5.341,5.341,5.341,5.3448,1.2767,1.3191,1.4209,1.6395,1.6828,1.7792,2.0355,2.1616,2.2764,2.3849,2.5566,2.7165,2.8066,2.8565,0.0,3.0253,3.0887,3.1744,3.2706,3.3619,3.4793,3.6114,3.7366,3.7833,3.7522,0.0,0.0,3.6149,3.6393,3.6975,3.7934,3.9535,4.0896,4.2037,4.3554,4.4603,4.541,4.6964,4.773,4.8049,5.0254,5.1185,5.1493,5.2916,5.3068,5.2459,5.1977,5.0876,4.9472,5.0455,4.9337,4.7868,4.9157,4.9,4.8208,4.7251,4.8208,4.9651,5.0121,5.0789,5.1431,5.1431,5.1179,5.1018,5.1339,5.1562,5.1716,5.2024,5.2154,5.2213,5.2363,5.2301,5.2017,5.1987,5.1727,5.1369,5.1345,0.0,0.0,0.0,0.0,0.0,0.0,5.2283,5.2716,0.0,0.0,0.0,0.0,0.0,0.0,5.3382,5.24,0.0,5.3656,5.244,5.1698,5.1584,5.1695,5.1698,5.1426,5.1426,5.1426,5.1426,5.1426,5.168,5.2109,5.2539,5.2969,5.3398,5.3848,5.4023,5.4023,5.4023,5.4023,5.4101,1.3922,1.415,1.4888,0.0,1.736,0.0,2.1759,2.2599,2.3484,2.554,2.6723,2.7865,2.8497,2.9671,3.0436,3.0763,0.0,0.0,0.0,3.4784,3.6253,3.8901,3.8249,3.8091,3.8444,3.7863,3.7098,3.6166,3.7502,3.8689,4.005,4.1279,4.2828,4.4534,4.5005,4.5799,4.709,4.8367,4.9179,4.9808,5.1824,5.2612,5.2764,5.337,5.2764,5.1362,5.0721,4.9629,4.8389,4.9179,4.8684,4.7868,4.9157,4.9651,4.9651,4.9494,4.9494,4.9808,5.1099,5.1431,5.1431,5.1431,5.1431,5.1431,5.1431,5.1716,5.2,5.2024,5.2307,5.2764,5.3243,5.2838,5.2798,5.3552,5.2932,5.2259,5.2235,0.0,0.0,0.0,0.0,0.0,0.0,5.2307,5.274,0.0,0.0,0.0,0.0,0.0,5.3872,5.421,5.3943,5.4347,5.5834,5.4152,5.3429,5.3751,5.1697,5.1035,5.1426,5.1426,5.1426,5.1426,5.1426,5.1699,5.2148,5.2558,5.2988,5.3457,5.3867,5.4023,5.4023,5.4023,5.4023,5.4101,0.0,0.0,1.7075,1.9229,1.9959,2.1028,2.3093,2.3941,2.4739,2.6015,2.7208,2.8265,2.929,3.0192,3.0854,3.1225,3.2471,3.3281,3.2855,3.4688,3.6149,3.6815,3.7187,3.7503,3.7667,3.781,3.7625,3.7431,3.8523,3.9741,4.1424,4.2683,4.3923,4.5311,4.6467,4.7272,4.7911,4.9359,5.0299,5.1053,5.213,5.2764,5.3068,5.2588,5.213,5.1647,4.992,4.8978,4.8684,4.9337,4.9337,4.9315,5.0611,5.0944,5.0789,4.9808,5.0143,5.0944,5.1277,5.1431,5.1431,5.1431,5.1431,5.1431,5.1431,5.1716,5.2154,5.2459,5.2764,5.3219,5.3521,5.3576,5.3408,5.3293,5.2692,5.2139,5.173,5.1105,0.0,0.0,5.0936,5.1417,5.2211,5.2644,5.3149,0.0,0.0,0.0,0.0,5.5446,5.5421,5.5225,5.5287,5.5392,5.5834,5.5708,5.5168,5.4217,5.1838,5.1035,5.1426,5.1426,5.1426,5.1426,5.1426,5.1855,5.2558,5.2676,5.3164,5.3887,5.3984,5.4023,5.4023,5.4023,5.4023,5.4141,1.7166,1.7378,1.8127,2.038,2.1108,2.2141,2.4004,2.4665,2.5562,2.6638,2.7879,2.8958,2.9762,3.056,3.1087,3.1395,3.2463,3.3149,3.3346,3.5083,3.6412,3.6815,3.7117,3.7365,3.7614,3.734,3.7637,3.8188,3.9668,4.1021,4.2375,4.3968,4.5311,4.6629,4.7272,4.823,4.9201,4.983,5.0766,5.1693,5.2283,5.2916,5.3068,5.2283,5.1647,5.0853,4.864,4.7868,4.8049,4.8525,4.9,4.9651,5.0944,5.1431,5.1277,5.0611,5.0789,5.1431,5.1431,5.1431,5.1431,5.1431,5.1431,5.1431,5.1562,5.2024,5.2459,5.2764,5.3219,5.3521,5.3822,5.3822,5.3654,5.3149,5.2836,5.2379,5.161,5.1249,0.0,5.1056,5.1321,5.1802,5.2572,5.2908,5.3389,5.4111,5.4447,0.0,5.5746,5.6059,5.619,5.6247,5.6292,5.6489,5.6843,5.6097,5.5292,5.4365,5.1898,5.1035,5.1426,5.1426,5.1426,5.1426,5.1426,5.1914,5.2715,5.2715,5.3223,5.4023,5.4023,5.4023,5.4023,5.4023,5.4023,5.4121,1.8581,1.8553,1.8913,2.1046,2.1672,2.2628,2.4453,2.5166,2.5997,2.7393,2.8447,2.9363,3.005,3.0819,3.1331,3.1379,3.2015,3.2888,3.3992,3.5316,3.6511,3.749,3.7188,3.7221,3.777,3.7334,3.7742,3.9027,4.1077,4.2558,4.3633,4.5129,4.6447,4.7773,4.7933,4.8727,5.0165,5.0322,5.0921,5.2154,5.2459,5.2916,5.3219,5.213,5.103,4.9763,4.7688,4.709,4.7293,4.773,4.8684,4.9964,5.1099,5.1431,5.1431,5.1431,5.1431,5.1431,5.1431,5.1431,5.1431,5.1431,5.1431,5.1585,5.187,5.2307,5.2764,5.3091,5.3521,5.3822,5.3822,5.3822,5.3654,5.3149,5.3004,5.262,5.1634,0.0,5.1489,5.1489,5.1634,5.2091,5.298,5.3197,5.3654,5.4544,5.476,5.5265,5.6179,5.6323,5.6588,5.7117,5.7252,5.7452,5.8022,5.608,5.487,5.4549,5.2317,5.1267,5.1426,5.1426,5.1426,5.1426,5.1426,5.1914,5.2715,5.2715,5.3223,5.4023,5.4023,5.4023,5.4023,5.4023,5.4023,5.4101,1.9763,2.0409,2.1155,2.2015,2.2939,2.3687,2.4323,2.517,2.6287,2.7364,2.8251,2.9118,3.0035,3.0599,3.1061,3.1363,3.2015,3.257,3.2729,3.4819,3.5723,3.5271,3.5595,3.6089,3.6774,3.8416,3.9942,4.1175,4.2674,4.4179,4.5879,4.6426,4.7432,4.8727,4.9065,4.9538,5.0165,5.0633,5.1385,5.2436,5.2588,5.3068,5.3521,5.1162,5.0232,4.9763,4.773,4.7592,4.8727,4.9022,4.9964,5.1099,5.1277,5.1431,5.1431,5.1431,5.1431,5.1431,5.1431,5.1431,5.1431,5.1431,5.1431,5.1585,5.187,5.2307,5.2764,5.3091,5.3521,5.3822,5.3822,5.3822,5.3654,5.3149,5.2692,5.2187,5.1586,0.0,5.1489,5.1489,5.2283,5.2884,5.3053,5.3846,5.4447,5.4592,5.5458,5.6059,5.6227,5.666,5.7141,5.767,5.7766,5.7945,5.8569,5.7846,5.664,5.4915,5.4299,5.3043,5.1426,5.1426,5.1426,5.1426,5.1426,5.1914,5.2715,5.2715,5.3223,5.4023,5.4023,5.4023,5.4023,5.4023,5.4023,5.4101,2.0709,2.1266,2.1962,2.3092,2.3664,2.4341,2.5072,2.597,2.6866,2.7744,2.8526,2.9276,3.0222,3.0593,3.0998,3.1363,3.2015,3.257,3.2729,3.4354,3.5254,3.5109,3.5595,3.6191,3.7249,3.9285,4.0768,4.2011,4.4112,4.5594,4.6608,4.7592,4.8251,4.8907,4.9381,4.9695,5.0165,5.0633,5.1539,5.2588,5.2588,5.3068,5.3672,5.1801,5.1185,5.0853,4.8684,4.8842,4.9808,4.9651,5.0299,5.1431,5.1431,5.1431,5.1431,5.1431,5.1615,5.1775,5.15,5.1615,5.1753,5.15,5.1562,5.187,5.2154,5.2612,5.3068,5.337,5.3672,5.3822,5.3822,5.3822,5.3654,5.3149,5.262,0.0,0.0,5.1682,5.1706,5.2283,5.3004,5.3582,5.387,5.4592,5.5145,5.5458,5.5938,5.6371,5.6636,5.69,5.7381,5.8199,5.8512,5.8852,5.9116,5.8496,5.7689,5.6729,5.4858,5.3624,5.2932,5.1794,5.1426,5.1426,5.1426,5.1914,5.2715,5.2715,5.3223,5.4023,5.4023,5.4023,5.4023,5.4023,5.4023,5.4062,2.1227,2.1831,2.2457,2.3528,2.4135,2.4734,2.5755,2.6517,2.7331,2.813,2.8795,2.9399,3.0267,3.0569,3.0918,3.1347,3.2171,3.2729,3.3204,3.4371,3.5109,3.5433,3.6004,3.7014,3.8318,4.0217,4.1763,4.3176,4.5637,4.6951,4.7272,4.841,4.8907,4.8907,4.9381,4.9852,5.0322,5.0789,5.1693,5.2588,5.2764,5.3219,5.3672,5.2436,5.1954,5.1801,5.0076,4.992,5.0721,5.0277,5.0611,5.1431,5.1431,5.1431,5.1431,5.1431,5.1867,5.2258,5.1867,5.2051,5.2258,5.2023,5.197,5.234,5.2776,5.301,5.337,5.3672,5.3822,5.3822,5.3822,5.3822,5.3654,5.3149,0.0,0.0,0.0,5.2043,5.2211,5.3273,5.3852,5.4358,5.5041,5.5573,5.6057,5.6492,5.6661,5.6903,5.7314,5.73,5.7855,5.8752,5.9305,5.9595,5.9642,5.921,5.8655,5.8184,5.6208,5.5196,5.48,5.3296,5.2374,5.1988,5.1988,5.2306,5.2715,5.2715,5.3223,5.4023,5.4023,5.4023,5.4023,5.4023,5.4023,5.4023,2.1397,2.2231,2.3064,2.3379,2.4246,2.5264,2.6018,2.6609,2.7493,2.8516,2.8722,2.9132,3.0235,3.0346,3.0632,3.1331,3.2328,3.3204,3.3677,3.4692,3.5433,3.5433,3.6568,3.8075,3.9795,4.1838,4.3731,4.5495,4.7293,4.8114,4.8251,4.8749,4.8907,4.8907,4.9852,5.0165,5.0322,5.1385,5.2154,5.2588,5.3068,5.337,5.3672,5.2436,5.1954,5.1954,5.1362,5.1053,5.0876,5.1539,5.1562,5.1431,5.1431,5.1431,5.1431,5.1431,5.2097,5.2832,5.2809,5.2809,5.299,5.3283,5.3069,5.2876,5.3649,5.3576,5.337,5.3672,5.3822,5.3822,5.3822,5.3822,5.3654,5.3149,0.0,0.0,5.2355,5.2668,5.3297,5.4324,5.4859,5.5546,5.654,5.7081,5.7401,5.745,5.7942,5.8104,5.8129,5.8277,5.8548,5.9281,5.9834,6.0123,6.0171,6.1034,6.0647,5.8716,5.9497,5.8675,5.6473,5.6286,5.5367,5.3508,5.3508,5.3241,5.2715,5.2715,5.3223,5.4023,5.4023,5.4023,5.4023,5.4023,5.4023,5.4023,2.1964,2.2767,2.3474,2.4327,2.5068,2.5944,2.655,2.7432,2.8264,2.8676,2.8851,2.9407,3.0235,3.0315,3.075,3.1622,3.2641,3.3362,3.4009,3.4852,3.5901,3.701,3.7472,3.8813,4.1095,4.27,4.4261,4.6144,4.7613,4.8432,4.8749,4.8907,4.9065,4.9381,4.9852,5.0322,5.0633,5.1539,5.2154,5.2612,5.3068,5.337,5.3822,5.3346,5.3044,5.3044,5.2612,5.2283,5.1824,5.2,5.1716,5.1431,5.1431,5.1431,5.1546,5.2166,5.299,5.3909,5.4233,5.4094,5.377,5.3627,5.3866,5.4193,5.4503,5.4491,5.4655,5.4808,5.4784,5.4784,5.4784,5.452,5.4255,5.4063,0.0,5.3641,5.4126,5.4227,5.4768,5.5775,5.6363,5.6756,5.713,5.7647,5.7966,5.7966,5.8187,5.831,5.831,5.8642,5.9122,5.9684,6.005,6.0171,6.0171,6.1253,6.1437,6.0718,6.0465,5.9818,5.8903,5.7775,5.6473,5.5555,5.461,5.4209,5.4083,5.3093,5.3223,5.4023,5.4023,5.4023,5.4023,5.4023,5.4023,5.4023,2.2627,2.3268,2.4162,2.5077,2.5886,2.6661,2.7311,2.8187,2.8691,2.8851,2.9249,2.9679,3.0251,3.0426,3.0878,3.1944,3.2797,3.3536,3.434,3.5492,3.6689,3.7968,3.8236,3.9579,4.2383,4.3639,4.5201,4.6951,4.7933,4.8591,4.8907,4.8907,4.9065,4.9538,5.0009,5.0478,5.0789,5.1847,5.2307,5.2612,5.3219,5.3521,5.3822,5.3822,5.3822,5.3822,5.3521,5.3068,5.2612,5.2307,5.1986,5.1661,5.1661,5.1775,5.2028,5.2852,5.3747,5.4417,5.509,5.5135,5.4944,5.4592,5.4697,5.5026,5.5206,5.5374,5.5385,5.5385,5.5385,5.5385,5.5385,5.5097,5.4856,5.5009,5.4708,5.464,5.5673,5.5628,5.6027,5.7092,5.7537,5.7808,5.8136,5.8533,5.8756,5.8756,5.8756,5.8748,5.8936,5.933,5.9878,6.0257,6.0313,6.0411,6.0412,6.135,6.1879,6.2071,6.1629,6.1312,6.1132,5.9635,5.8514,5.7612,5.6286,5.5512,5.5046,5.3885,5.3624,5.4023,5.4023,5.4023,5.4023,5.4023,5.4023,5.4023,2.3167,2.413,2.512,2.5549,2.6483,2.7342,2.8036,2.8473,2.8851,2.9298,2.96,2.9949,3.0283,3.0648,3.115,3.196,3.3109,3.3835,3.434,3.6588,3.7968,3.7968,3.8828,4.066,4.3637,4.5078,4.651,4.8273,4.8749,4.8907,4.8907,4.8907,4.9065,4.9538,5.0009,5.0478,5.0944,5.2154,5.2588,5.2612,5.3521,5.3822,5.3822,5.3822,5.3822,5.3822,5.3822,5.337,5.2612,5.2612,5.2349,5.2189,5.2189,5.251,5.3059,5.3534,5.3906,5.4577,5.5389,5.6037,5.6405,5.6405,5.5977,5.5755,5.607,5.5794,5.5409,5.5409,5.5409,5.5409,5.5409,5.5409,5.5564,5.6051,5.6051,5.618,5.6639,5.6639,5.7013,5.7992,5.8067,5.842,5.9433,5.9483,5.9483,5.9508,5.9508,5.9829,6.0452,6.0502,6.0538,6.0792,6.0841,6.0916,6.0965,6.1518,6.2071,6.26,6.3105,6.2967,6.2612,6.2612,6.1492,5.9658,5.9109,5.7785,5.5766,5.5242,5.4624,5.4023,5.4023,5.4023,5.4023,5.4023,5.4023,5.4023,2.4349,2.4946,2.5608,2.6245,2.7195,2.7987,2.8504,2.8932,2.9233,2.9631,2.9758,3.0044,3.0632,3.1527,3.2492,3.3163,3.4554,3.5982,3.7312,3.8882,4.0122,4.1071,4.1345,4.2724,4.5436,4.6195,4.7124,4.8273,4.8749,4.8907,4.8907,4.9223,4.9538,5.0009,5.0478,5.0789,5.1254,5.2154,5.2588,5.2612,5.3521,5.3822,5.3822,5.3822,5.3822,5.3822,5.3822,5.376,5.346,5.333,5.3218,5.3144,5.2852,5.3174,5.3909,5.4068,5.492,5.5871,5.6174,5.6542,5.6702,5.6405,5.6423,5.6622,5.678,5.666,5.654,5.654,5.654,5.654,5.6855,5.6673,5.6561,5.705,5.7038,5.7092,5.7616,5.7996,5.8349,5.9028,5.9103,5.9153,5.9483,5.9483,5.9659,6.0035,6.0437,6.0989,6.1557,6.1235,6.1234,6.1812,6.1174,6.111,6.2008,6.1882,6.2071,6.26,6.3105,6.3169,6.3145,6.3145,6.2612,6.1695,6.0386,5.9856,5.9248,5.6563,5.5754,5.5971,5.4615,5.4615,5.5588,5.5588,5.6393,5.7194,2.5272,2.5726,2.6339,2.6952,2.8209,2.9154,2.952,2.9838,3.0128,3.0486,3.0649,3.0958,3.1544,3.2776,3.3845,3.4539,3.5941,3.7528,3.8962,4.0407,4.1736,4.2863,4.3537,4.4749,4.6437,4.7103,4.7813,4.8591,4.8749,4.8907,4.9223,4.9381,4.9852,5.0478,5.0633,5.0944,5.1431,5.2307,5.2588,5.2612,5.3521,5.3822,5.3822,5.3822,5.3822,5.3822,5.3822,5.3736,5.3589,5.3495,5.3592,5.37,5.3518,5.4025,5.4556,5.485,5.5659,5.6405,5.6542,5.6861,5.6861,5.6702,5.6861,5.7021,5.7021,5.7021,5.7093,5.7285,5.7493,5.7629,5.7812,5.8008,5.8104,5.7999,5.8136,5.847,5.8973,5.9002,5.9307,6.006,5.996,5.991,6.0136,6.0161,6.0311,6.0638,6.0989,6.1416,6.1969,6.1671,6.1758,6.2167,6.1672,6.1688,6.2422,6.2103,6.2317,6.2889,6.3201,6.3346,6.3346,6.3346,6.3169,6.279,6.1695,6.1325,6.1132,5.8846,5.8062,5.8324,5.6953,5.7152,5.7927,5.7927,5.8543,5.9331,2.5944,2.6556,2.7401,2.7694,2.9228,3.0551,3.096,3.1135,3.1287,3.1659,3.203,3.2402,3.2791,3.4197,3.5306,3.5754,3.7388,3.8802,4.0063,4.168,4.31,4.3919,4.5504,4.668,4.6954,4.7877,4.8432,4.8907,4.8907,4.9223,4.9538,4.9538,5.0009,5.0789,5.0789,5.1099,5.1431,5.2307,5.2588,5.2612,5.3521,5.3822,5.3822,5.3822,5.3822,5.3822,5.3822,5.3593,5.3457,5.3589,5.3785,5.3911,5.4233,5.4696,5.5298,5.5628,5.6001,5.6566,5.6861,5.7021,5.7021,5.7021,5.7021,5.7021,5.7021,5.7069,5.7237,5.7718,5.8322,5.8507,5.8667,5.9379,5.97,5.9185,5.9433,5.9914,6.0387,5.996,6.0035,6.1065,6.0713,6.0613,6.114,6.1215,6.1266,6.1266,6.1291,6.1542,6.2044,6.2069,6.2158,6.2331,6.2167,6.2356,6.2593,6.2422,6.2611,6.3346,6.3346,6.3346,6.3346,6.3346,6.3346,6.3346,6.279,6.2438,6.2064,6.1342,6.0965,6.0633,6.0439,6.0461,6.0461,6.0461,6.0655,6.0655,2.7877,2.8174,2.8526,2.8526,2.979,3.096,3.096,3.2066,3.2966,3.3208,3.374,3.4144,3.4531,3.5682,3.6627,3.6922,3.9336,4.1153,4.1847,4.34,4.4605,4.5263,4.6585,4.7464,4.7942,4.8208,4.8432,4.8907,4.9223,4.9381,4.9538,5.0165,5.0633,5.0789,5.1099,5.1277,5.1431,5.2307,5.2588,5.2612,5.3521,5.3822,5.3822,5.3822,5.3822,5.3822,5.3822,5.4351,5.4884,5.5209,5.5178,5.5205,5.5067,5.5483,5.6197,5.6263,5.6446,5.6861,5.7021,5.7021,5.7021,5.7021,5.7021,5.7021,5.7021,5.7333,5.7831,5.8249,5.8774,5.9252,5.9848,6.0267,6.0427,6.0705,6.0756,6.0831,6.0989,6.0889,6.0914,6.1165,6.1065,6.104,6.1165,6.1567,6.1818,6.1818,6.222,6.2521,6.2647,6.2647,6.2697,6.2659,6.2331,6.2688,6.3443,6.2763,6.2611,6.3346,6.3346,6.3346,6.3346,6.3346,6.3346,6.3346,6.3169,6.3565,6.4158,6.2434,6.2076,6.2584,6.1043,6.1043,6.2031,6.2031,6.2821,6.382,2.8806,2.9253,2.9682,2.9986,3.1288,3.2296,3.2473,3.3408,3.423,3.463,3.5048,3.5448,3.5849,3.7089,3.8194,3.8994,4.068,4.2194,4.3228,4.4619,4.566,4.6258,4.7358,4.8092,4.8273,4.8432,4.8749,4.9223,4.9381,4.9695,5.0165,5.0633,5.0944,5.1099,5.1277,5.1585,5.1716,5.2307,5.2764,5.2916,5.3521,5.3822,5.3822,5.3822,5.3822,5.3822,5.3822,5.4343,5.5219,5.5534,5.564,5.5691,5.5738,5.606,5.6405,5.6542,5.6861,5.7021,5.7021,5.7021,5.7021,5.7021,5.7021,5.7021,5.7021,5.759,5.8346,5.8774,5.9585,6.0439,6.0738,6.1285,6.1446,6.1266,6.1391,6.1567,6.1567,6.1341,6.1391,6.1893,6.1743,6.1667,6.1943,6.222,6.2395,6.2395,6.2672,6.2822,6.2822,6.2822,6.2822,6.2822,6.2659,6.2854,6.3782,6.3274,6.3301,6.3675,6.3346,6.3346,6.3346,6.3346,6.3346,6.3346,6.3346,6.3947,6.4727,6.3769,6.399,6.4742,6.375,6.3774,6.4553,6.4553,6.4954,6.5564,2.944,3.0001,3.0768,3.1559,3.2765,3.3848,3.4258,3.4864,3.5454,3.5792,3.6281,3.6859,3.7179,3.8574,3.981,4.1065,4.16,4.2549,4.4215,4.5044,4.5985,4.7006,4.7911,4.8273,4.8432,4.8749,4.9223,4.9538,4.9538,5.0009,5.0789,5.0944,5.1099,5.1431,5.1431,5.1716,5.2024,5.2459,5.2916,5.3243,5.3672,5.3822,5.3822,5.3822,5.3822,5.3822,5.3918,5.4334,5.5159,5.5526,5.5842,5.6037,5.6221,5.6405,5.6566,5.6861,5.7021,5.7021,5.7021,5.7021,5.7021,5.7021,5.7252,5.73,5.7204,5.7909,5.8764,5.9301,6.0489,6.1371,6.1608,6.217,6.2521,6.1617,6.1843,6.2144,6.2144,6.1743,6.1793,6.2722,6.2421,6.232,6.2797,6.2822,6.2822,6.2822,6.2822,6.2822,6.2822,6.2822,6.2822,6.2822,6.2822,6.3185,6.395,6.3806,6.4012,6.4202,6.3675,6.3346,6.3346,6.3346,6.3346,6.3346,6.3346,6.3947,6.4909,6.4909,6.5534,6.6496,6.6496,6.6496,6.6496,6.6496,6.6496,6.6496,3.0433,3.1157,3.1847,3.2229,3.3169,3.3848,3.4258,3.5826,3.6945,3.7003,3.7845,3.8516,3.8865,3.959,4.0512,4.1514,4.1933,4.2849,4.4215,4.5044,4.5995,4.6817,4.7877,4.8432,4.8749,4.9223,4.9381,4.9538,4.9852,5.0322,5.0789,5.1099,5.1431,5.1431,5.1716,5.2024,5.2,5.2764,5.3068,5.3243,5.3672,5.3822,5.3822,5.3822,5.3822,5.387,5.4351,5.5193,5.6046,5.6279,5.6494,5.6702,5.6566,5.6702,5.6861,5.7021,5.7021,5.7021,5.7021,5.7021,5.7021,5.7497,5.7996,5.8215,5.8093,5.8228,5.874,6.0082,6.0788,6.1633,6.2458,6.2772,6.2772,6.2621,6.2672,6.2722,6.2722,6.2647,6.2672,6.2822,6.2772,6.2747,6.2822,6.2822,6.2822,6.2822,6.2822,6.2822,6.2822,6.2822,6.2822,6.2822,6.2822,6.335,6.4454,6.3975,6.4353,6.5248,6.4377,6.3675,6.3346,6.3346,6.3346,6.3346,6.3346,6.3947,6.4909,6.4909,6.5534,6.6496,6.6496,6.6496,6.6496,6.6496,6.6496,6.6496,3.1191,3.1879,3.2747,3.352,3.4051,3.4528,3.5199,3.6247,3.7031,3.7266,3.7975,3.8754,3.9156,3.9899,4.0822,4.1891,4.2269,4.3102,4.4899,4.5658,4.6571,4.759,4.8302,4.8749,4.8907,4.9223,4.9695,4.9852,5.0322,5.0789,5.1099,5.1562,5.1716,5.1716,5.2154,5.2459,5.2612,5.3068,5.337,5.3521,5.3672,5.3822,5.3822,5.3822,5.3822,5.3894,5.4423,5.5097,5.5842,5.6238,5.6622,5.7021,5.6861,5.6861,5.7021,5.7021,5.7021,5.7093,5.7381,5.7614,5.8006,5.8482,5.8886,5.9305,5.9538,5.9503,5.965,6.0055,6.1135,6.2095,6.237,6.2621,6.2822,6.2822,6.2822,6.2822,6.2822,6.2822,6.2822,6.2822,6.2822,6.2822,6.2822,6.2822,6.2822,6.2822,6.2822,6.2822,6.2822,6.2822,6.2822,6.2822,6.2822,6.335,6.4454,6.4312,6.4523,6.5421,6.4901,6.4377,6.3675,6.3346,6.3346,6.3346,6.3346,6.3947,6.4909,6.4909,6.5534,6.6496,6.6496,6.6496,6.6496,6.6496,6.6496,6.6496]},{"header":{"parameterUnit":"m.s-1","parameterCategory":1,"la1":30.6,"la2":28.766,"lo1":-90.7593,"lo2":-88.6598,"dy":0.0162,"dx":0.0183,"nx":116,"ny":114,"refTime":"2023-06-01T06:00:00:Z","depth":0,"parameterNumber":3,"parameterNumberName":"V-component_of_WINDS"},"data":[0.0,0.0,0.0,0.0,0.0,0.0,0.0,0.0,0.0,0.0,0.0,0.0,0.0,0.0,0.0,0.0,0.0,0.0,0.0,0.0,0.0,0.0,0.0,0.0,0.0,0.0,0.0,0.0,0.0,0.0,0.0,0.0,0.0,0.0,0.0,0.0,0.0,0.0,0.0,0.0,0.0,0.0,0.0,0.0,0.0,0.0,0.0,0.0,0.0,0.0,0.0,0.0,0.0,0.0,0.0,0.0,0.0,0.0,0.0,0.0,0.0,0.0,0.0,0.0,0.0,0.0,0.0,0.0,0.0,0.0,0.0,0.0,0.0,0.0,0.0,0.0,0.0,0.0,0.0,0.0,0.0,0.0,0.0,0.0,0.0,0.0,0.0,0.0,0.0,0.0,0.0,0.0,0.0,0.0,0.0,0.0,0.0,0.0,0.0,0.0,0.0,0.0,0.0,0.0,0.0,0.0,0.0,0.0,0.0,0.0,0.0,0.0,0.0,0.0,0.0,0.0,0.0,0.0,0.0,0.0,0.0,0.0,0.0,0.0,0.0,0.0,0.0,0.0,0.0,0.0,0.0,0.0,0.0,0.0,0.0,0.0,0.0,0.0,0.0,0.0,0.0,0.0,0.0,0.0,0.0,0.0,0.0,0.0,0.0,0.0,0.0,0.0,0.0,0.0,0.0,0.0,0.0,0.0,0.0,0.0,0.0,0.0,0.0,0.0,0.0,0.0,0.0,0.0,0.0,0.0,0.0,0.0,0.0,0.0,0.0,0.0,0.0,0.0,0.0,0.0,0.0,0.0,0.0,0.0,0.0,0.0,0.0,0.0,0.0,0.0,0.0,0.0,0.0,0.0,0.0,0.0,0.0,0.0,0.0,0.0,0.0,0.0,0.0,0.0,0.0,0.0,0.0,0.0,0.0,0.0,0.0,0.0,0.0,0.0,0.0,0.0,0.0,0.0,0.0,0.0,0.0,0.0,0.0,0.0,0.0,0.0,0.0,0.0,0.0,0.0,0.0,0.0,0.0,0.0,0.0,0.0,0.0,0.0,0.0,0.0,0.0,0.0,0.0,0.0,0.0,0.0,0.0,0.0,0.0,0.0,0.0,0.0,0.0,0.0,0.0,0.0,0.0,0.0,0.0,0.0,0.0,0.0,0.0,0.0,0.0,0.0,0.0,0.0,0.0,0.0,0.0,0.0,0.0,0.0,0.0,0.0,0.0,0.0,0.0,0.0,0.0,0.0,0.0,0.0,0.0,0.0,0.0,0.0,0.0,0.0,0.0,0.0,0.0,0.0,0.0,0.0,0.0,0.0,0.0,0.0,0.0,0.0,0.0,0.0,0.0,0.0,0.0,0.0,0.0,0.0,0.0,0.0,0.0,0.0,0.0,0.0,0.0,0.0,0.0,0.0,0.0,0.0,0.0,0.0,0.0,0.0,0.0,0.0,0.0,0.0,0.0,0.0,0.0,0.0,0.0,0.0,0.0,0.0,0.0,0.0,0.0,0.0,0.0,0.0,0.0,0.0,0.0,0.0,0.0,0.0,0.0,0.0,0.0,0.0,0.0,0.0,0.0,0.0,0.0,0.0,0.0,0.0,0.0,0.0,0.0,0.0,0.0,0.0,0.0,0.0,0.0,0.0,0.0,0.0,0.0,0.0,0.0,0.0,0.0,0.0,0.0,0.0,0.0,0.0,0.0,0.0,0.0,0.0,0.0,0.0,0.0,0.0,0.0,0.0,0.0,0.0,0.0,0.0,0.0,0.0,0.0,0.0,0.0,0.0,0.0,0.0,0.0,0.0,0.0,0.0,0.0,0.0,0.0,0.0,0.0,0.0,0.0,0.0,0.0,0.0,0.0,0.0,0.0,0.0,0.0,0.0,0.0,0.0,0.0,0.0,0.0,0.0,0.0,0.0,0.0,0.0,0.0,0.0,0.0,0.0,0.0,0.0,0.0,0.0,0.0,0.0,0.0,0.0,0.0,0.0,0.0,0.0,0.0,0.0,0.0,0.0,0.0,0.0,0.0,0.0,0.0,0.0,0.0,0.0,0.0,0.0,0.0,0.0,0.0,0.0,0.0,0.0,0.0,0.0,0.0,0.0,0.0,0.0,0.0,0.0,0.0,0.0,0.0,0.0,0.0,0.0,0.0,0.0,0.0,0.0,0.0,0.0,0.0,0.0,0.0,0.0,0.0,0.0,0.0,0.0,0.0,0.0,0.0,0.0,0.0,0.0,0.0,0.0,0.0,0.0,0.0,0.0,0.0,0.0,0.0,0.0,0.0,0.0,0.0,0.0,0.0,0.0,0.0,0.0,0.0,0.0,0.0,0.0,0.0,0.0,0.0,0.0,0.0,0.0,0.0,0.0,0.0,0.0,0.0,0.0,0.0,0.0,0.0,0.0,0.0,0.0,0.0,0.0,0.0,0.0,0.0,0.0,0.0,0.0,0.0,0.0,0.0,0.0,0.0,0.0,0.0,0.0,0.0,0.0,0.0,0.0,0.0,0.0,0.0,0.0,0.0,0.0,0.0,0.0,0.0,0.0,0.0,0.0,0.0,0.0,0.0,0.0,0.0,0.0,0.0,0.0,0.0,0.0,0.0,0.0,0.0,0.0,0.0,0.0,0.0,0.0,0.0,0.0,0.0,0.0,0.0,0.0,0.0,0.0,0.0,0.0,0.0,0.0,0.0,0.0,0.0,0.0,0.0,0.0,0.0,0.0,0.0,0.0,0.0,0.0,0.0,0.0,0.0,0.0,0.0,0.0,0.0,0.0,0.0,0.0,0.0,0.0,0.0,0.0,0.0,0.0,0.0,0.0,0.0,0.0,0.0,0.0,0.0,0.0,0.0,0.0,0.0,0.0,0.0,0.0,0.0,0.0,0.0,0.0,0.0,0.0,0.0,0.0,0.0,0.0,0.0,0.0,0.0,0.0,0.0,0.0,0.0,0.0,0.0,0.0,0.0,0.0,0.0,0.0,0.0,0.0,0.0,0.0,0.0,0.0,0.0,0.0,0.0,0.0,0.0,0.0,0.0,0.0,0.0,0.0,0.0,0.0,0.0,0.0,0.0,0.0,0.0,0.0,0.0,0.0,0.0,0.0,0.0,0.0,0.0,0.0,0.0,0.0,0.0,0.0,0.0,0.0,0.0,0.0,0.0,0.0,0.0,0.0,0.0,0.0,0.0,0.0,0.0,0.0,0.0,0.0,0.0,0.0,0.0,0.0,0.0,0.0,0.0,0.0,0.0,0.0,0.0,0.0,0.0,0.0,0.0,0.0,0.0,0.0,0.0,0.0,0.0,0.0,0.0,0.0,0.0,0.0,0.0,0.0,0.0,0.0,0.0,0.0,0.0,0.0,0.0,0.0,0.0,0.0,0.0,0.0,0.0,0.0,0.0,0.0,0.0,0.0,0.0,0.0,0.0,0.0,0.0,0.0,0.0,0.0,0.0,0.0,0.0,0.0,0.0,0.0,0.0,0.0,0.0,0.0,0.0,0.0,0.0,0.0,0.0,0.0,0.0,0.0,0.0,0.0,0.0,0.0,0.0,0.0,0.0,0.0,0.0,0.0,0.0,0.0,0.0,0.0,0.0,0.0,0.0,0.0,0.0,0.0,0.0,0.0,0.0,0.0,0.0,0.0,0.0,0.0,0.0,0.0,0.0,0.0,0.0,0.0,0.0,0.0,0.0,0.0,0.0,0.0,0.0,0.0,0.0,0.0,0.0,0.0,0.0,0.0,0.0,0.0,0.0,0.0,0.0,0.0,0.0,0.0,0.0,0.0,0.0,0.0,0.0,0.0,0.0,0.0,0.0,0.0,0.0,0.0,0.0,0.0,0.0,0.0,0.0,0.0,0.0,0.0,0.0,0.0,0.0,0.0,0.0,0.0,0.0,0.0,0.0,0.0,0.0,0.0,0.0,0.0,0.0,0.0,0.0,0.0,0.0,0.0,0.0,0.0,0.0,0.0,0.0,0.0,0.0,0.0,0.0,0.0,0.0,0.0,0.0,0.0,0.0,0.0,0.0,0.0,0.0,0.0,0.0,0.0,0.0,0.0,0.0,0.0,0.0,0.0,0.0,0.0,0.0,0.0,0.0,0.0,0.0,0.0,0.0,0.0,0.0,0.0,0.0,0.0,0.0,0.0,0.0,0.0,0.0,0.0,0.0,0.0,0.0,0.0,0.0,0.0,0.0,0.0,0.0,0.0,0.0,0.0,0.0,0.0,0.0,0.0,0.0,0.0,0.0,0.0,0.0,0.0,0.0,0.0,0.0,0.0,0.0,0.0,0.0,0.0,0.0,0.0,0.0,0.0,0.0,0.0,0.0,0.0,0.0,0.0,0.0,0.0,0.0,0.0,0.0,0.0,0.0,0.0,0.0,0.0,0.0,0.0,0.0,0.0,0.0,0.0,0.0,0.0,0.0,0.0,0.0,0.0,0.0,0.0,0.0,0.0,0.0,0.0,0.0,0.0,0.0,0.0,0.0,0.0,0.0,0.0,0.0,0.0,0.0,0.0,0.0,0.0,0.0,0.0,0.0,0.0,0.0,0.0,0.0,0.0,0.0,0.0,0.0,0.0,0.0,0.0,0.0,0.0,0.0,0.0,0.0,0.0,0.0,0.0,0.0,0.0,0.0,0.0,0.0,0.0,0.0,0.0,0.0,0.0,0.0,0.0,0.0,0.0,0.0,0.0,0.0,0.0,0.0,0.0,0.0,0.0,0.0,0.0,0.0,0.0,0.0,0.0,0.0,0.0,0.0,0.0,0.0,0.0,0.0,0.0,0.0,0.0,0.0,0.0,0.0,0.0,0.0,0.0,0.0,0.0,0.0,0.0,0.0,0.0,0.0,0.0,0.0,0.0,0.0,0.0,0.0,0.0,0.0,0.0,0.0,0.0,0.0,0.0,0.0,0.0,0.0,0.0,0.0,0.0,0.0,0.0,0.0,0.0,0.0,0.0,0.0,0.0,0.0,0.0,0.0,0.0,0.0,0.0,0.0,0.0,0.0,0.0,0.0,0.0,0.0,0.0,0.0,0.0,0.0,0.0,0.0,0.0,0.0,0.0,0.0,0.0,0.0,0.0,0.0,0.0,0.0,0.0,0.0,0.0,0.0,0.0,0.0,0.0,0.0,0.0,0.0,0.0,0.0,0.0,0.0,0.0,0.0,0.0,0.0,0.0,0.0,0.0,0.0,0.0,0.0,0.0,0.0,0.0,0.0,0.0,0.0,0.0,0.0,0.0,0.0,0.0,0.0,0.0,0.0,0.0,0.0,0.0,0.0,0.0,0.0,0.0,0.0,0.0,0.0,0.0,0.0,0.0,0.0,0.0,0.0,0.0,0.0,0.0,0.0,0.0,0.0,0.0,0.0,0.0,0.0,0.0,0.0,0.0,0.0,0.0,0.0,0.0,0.0,0.0,0.0,0.0,0.0,0.0,0.0,0.0,0.0,0.0,0.0,0.0,0.0,0.0,0.0,0.0,0.0,0.0,0.0,0.0,0.0,0.0,0.0,0.0,0.0,0.0,0.0,0.0,0.0,0.0,0.0,0.0,0.0,0.0,0.0,0.0,0.0,0.0,0.0,0.0,0.0,0.0,0.0,0.0,0.0,0.0,0.0,0.0,0.0,0.0,0.0,0.0,0.0,0.0,0.0,0.0,0.0,0.0,0.0,0.0,0.0,0.0,0.0,0.0,0.0,0.0,0.0,0.0,0.0,0.0,0.0,0.0,0.0,0.0,0.0,0.0,0.0,0.0,0.0,0.0,0.0,0.0,0.0,0.0,0.0,0.0,0.0,0.0,0.0,0.0,0.0,0.0,0.0,0.0,0.0,0.0,0.0,0.0,0.0,0.0,0.0,0.0,0.0,0.0,0.0,0.0,0.0,0.0,0.0,0.0,0.0,0.0,0.0,0.0,0.0,0.0,0.0,0.0,0.0,0.0,0.0,0.0,0.0,0.0,0.0,0.0,0.0,0.0,0.0,0.0,0.0,0.0,0.0,0.0,0.0,0.0,0.0,0.0,0.0,0.0,0.0,0.0,0.0,0.0,0.0,0.0,0.0,0.0,0.0,0.0,0.0,0.0,0.0,0.0,0.0,0.0,4.3434,0.0,0.0,0.0,0.0,0.0,0.0,0.0,0.0,0.0,0.0,0.0,0.0,0.0,0.0,0.0,0.0,0.0,0.0,0.0,0.0,0.0,0.0,0.0,0.0,0.0,0.0,0.0,0.0,0.0,0.0,0.0,0.0,0.0,0.0,0.0,0.0,0.0,0.0,3.5678,3.4625,3.434,3.4836,3.4606,3.3832,3.2604,0.0,0.0,0.0,0.0,0.0,0.0,0.0,0.0,0.0,0.0,0.0,0.0,0.0,0.0,0.0,0.0,0.0,0.0,0.0,0.0,0.0,0.0,0.0,0.0,0.0,0.0,0.0,0.0,0.0,0.0,0.0,0.0,0.0,0.0,0.0,0.0,0.0,0.0,0.0,0.0,0.0,0.0,0.0,0.0,0.0,0.0,0.0,0.0,0.0,0.0,0.0,0.0,0.0,0.0,0.0,0.0,0.0,0.0,0.0,0.0,0.0,0.0,0.0,0.0,0.0,0.0,0.0,0.0,0.0,0.0,0.0,4.5342,0.0,0.0,0.0,0.0,0.0,0.0,0.0,0.0,0.0,0.0,0.0,0.0,0.0,0.0,0.0,0.0,0.0,0.0,0.0,0.0,0.0,0.0,0.0,0.0,3.8421,3.8732,3.8606,0.0,0.0,0.0,0.0,0.0,0.0,0.0,0.0,3.69,3.6557,3.6445,3.5954,3.5811,3.5893,3.5295,3.4661,3.4044,3.3664,0.0,0.0,0.0,0.0,0.0,0.0,0.0,0.0,0.0,0.0,0.0,0.0,0.0,0.0,0.0,0.0,0.0,0.0,0.0,0.0,0.0,0.0,0.0,0.0,0.0,0.0,0.0,0.0,0.0,0.0,0.0,0.0,0.0,0.0,0.0,0.0,0.0,0.0,0.0,0.0,0.0,0.0,0.0,0.0,0.0,0.0,0.0,0.0,0.0,0.0,0.0,0.0,0.0,0.0,0.0,0.0,0.0,0.0,0.0,0.0,0.0,0.0,0.0,5.134,5.1382,5.127,5.1204,5.0792,5.0183,4.9807,4.8975,4.7995,4.9161,0.0,0.0,0.0,0.0,0.0,0.0,0.0,0.0,0.0,0.0,0.0,0.0,0.0,0.0,0.0,0.0,0.0,0.0,0.0,0.0,0.0,3.8377,3.8952,4.0429,3.9869,3.968,0.0,0.0,0.0,0.0,0.0,0.0,3.7585,3.749,3.7395,3.7337,3.7392,3.7453,3.7578,3.7425,3.7291,3.7038,3.5157,3.4771,3.5468,0.0,0.0,0.0,0.0,0.0,0.0,0.0,0.0,0.0,0.0,0.0,0.0,0.0,0.0,0.0,0.0,0.0,0.0,0.0,0.0,0.0,0.0,0.0,0.0,0.0,0.0,0.0,0.0,0.0,0.0,0.0,0.0,0.0,0.0,0.0,0.0,0.0,0.0,0.0,0.0,0.0,4.3564,4.4397,0.0,0.0,0.0,0.0,0.0,0.0,0.0,0.0,0.0,0.0,0.0,0.0,0.0,4.9337,5.0353,5.1931,5.2757,5.2869,5.4296,5.4562,5.3921,5.3887,5.3945,5.4087,5.4692,0.0,4.9657,5.0694,0.0,0.0,0.0,0.0,0.0,0.0,0.0,0.0,0.0,0.0,0.0,0.0,0.0,0.0,0.0,0.0,0.0,0.0,0.0,0.0,0.0,4.0208,4.0839,4.1558,4.1694,4.1651,4.1517,0.0,0.0,0.0,0.0,3.9071,3.8912,3.8498,3.8061,3.7622,3.7708,3.7759,3.7797,3.7792,3.7737,3.7594,3.6622,3.6482,3.6995,3.7093,0.0,0.0,0.0,0.0,0.0,0.0,0.0,0.0,0.0,0.0,0.0,0.0,0.0,0.0,0.0,0.0,0.0,0.0,0.0,0.0,0.0,0.0,0.0,0.0,0.0,0.0,0.0,0.0,0.0,0.0,0.0,0.0,0.0,0.0,0.0,0.0,0.0,0.0,0.0,4.3756,4.4654,4.4739,4.5499,4.5772,0.0,0.0,0.0,0.0,0.0,0.0,0.0,0.0,0.0,5.0787,5.1813,5.2672,5.347,5.4672,5.5498,5.5948,5.6662,5.6882,5.6715,5.6715,5.6576,5.6405,5.6747,5.6216,5.511,5.4623,5.4122,5.3644,0.0,0.0,0.0,0.0,5.4056,5.4459,0.0,0.0,0.0,0.0,0.0,0.0,0.0,0.0,0.0,0.0,0.0,0.0,4.0837,4.1675,4.2325,4.2529,4.3112,4.3257,4.2776,4.2202,0.0,0.0,4.0492,4.0291,4.0257,3.9964,3.9452,3.8667,3.8733,3.8618,3.8397,3.8359,3.8288,3.8175,3.8175,3.8191,3.8252,3.8161,3.7965,3.7717,0.0,0.0,0.0,0.0,0.0,0.0,0.0,0.0,0.0,0.0,0.0,0.0,0.0,0.0,0.0,0.0,0.0,0.0,0.0,0.0,0.0,0.0,0.0,0.0,0.0,0.0,0.0,0.0,0.0,0.0,0.0,0.0,0.0,0.0,0.0,0.0,0.0,4.519,4.611,4.576,4.7627,4.8447,0.0,0.0,0.0,0.0,0.0,0.0,5.1508,5.2254,5.309,5.3962,5.4981,5.5889,5.6752,5.7171,5.7887,5.8905,5.849,5.8593,5.9209,5.9014,5.895,5.8997,5.8997,5.948,6.0086,5.8193,5.7313,5.7138,5.6985,5.6888,5.6888,5.6888,5.6888,5.7004,0.0,0.0,0.0,0.0,0.0,0.0,0.0,0.0,0.0,0.0,0.0,4.0898,4.0907,4.1751,4.2649,4.3467,4.3583,4.385,4.4444,4.2959,4.1932,4.1629,4.0828,4.0669,4.122,4.2067,4.2106,4.1304,4.1359,4.1029,4.0262,4.0024,3.9823,3.9781,3.9861,3.9584,3.908,3.8273,3.8528,3.9396,3.865,0.0,0.0,0.0,0.0,0.0,0.0,0.0,0.0,0.0,0.0,0.0,0.0,0.0,0.0,0.0,0.0,0.0,0.0,0.0,0.0,0.0,0.0,0.0,0.0,0.0,0.0,0.0,0.0,0.0,0.0,0.0,0.0,0.0,0.0,0.0,0.0,0.0,0.0,4.8221,4.973,0.0,0.0,0.0,0.0,5.1522,5.287,5.3798,5.4025,5.5363,5.6168,5.6216,5.7016,5.8234,5.987,5.9109,5.9498,6.1133,5.9536,5.9642,6.1126,6.0365,6.101,6.2738,6.2738,6.2847,6.2911,6.0201,5.9676,6.0496,5.965,5.9342,5.9342,5.9342,5.9342,5.9457,0.0,0.0,0.0,0.0,0.0,0.0,0.0,0.0,0.0,4.148,4.1651,4.1898,4.246,4.338,4.409,4.4425,4.4889,4.5016,4.4744,4.344,4.2686,4.2656,4.1656,4.1512,4.2373,4.2731,4.2727,4.2462,4.2514,4.2326,4.1951,4.1858,4.178,4.1739,4.1698,4.1648,4.153,4.0138,3.9496,3.9458,3.9219,3.8665,0.0,0.0,0.0,0.0,0.0,0.0,0.0,0.0,0.0,0.0,0.0,0.0,0.0,0.0,0.0,0.0,0.0,0.0,0.0,0.0,0.0,0.0,0.0,0.0,0.0,0.0,0.0,0.0,0.0,0.0,0.0,0.0,0.0,0.0,0.0,0.0,0.0,4.9951,5.2416,0.0,5.2639,5.3807,5.4766,5.5078,5.6107,5.6918,5.7379,5.8029,5.8731,5.952,6.0008,6.0695,6.169,6.1385,6.1538,6.2147,6.1538,6.1667,6.2357,6.2118,6.2421,6.322,6.3796,6.4385,6.4936,6.4526,6.3589,6.2435,6.2666,6.2781,6.2858,6.3397,6.3652,6.3738,0.0,0.0,0.0,0.0,0.0,0.0,0.0,0.0,4.1312,4.1892,4.2276,4.2781,4.3363,4.4292,4.4883,4.4884,4.558,4.5745,4.5191,4.415,4.3559,4.3559,4.2825,4.2754,4.3487,4.3759,4.3775,4.3512,4.3582,4.3397,4.2975,4.2885,4.2867,4.2905,4.2776,4.2831,4.298,4.1793,4.106,4.0732,4.0804,4.0345,3.9645,0.0,0.0,0.0,0.0,0.0,0.0,0.0,0.0,0.0,0.0,0.0,0.0,0.0,0.0,0.0,0.0,0.0,0.0,0.0,0.0,0.0,0.0,0.0,0.0,0.0,0.0,0.0,0.0,0.0,0.0,0.0,0.0,0.0,0.0,5.0637,5.2419,5.1585,5.4465,5.613,5.5096,5.6805,5.8054,5.8325,5.9425,6.0227,6.0622,6.0781,6.1233,6.2049,6.2195,6.2643,6.335,6.3044,6.3044,6.335,6.3044,6.3291,6.4065,6.4065,6.4424,6.5125,6.5702,6.628,6.6858,6.7754,6.7123,6.5581,6.5842,6.5933,6.6049,6.6935,6.7268,6.7393,0.0,0.0,0.0,0.0,0.0,0.0,0.0,4.1384,4.1899,4.1991,4.2833,4.3441,4.3479,4.437,4.4908,4.4841,4.5531,4.5958,4.5906,4.508,4.4481,4.4295,4.4282,4.4333,4.4461,4.5278,4.5332,4.4559,4.4601,4.4227,4.3376,4.3202,4.3149,4.3297,4.3065,4.3057,4.3195,4.3178,4.3269,4.3376,4.34,4.2915,4.2151,0.0,0.0,0.0,0.0,0.0,0.0,0.0,0.0,0.0,0.0,0.0,0.0,0.0,0.0,0.0,0.0,0.0,0.0,0.0,0.0,0.0,0.0,0.0,0.0,0.0,0.0,0.0,0.0,0.0,0.0,0.0,0.0,0.0,4.9621,5.205,5.3836,5.3245,5.5951,5.7634,5.7203,5.9419,6.0927,6.1074,6.2579,6.3505,6.3505,6.3505,6.3505,6.3544,6.3544,6.4007,6.4855,6.4045,6.4084,6.4894,6.4045,6.4547,6.6167,6.6167,6.7055,6.8636,6.8675,6.8675,6.8791,6.9663,7.0042,7.0015,6.9092,6.8737,6.8814,6.9702,7.0049,7.0328,0.0,0.0,0.0,0.0,0.0,0.0,0.0,4.1798,4.2405,4.3641,4.4172,4.4647,4.522,4.5632,4.5825,4.5763,4.5841,4.5941,4.5968,4.4969,4.4366,4.4289,4.5037,4.5441,4.5505,4.5809,4.582,4.5517,4.5544,4.5389,4.5104,4.5008,4.5037,4.5183,4.5117,4.5105,4.5207,4.5079,4.5117,4.5066,4.3828,4.3233,4.3059,0.0,0.0,0.0,0.0,0.0,0.0,0.0,0.0,0.0,0.0,0.0,0.0,0.0,0.0,0.0,0.0,0.0,0.0,0.0,0.0,0.0,0.0,0.0,0.0,0.0,0.0,0.0,0.0,0.0,0.0,0.0,5.2088,5.3589,5.2982,5.5263,5.7143,5.7503,5.9409,6.0661,6.0627,6.1843,6.266,6.2811,6.3235,6.3505,6.3505,6.3505,6.3775,6.4393,6.5048,6.5781,6.6592,6.6977,6.7325,6.7556,6.7286,6.744,6.7903,6.7903,6.8482,6.9562,7.0141,7.0758,7.1439,7.2391,7.2805,7.2749,7.1794,7.1507,7.1668,7.2559,7.3297,7.413,0.0,0.0,0.0,0.0,0.0,0.0,0.0,4.2085,4.295,4.3969,4.4821,4.5511,4.5987,4.6137,4.6157,4.6099,4.6037,4.5947,4.5917,4.5263,4.4932,4.5026,4.5595,4.5936,4.5968,4.6056,4.6056,4.5968,4.5997,4.5964,4.5929,4.5879,4.5929,4.6014,4.6014,4.6046,4.6076,4.5929,4.588,4.5764,4.4689,4.4302,4.4408,4.4459,4.4395,4.4305,4.4395,4.4769,4.5142,4.4686,0.0,0.0,0.0,0.0,0.0,0.0,0.0,0.0,0.0,0.0,0.0,0.0,0.0,0.0,0.0,0.0,0.0,0.0,0.0,0.0,0.0,0.0,0.0,0.0,5.4568,5.6425,5.7058,5.8363,5.9634,6.0481,6.1704,6.2512,6.2712,6.3483,6.4045,6.411,6.444,6.4634,6.4634,6.4981,6.5406,6.5908,6.6797,6.7476,6.7982,6.8485,6.8738,6.878,6.878,6.9149,6.9845,6.9845,7.0542,7.1743,7.2169,7.2633,7.3214,7.4538,7.5118,0.0,0.0,0.0,0.0,0.0,7.6238,7.7198,0.0,0.0,0.0,0.0,0.0,0.0,0.0,4.2335,4.3481,4.3617,4.5092,4.6107,4.6105,4.6181,4.6176,4.6115,4.6107,4.6008,4.5841,4.5775,4.5829,4.6007,4.5958,4.5988,4.6091,4.6091,4.6091,4.6091,4.613,4.6122,4.6122,4.6122,4.613,4.6185,4.6193,4.6201,4.6169,4.6056,4.5917,4.5802,4.5658,4.5742,4.592,4.595,4.5935,4.5997,4.5982,4.6201,4.6383,4.6317,0.0,0.0,0.0,0.0,0.0,0.0,0.0,0.0,0.0,0.0,0.0,0.0,0.0,0.0,0.0,0.0,0.0,0.0,0.0,0.0,0.0,0.0,0.0,0.0,5.735,5.9511,6.1273,6.1386,6.1576,6.2453,6.3162,6.3643,6.3826,6.4715,6.5257,6.5257,6.6031,6.6495,6.6495,6.723,0.0,0.0,0.0,6.8975,6.9049,6.9166,6.9295,6.9438,6.9438,7.0293,7.1902,7.1902,7.2835,7.4506,7.4428,7.4489,7.4817,7.6381,7.7142,7.7248,7.6241,7.586,7.6054,7.7719,7.8815,7.952,0.0,0.0,0.0,0.0,0.0,0.0,0.0,4.2797,4.3739,4.4455,4.5456,4.6137,4.6158,4.6225,4.6214,4.6123,4.6052,4.5998,4.5866,4.5925,4.5988,4.6091,4.6137,4.6164,4.617,4.617,4.617,4.617,4.6183,4.6169,4.6169,4.613,4.613,4.6185,4.6208,4.6154,4.6122,4.6027,4.5929,4.5814,4.5712,4.6001,4.6529,4.6689,4.7147,4.7742,4.7844,4.8314,4.8822,4.8154,4.8472,4.8963,4.8312,4.8209,0.0,0.0,0.0,0.0,0.0,0.0,0.0,0.0,0.0,0.0,0.0,0.0,0.0,0.0,0.0,0.0,0.0,0.0,0.0,5.7546,5.956,6.1591,6.3923,6.4193,6.3999,6.3516,6.4193,6.4734,6.4754,6.6108,6.7036,6.7036,6.781,6.8313,6.8313,6.8468,6.8568,6.8622,6.9476,6.9994,7.012,7.0742,7.1457,7.2132,0.0,0.0,7.3688,7.3688,7.4661,7.6295,7.6295,7.7034,7.8333,7.878,7.9427,8.0027,7.9159,7.8798,7.8915,7.9968,8.0456,8.0796,0.0,0.0,0.0,0.0,0.0,0.0,0.0,4.3656,4.4358,4.4809,4.5594,4.6189,4.6239,4.6285,4.628,4.6192,4.6118,4.6052,4.6029,4.6059,4.6086,4.6147,4.6167,4.6214,4.6206,4.6206,4.6206,4.6197,4.6187,4.6215,4.6203,4.619,4.6183,4.619,4.6183,4.6169,4.6146,4.6007,4.5854,4.5733,4.5712,4.6369,4.7376,4.7507,4.7829,4.8309,4.9247,4.9837,5.0171,4.9804,5.0273,5.0856,5.0025,5.015,5.0399,0.0,0.0,0.0,0.0,0.0,0.0,0.0,0.0,0.0,0.0,0.0,0.0,0.0,0.0,5.3081,5.4826,0.0,5.777,6.0328,6.1769,6.3153,6.4864,6.5798,6.6129,6.5644,6.5992,6.6417,6.6843,6.7655,6.8158,6.8158,6.8545,6.8819,6.8859,6.9246,6.9553,6.9648,7.0891,7.1612,7.1731,7.2588,7.3235,7.3687,7.3687,7.4155,7.5023,7.5452,7.6348,7.7584,7.8024,7.8687,7.9505,8.0446,8.1382,8.2187,8.2187,8.1945,8.1585,8.2054,8.2499,8.2983,0.0,0.0,0.0,0.0,0.0,0.0,0.0,0.0,4.4882,4.4883,4.5664,4.6171,4.6054,4.6053,4.6055,4.6046,4.5941,4.5972,4.6156,4.6117,4.6119,4.6205,4.6205,4.6202,4.6231,4.6195,4.6192,4.6222,4.6225,4.6218,4.6206,4.6206,4.6201,4.6201,4.6215,4.6274,4.641,4.623,4.6177,4.6211,4.6229,4.6844,4.7853,4.8081,4.8369,4.8887,5.0236,5.0808,5.0874,5.0874,5.1454,5.2073,5.137,5.1823,5.2382,5.0907,5.0945,0.0,0.0,0.0,0.0,0.0,0.0,0.0,0.0,5.117,5.1499,5.3455,5.4567,5.5873,5.8124,5.917,6.0486,6.2929,6.3884,6.4676,6.5576,6.6933,6.789,6.8006,6.789,6.8024,6.8759,6.8953,6.9069,6.9051,6.9206,6.9363,6.9428,7.0261,7.0775,7.094,7.2419,7.3274,7.3368,7.407,7.4528,7.4757,7.4913,7.546,7.6318,7.7215,7.8035,7.8893,7.9908,8.0376,8.0493,8.207,8.31,8.3816,8.4519,8.4473,8.399,8.3834,8.4193,8.4831,0.0,0.0,0.0,0.0,0.0,0.0,0.0,0.0,0.0,4.4899,4.5675,4.5922,4.5203,4.5164,4.5102,4.5078,4.5024,4.5336,4.6054,4.6093,4.6131,4.6202,4.6202,4.6246,4.6289,4.6249,4.6249,4.6289,4.6211,4.6211,4.6285,4.6241,4.62,4.62,4.6186,4.6587,4.7249,4.7126,4.7466,4.8102,4.8111,4.7734,4.7298,4.8075,4.9257,5.0516,5.0797,5.0841,5.0791,5.0791,5.1408,5.2121,5.2059,5.2743,5.3521,5.3327,5.2863,5.2386,5.2036,5.1629,5.1424,5.2017,5.1619,5.2056,0.0,5.5662,5.5294,5.779,5.9033,5.9998,6.1056,6.1949,6.3104,6.4848,6.5756,6.653,6.7301,6.8191,6.9052,6.9808,6.9188,6.88,6.8859,6.9556,6.9983,7.0019,7.0774,7.1215,7.1301,7.2132,7.2653,7.2784,7.3719,7.4264,7.4357,7.4435,7.487,7.5651,7.6432,7.7251,7.8149,7.9008,7.9867,8.0804,8.2365,8.3068,8.3146,8.4122,8.4558,8.4675,8.4753,8.5221,8.5729,8.4941,8.4714,8.4909,0.0,0.0,0.0,0.0,0.0,0.0,0.0,0.0,0.0,0.0,4.593,4.6069,4.5747,4.5694,4.5483,4.4952,4.535,4.5779,4.6069,4.6089,4.6108,4.6086,4.6086,4.6103,4.6171,4.6162,4.6175,4.6241,4.62,4.6479,4.707,4.703,4.7265,4.7694,4.7712,4.7884,4.8215,4.8088,4.82,4.8538,4.8502,4.858,4.872,4.9168,5.0072,5.1042,5.0442,5.0555,0.0,5.0929,5.1438,5.2099,5.2111,5.2845,5.3596,5.3091,5.3517,5.4195,5.4616,5.3797,5.3136,5.4445,5.4539,5.4872,5.7232,5.7205,5.7289,5.9402,6.051,6.1577,6.2947,6.4306,6.5585,6.6795,6.7649,6.8261,6.8573,6.9292,6.9911,7.0261,7.0432,7.046,7.0464,7.0774,7.0965,7.1023,7.1801,7.2366,7.2468,7.3286,7.3836,7.3907,7.4765,7.5482,7.6008,7.6516,7.7218,7.8077,7.8429,7.8819,7.917,8.0068,8.12,8.2489,8.3191,8.3777,8.4323,8.5182,8.5573,8.5612,8.6119,8.6861,8.7446,8.6041,8.5885,8.6353,0.0,0.0,0.0,0.0,0.0,0.0,0.0,0.0,0.0,0.0,4.5822,4.578,4.5796,4.5573,4.5289,4.4904,4.546,4.588,4.6066,4.6052,4.6008,4.5959,4.5939,4.5969,4.6029,4.6052,4.6084,4.6103,4.6326,4.6826,4.7567,4.7762,4.8194,4.8783,4.8782,4.8922,4.9153,4.9036,4.9129,4.9361,4.9333,4.9547,4.9893,5.0004,5.0405,5.0888,5.0403,5.0553,5.1011,5.0995,5.1502,5.2133,5.2144,5.2845,5.3596,5.3252,5.4129,5.5264,5.5606,5.517,5.4892,5.6127,5.6848,5.7456,5.8328,5.8523,5.8996,6.0764,6.1818,6.2954,6.4717,6.6192,6.7438,6.8307,6.9137,6.966,6.9645,7.0325,7.0793,7.0793,7.1278,7.1743,7.2004,7.1972,7.1972,7.203,7.2822,7.3364,7.3484,7.4312,7.4913,7.5227,7.6047,7.6945,7.7804,7.8429,7.9092,7.9717,7.9951,8.0068,8.0107,8.12,8.2489,8.3855,8.4128,8.4597,8.5221,8.6119,8.6588,8.6861,8.7531,8.8273,8.8897,8.7654,8.7576,8.8117,0.0,0.0,0.0,0.0,0.0,0.0,0.0,0.0,0.0,0.0,0.0,0.0,0.0,4.4035,4.3898,4.4724,4.482,4.5152,4.5936,4.5866,4.5841,4.5917,4.5854,4.5841,4.588,4.5914,4.5914,4.589,4.6678,4.719,4.74,4.8218,4.8638,4.8806,4.8783,4.9258,5.0038,4.9919,5.0407,5.1288,5.1174,5.0694,5.0109,5.0109,5.0097,5.0221,5.1011,5.1203,5.1103,5.1037,5.1547,5.2198,5.2278,5.29,5.3793,5.483,5.5147,5.5014,5.4216,5.5171,5.643,5.647,5.7768,5.9261,6.0132,6.0331,6.0803,6.2566,6.3623,6.4756,6.6513,6.749,6.8349,6.9208,7.005,7.0543,7.0543,7.1253,7.1768,7.1768,7.1768,7.2135,7.3075,7.2974,7.2899,7.3018,7.3846,7.4381,7.4441,7.5266,7.6164,7.6984,7.7882,7.8741,7.96,7.9639,7.9678,7.9717,8.0576,8.0966,8.1005,8.2684,8.3894,8.4792,8.5651,8.6041,8.6119,8.7017,8.7876,8.8618,8.8636,8.9188,8.993,8.9904,8.99,8.993,0.0,0.0,0.0,0.0,0.0,0.0,0.0,0.0,0.0,0.0,0.0,0.0,0.0,0.0,0.0,0.0,4.4962,4.5427,4.5708,4.5603,4.5571,4.5688,4.5577,4.5847,4.6484,4.6507,4.6808,4.7439,4.7748,4.8257,4.8921,4.9284,4.9798,5.0392,5.0434,5.0925,5.1752,5.1714,5.2218,5.3005,5.2373,5.1977,5.1706,5.1167,5.0967,5.0988,0.0,5.1278,5.1152,5.1147,5.1307,5.1528,5.1564,5.2191,5.3215,5.4757,5.5184,5.5405,5.6269,5.6904,5.7773,5.9529,6.0397,6.1069,6.1932,6.256,6.2998,6.3002,6.3707,6.4488,6.5077,6.6795,6.8241,6.8553,7.0234,7.1719,7.2305,7.2537,7.2652,7.2652,7.3146,7.3377,7.316,7.3114,7.3392,7.4062,7.4861,7.534,7.5347,7.6718,7.7616,7.7957,7.8816,7.9668,8.0537,8.0576,8.0849,8.1435,8.2254,8.2957,8.3543,8.4128,8.4831,8.569,8.5963,8.675,8.7855,8.8128,8.8797,8.9549,8.9553,9.01,9.0842,9.0845,9.1239,9.1552,0.0,0.0,0.0,0.0,0.0,0.0,0.0,0.0,0.0,0.0,0.0,0.0,0.0,0.0,0.0,0.0,0.0,4.547,4.5488,4.5361,4.5343,4.5473,4.54,4.5629,4.6244,4.6244,4.657,4.7216,4.7829,4.8491,4.9132,4.986,5.053,5.1123,5.1179,5.1737,5.2585,5.2613,5.2928,5.3435,5.2851,5.2458,5.2105,5.16,5.1402,0.0,5.1389,5.1347,5.1278,5.122,5.1249,5.1288,5.1609,5.2542,5.3798,5.5223,5.5884,5.6454,5.7863,5.8726,5.9592,6.1271,6.2169,6.2794,6.3344,6.3896,6.4213,6.3983,6.414,6.4491,6.5117,6.6601,6.7851,6.8164,7.0076,7.183,7.2681,7.2997,7.3231,7.3533,7.4015,7.4253,7.4051,7.4062,7.4335,7.4999,7.6054,7.6678,7.6678,7.8001,7.894,7.9296,7.9843,8.0579,8.1451,8.1764,8.2389,8.3248,8.3711,8.4414,8.5278,8.5273,8.5897,8.7035,8.7035,8.7821,8.9158,8.9158,8.967,9.0455,9.0458,9.1008,9.175,9.1752,9.2106,9.2459,0.0,0.0,0.0,0.0,0.0,0.0,0.0,0.0,0.0,0.0,0.0,0.0,0.0,0.0,0.0,0.0,0.0,0.0,4.5263,4.5159,4.5159,4.5263,4.5197,4.5252,4.5354,4.5354,4.5413,4.5513,4.712,4.7951,4.8102,4.9776,5.0687,5.0882,5.0975,5.1607,5.2545,5.2563,5.265,5.2765,5.2734,5.2187,5.1444,5.1406,5.1403,5.1428,5.1467,5.1488,5.1453,5.1374,5.1445,5.1639,5.2504,5.3969,5.5483,5.6397,5.7242,5.812,5.8983,6.0467,6.1796,6.1875,6.3121,6.4362,6.4372,6.4374,6.4648,6.539,6.4883,6.4805,6.6406,6.6797,6.7187,6.8008,6.9609,7.1053,7.1928,7.2744,7.3549,7.439,7.4498,7.4858,7.5616,7.5772,7.584,7.5919,7.7407,7.8305,7.8344,7.92,8.003,8.0859,8.1054,8.1522,8.2334,8.3229,8.4089,8.4948,8.4901,8.537,8.6237,8.6229,8.7167,8.8779,8.8775,8.9247,9.0067,9.0067,9.0572,9.1356,9.1362,9.1871,9.2615,9.2617,9.2617,9.2617,0.0,0.0,0.0,0.0,0.0,0.0,0.0,0.0,0.0,0.0,0.0,0.0,0.0,0.0,0.0,0.0,0.0,0.0,4.4919,4.4838,4.4862,4.5094,4.5019,4.5314,4.6031,4.6077,4.6428,4.706,4.7525,4.7783,4.789,4.8548,4.89,4.9025,4.9782,5.0695,5.1654,5.2259,5.2952,5.3526,5.2956,5.2574,5.2304,5.164,5.1398,5.1496,5.212,5.2351,5.2377,5.235,5.3181,5.4372,5.5248,5.6273,5.7298,5.816,5.9062,5.9921,6.0738,6.1752,6.2924,6.4213,6.4834,6.5102,6.5137,6.5633,6.578,6.4789,6.4362,6.4172,6.4023,6.5586,6.6953,6.7187,6.9724,7.2173,7.3576,7.3938,7.4402,7.521,7.5859,7.6093,7.5677,7.6768,7.752,7.7579,7.8026,7.8597,7.9221,8.0046,8.0601,8.0894,8.2164,8.2961,8.3202,8.4094,8.4987,8.5807,8.5765,8.6585,8.8033,8.8033,8.8625,8.9608,8.9641,9.0114,9.0898,9.0935,9.1481,9.2265,9.2265,9.2382,9.2617,9.2617,9.2617,9.2695,0.0,0.0,0.0,0.0,0.0,0.0,0.0,0.0,0.0,0.0,0.0,0.0,0.0,0.0,0.0,0.0,0.0,0.0,0.0,4.4595,4.4685,4.4814,4.4802,4.5092,4.5659,4.5683,4.596,4.6449,4.6891,4.7129,4.7198,4.7778,4.8105,4.8265,4.9276,5.0331,5.1304,5.2161,5.2869,0.0,0.0,5.2459,5.207,5.1599,5.1633,5.2013,5.2521,5.3425,5.4445,5.4796,5.5308,5.5975,5.7265,5.8241,5.9178,6.0427,6.1123,6.1697,6.251,6.3369,6.4267,6.5234,6.5736,6.5853,6.549,6.5776,6.5776,6.4458,6.3911,6.349,6.3082,6.4802,6.6325,6.6325,6.9213,7.2006,7.3618,7.4168,7.4817,7.5969,7.6521,7.677,7.6708,7.7564,7.8435,7.9258,7.9364,7.9606,8.0085,8.0908,8.1555,8.1976,8.2936,8.3833,8.4645,8.5156,8.5859,8.6679,8.7031,8.7694,8.867,8.9061,8.9684,9.0458,0.0,9.0969,9.1731,9.1783,9.2101,9.2572,9.2572,9.2576,9.2656,9.3004,9.3117,9.3231,0.0,0.0,0.0,0.0,0.0,0.0,0.0,0.0,0.0,0.0,0.0,0.0,0.0,0.0,0.0,0.0,0.0,0.0,0.0,0.0,4.4496,4.4551,4.4632,4.4712,4.4764,4.4789,4.4865,4.4986,4.5746,4.6136,4.6268,4.7171,4.7721,4.8007,4.9079,5.0103,5.1074,5.2032,5.2464,5.2524,5.2538,5.207,5.1405,0.0,5.1945,5.2726,5.2962,5.453,5.6639,5.7645,5.76,5.7447,5.9081,6.0214,6.119,6.2635,6.3081,6.3247,6.4106,6.4925,6.5503,6.5541,6.612,6.6453,6.5558,6.5377,6.5104,6.419,6.3416,6.2875,6.2833,6.4245,6.5498,6.5732,6.8466,7.1178,7.2988,7.3904,7.4949,7.6493,7.6786,7.7192,7.7982,7.8293,7.9065,8.0575,8.0839,8.096,8.0961,8.178,8.2713,8.3713,8.3752,8.4536,8.6233,8.6389,8.6819,8.7561,8.8368,8.8826,8.8969,8.9724,9.0537,9.1375,9.1343,9.1765,9.2412,9.2373,9.2436,9.2507,9.2463,9.2599,9.2809,9.3522,9.3817,9.4044,0.0,0.0,0.0,0.0,0.0,0.0,0.0,0.0,0.0,0.0,4.2543,4.3155,0.0,0.0,0.0,0.0,0.0,0.0,0.0,0.0,0.0,4.4325,4.4468,4.4524,4.4551,4.4659,4.4764,4.484,4.4991,4.519,4.5421,4.5704,4.6282,4.7174,4.823,4.9243,5.0205,5.1122,5.1562,5.1633,5.1637,5.1523,5.1406,5.1405,0.0,0.0,5.4335,5.5545,5.6741,5.828,5.9646,6.0895,6.1927,6.2857,6.3598,6.3897,6.3959,6.4146,6.4978,6.5309,6.56,6.6301,6.6489,6.6309,6.5453,6.5202,6.4706,6.3184,6.2834,6.2625,6.1978,6.3298,6.499,6.6435,6.8349,7.067,7.367,7.4233,7.4898,7.6439,7.7254,7.7758,7.7913,7.9271,8.0297,8.0604,8.1281,8.1726,8.1773,8.2635,8.3858,8.5507,8.5546,8.6042,8.7063,8.7804,8.8234,8.839,8.9249,9.0062,9.0765,9.0867,9.1388,9.2195,9.2149,0.0,9.2412,9.2354,9.2381,9.2502,9.2381,9.2793,9.3456,9.3504,9.3989,9.4706,0.0,0.0,0.0,0.0,0.0,0.0,0.0,0.0,4.1167,4.2787,4.3139,4.3426,0.0,0.0,0.0,0.0,0.0,0.0,0.0,0.0,0.0,0.0,4.4362,4.4411,4.4496,4.4551,4.4659,4.4764,0.0,4.4914,4.5103,4.574,4.632,4.6992,4.8503,4.9459,5.001,5.0933,5.1367,5.1389,5.1396,5.1402,5.1442,0.0,0.0,0.0,5.5411,5.6406,5.731,5.8584,6.013,6.179,6.3116,6.4129,6.4909,6.5367,6.5787,6.6195,6.6613,6.7019,6.745,6.78,6.7525,6.6804,6.5452,6.4765,6.3895,6.2235,6.1979,6.1912,6.1568,6.2937,6.456,6.5847,6.7836,7.0259,7.3133,7.3922,7.4794,7.64,7.7369,7.8049,7.8476,7.9757,8.0728,8.1193,8.2028,8.2587,8.2692,8.3914,8.501,8.5884,8.6767,8.7465,8.7877,8.8735,8.9164,8.9164,9.0066,9.0677,9.1106,9.1483,9.1885,9.2284,9.226,9.2274,9.2299,9.2245,9.2288,9.23,9.221,9.2444,9.2938,9.3749,9.434,9.4851,0.0,0.0,0.0,0.0,0.0,0.0,0.0,4.1329,4.1857,4.361,4.3697,4.3704,4.3889,4.3971,4.3986,0.0,0.0,0.0,0.0,0.0,0.0,0.0,0.0,0.0,4.4411,0.0,0.0,4.4659,4.4764,0.0,0.0,0.0,0.0,0.0,4.9097,4.9964,5.0295,5.105,5.1401,0.0,0.0,5.1499,5.1776,0.0,0.0,0.0,0.0,5.6831,5.7537,5.8627,5.996,6.1534,6.3253,6.4548,6.5522,6.6185,6.7108,6.7903,6.7903,6.8527,6.9148,6.9049,6.8357,6.7299,6.5485,6.4346,6.3222,6.1578,6.1283,6.1313,6.1357,6.2522,6.387,6.5115,6.7139,6.9551,7.2413,7.3523,7.4769,7.663,7.7638,7.8452,7.9266,8.0221,8.1056,8.1716,8.2747,8.3523,8.3804,8.5088,8.5944,8.635,8.7697,8.8506,8.8662,8.9558,8.9986,8.9986,9.0859,9.1253,9.1292,9.1897,9.2208,9.2208,9.219,9.2171,9.2171,9.2151,9.2113,9.2091,9.2054,9.2169,9.2494,9.3804,9.4402,9.4729,0.0,0.0,0.0,0.0,0.0,0.0,0.0,4.1135,4.1695,4.3103,4.3461,4.3597,4.3597,4.3828,4.3986,0.0,0.0,0.0,0.0,0.0,0.0,0.0,0.0,0.0,0.0,0.0,0.0,4.4496,4.4712,0.0,0.0,0.0,0.0,0.0,0.0,5.0242,5.1031,5.1296,0.0,0.0,0.0,0.0,0.0,0.0,0.0,0.0,0.0,5.6358,5.6669,5.8348,5.9503,6.0553,6.234,6.4025,6.531,6.5426,6.6581,6.7905,6.7905,6.8433,6.9034,6.8995,6.8312,6.7174,6.5431,6.4348,6.3226,6.1485,6.1203,6.1283,6.1298,6.1499,6.2457,6.492,6.6114,6.8175,7.2207,7.3509,7.4887,7.7334,7.8402,7.9315,8.009,8.1049,8.1635,8.1713,8.3268,8.4592,8.5503,8.5715,8.6549,8.8101,8.8334,8.8762,8.9579,9.0436,9.0864,9.0864,9.1681,9.2109,9.2109,9.2171,9.2191,9.2191,9.2049,9.2053,0.0,9.1967,9.1967,9.1977,9.1944,9.2402,9.31,9.322,9.371,9.4408,0.0,0.0,0.0,0.0,0.0,0.0,0.0,4.1071,4.1662,4.3379,4.3563,4.3597,4.3828,4.3923,4.3986,0.0,0.0,0.0,0.0,0.0,0.0,0.0,0.0,0.0,0.0,0.0,4.4528,4.5103,4.5348,0.0,0.0,0.0,0.0,0.0,0.0,5.066,5.1063,5.1131,0.0,0.0,0.0,0.0,0.0,0.0,0.0,0.0,0.0,0.0,5.708,5.7765,5.893,6.0172,6.0886,6.2253,6.3767,6.4947,6.6436,6.7814,6.8404,6.9451,7.039,7.0409,6.9014,6.7271,6.5993,6.4271,6.2704,6.2046,6.1929,6.1983,6.1983,6.1978,6.2516,6.4084,6.5054,6.6743,6.9924,7.1551,7.3313,7.5817,7.7388,7.8805,8.0097,8.1097,8.2073,8.3126,8.4311,8.5441,8.6418,8.7001,8.737,8.7545,8.8556,8.9217,8.9566,9.0422,9.1121,9.1666,9.1977,9.2132,9.2132,9.211,9.2088,9.2088,9.2542,9.2736,0.0,9.3255,9.3114,9.2712,9.3181,9.3245,9.3192,9.4171,9.479,9.5138,0.0,0.0,0.0,0.0,0.0,3.9711,4.1077,4.1323,4.1985,4.3647,4.3734,4.3734,4.3961,4.3992,4.4098,4.4358,0.0,0.0,0.0,0.0,0.0,0.0,0.0,0.0,0.0,0.0,4.4556,4.5469,4.5772,4.6542,0.0,0.0,4.9393,4.9907,0.0,0.0,0.0,0.0,0.0,0.0,0.0,0.0,0.0,0.0,0.0,0.0,0.0,0.0,0.0,0.0,0.0,5.9916,6.0166,6.1059,6.2297,6.3953,6.5829,6.7581,6.8276,6.9827,7.1269,7.1313,6.9438,6.7309,6.6417,6.4445,6.2704,6.2472,6.2627,6.2781,6.2781,6.2781,6.3052,6.3942,6.4793,6.6147,6.8468,7.0247,7.2142,7.4463,7.6049,7.7713,7.9647,8.1127,8.2569,8.4072,8.4964,8.5995,8.7187,8.789,8.7989,8.7409,8.8748,8.9603,8.9836,9.0707,9.1445,9.2066,9.2066,9.2066,9.2044,9.1983,9.196,9.2037,9.2818,9.3181,0.0,9.4008,9.3955,9.3502,9.4044,9.39,9.3495,9.4694,9.512,9.5197,0.0,0.0,0.0,0.0,0.0,0.0,0.0,4.1931,4.2775,4.3693,4.3869,4.3897,4.3897,4.3961,4.4358,4.5212,0.0,0.0,0.0,0.0,0.0,0.0,0.0,0.0,0.0,0.0,4.4463,4.5413,4.58,4.6871,4.8617,4.8984,4.9677,5.0584,0.0,0.0,0.0,0.0,0.0,0.0,0.0,0.0,0.0,0.0,0.0,0.0,0.0,0.0,0.0,0.0,0.0,0.0,0.0,6.0882,6.1116,6.2143,6.4693,6.7209,6.7232,6.9147,7.1201,7.1201,6.9353,6.7268,6.6417,6.4909,6.3439,6.2588,6.3091,6.3671,6.3671,6.3671,6.398,6.4831,6.5644,6.6804,6.8545,7.0247,7.1949,7.369,7.4618,7.6165,7.8757,8.131,8.3153,8.404,8.4892,8.6195,8.7972,8.8088,8.8157,8.8302,8.9016,8.9809,9.0663,9.1486,9.1888,9.1888,9.1888,9.1888,9.1888,9.1888,9.1888,9.1965,9.2742,9.3103,0.0,9.391,9.4191,9.4191,9.4191,9.4191,9.4191,9.4191,9.4191,9.4191,0.0,0.0,0.0,0.0,0.0,0.0,0.0,4.1838,4.2713,4.366,4.3837,4.3902,4.3961,4.3992,4.4358,4.5212,0.0,0.0,0.0,0.0,0.0,0.0,0.0,0.0,0.0,0.0,4.4692,4.6136,4.7145,4.8521,5.0241,5.1266,5.1522,5.1147,5.1178,5.0811,0.0,0.0,0.0,0.0,0.0,0.0,5.4296,0.0,0.0,0.0,0.0,0.0,0.0,0.0,0.0,0.0,0.0,0.0,0.0,6.1065,6.2743,6.4614,6.5288,6.6409,6.7552,6.8231,6.7016,6.5732,6.5981,6.4848,6.3787,6.4097,6.4406,6.4599,6.4599,6.4599,6.487,6.5682,6.6031,6.6804,6.8545,7.0247,7.2142,7.4463,7.8061,8.0923,8.2355,8.3708,8.4598,8.4895,8.5707,8.6739,8.7977,8.8016,8.8064,8.8135,8.891,8.9469,8.974,9.057,9.1306,9.1927,9.2508,9.2469,9.1927,9.2458,9.2393,9.189,9.2661,9.333,9.391,9.4733,9.5081,9.5158,9.5739,9.5623,9.5158,9.5739,9.5971,9.5971,0.0,0.0,0.0,0.0,0.0,0.0,0.0,4.1812,4.2904,4.3159,4.3586,4.3865,4.3961,4.3955,4.4469,4.5658,0.0,0.0,0.0,0.0,0.0,0.0,0.0,0.0,0.0,4.4321,4.5287,4.6958,4.8152,4.9604,5.1254,5.2199,5.2296,5.1684,5.1684,5.1353,0.0,0.0,0.0,0.0,0.0,0.0,5.4485,0.0,0.0,0.0,0.0,0.0,0.0,0.0,0.0,0.0,0.0,0.0,0.0,0.0,6.118,6.2383,6.4013,6.5214,6.6298,6.716,6.6307,6.5373,6.5851,6.5037,6.4309,6.4749,6.5136,6.5308,6.5241,6.5286,6.5522,6.6024,6.635,6.7067,6.8458,7.012,7.2306,7.5237,7.9299,8.2161,8.3012,8.4443,8.5294,8.5294,8.6416,8.7487,8.8404,8.8442,8.8585,8.8945,8.9474,8.959,8.928,9.0417,9.1463,9.2316,9.2548,9.2664,9.2781,9.2611,9.2468,9.2274,9.3098,9.3727,0.0,9.5506,9.5971,9.6048,9.659,9.6474,9.6048,9.659,9.6753,9.6753,0.0,0.0,0.0,0.0,0.0,0.0,0.0,0.0,0.0,4.2331,4.3152,4.3865,4.3897,4.3961,4.4655,0.0,0.0,0.0,0.0,0.0,0.0,0.0,0.0,0.0,0.0,4.4804,4.603,4.7664,4.8824,5.0226,5.1728,5.2102,5.2258,5.2251,5.2251,5.2205,0.0,0.0,0.0,0.0,0.0,0.0,0.0,0.0,0.0,0.0,0.0,0.0,0.0,0.0,0.0,0.0,0.0,0.0,0.0,0.0,0.0,0.0,0.0,6.5108,6.6613,6.7431,6.6671,6.5779,6.5856,6.5457,0.0,6.4748,6.5341,6.5832,6.5663,6.5731,6.5895,6.5933,6.6627,6.7512,6.8511,7.0234,7.2714,7.6234,7.8887,8.0782,8.1697,8.3979,8.5372,8.5372,8.6958,8.8273,8.9163,8.924,8.9627,9.0362,9.0532,9.0172,8.9281,9.0892,9.2141,9.2992,9.2257,9.2683,9.4153,9.2644,9.2373,0.0,9.3882,9.423,9.4423,9.6048,9.6744,9.6783,9.6783,9.6783,9.6783,9.6783,9.6761,9.6699,0.0,0.0,0.0,0.0,0.0,0.0,0.0,0.0,0.0,0.0,4.3051,4.3701,4.3961,4.3986,4.4655,0.0,0.0,0.0,0.0,0.0,0.0,0.0,0.0,0.0,0.0,4.4517,4.5338,4.7379,4.9314,5.09,5.2139,5.3414,5.3596,5.2799,5.2799,5.2289,0.0,0.0,0.0,0.0,0.0,0.0,0.0,0.0,0.0,0.0,5.6588,5.7263,0.0,0.0,0.0,0.0,0.0,0.0,0.0,0.0,6.0099,6.0365,6.1597,0.0,6.3009,6.4464,6.4657,6.4709,0.0,6.5641,6.5587,6.5538,6.5692,6.5756,6.5635,6.5624,6.5882,6.6496,6.7302,6.8377,6.9875,7.3215,7.6417,7.8805,8.1263,8.321,8.4301,8.5565,8.63,8.63,8.7306,8.8273,8.9163,8.9782,9.0207,9.04,9.1086,9.1008,9.0118,9.1174,9.2141,9.2992,9.3418,9.3804,9.4191,9.4462,9.4346,9.3921,9.4114,9.4578,9.5236,9.5623,9.6203,9.6783,9.6783,9.6792,9.6731,9.6731,9.6629,9.6564,0.0,0.0,0.0,0.0,0.0,0.0,0.0,0.0,0.0,0.0,0.0,0.0,0.0,0.0,0.0,0.0,0.0,0.0,0.0,0.0,0.0,0.0,0.0,0.0,4.4847,4.5049,4.6231,4.8421,5.0112,5.1631,5.2938,5.3861,5.394,5.3349,5.3236,0.0,0.0,0.0,0.0,0.0,5.4455,0.0,0.0,0.0,0.0,0.0,5.7408,5.7894,0.0,5.9468,5.9918,5.9982,0.0,0.0,0.0,0.0,6.0013,6.0165,6.1007,6.1533,6.2205,6.3432,6.4203,6.4772,6.5321,6.5569,6.5651,6.5542,6.5542,6.5485,6.5314,6.5681,6.6162,6.6613,6.7998,6.9795,7.186,7.5178,7.8075,8.003,8.2138,8.4042,8.5555,8.6134,8.6616,8.719,8.8002,8.8853,8.9704,9.0555,9.0981,9.0981,9.1445,9.129,9.04,9.1251,9.2335,9.3534,9.3611,9.4269,9.539,9.5042,9.4849,9.481,9.481,9.5042,9.5545,9.5932,9.6366,9.6723,9.6723,9.6692,9.6597,9.6597,9.6564,9.6425,0.0,0.0,0.0,0.0,0.0,0.0,0.0,0.0,0.0,0.0,0.0,0.0,0.0,0.0,0.0,0.0,0.0,0.0,0.0,0.0,0.0,0.0,0.0,4.4121,4.449,4.5801,4.7638,4.9857,5.0898,5.2196,5.368,5.379,5.3817,5.3792,5.3579,5.336,0.0,0.0,0.0,0.0,5.5134,0.0,0.0,0.0,0.0,0.0,0.0,0.0,0.0,5.9454,5.9824,5.9853,5.9853,0.0,0.0,0.0,0.0,0.0,6.0837,6.1852,6.2796,6.3448,6.4343,6.5117,6.515,6.5307,6.5427,6.5182,6.515,6.5123,6.5113,6.5821,6.6488,6.6788,6.8921,7.1436,7.3951,7.6425,7.871,8.0573,8.2294,8.401,8.5742,8.6043,8.6562,8.7698,8.8548,8.9398,9.0209,9.1127,9.162,9.1561,9.1649,9.1301,9.0537,9.1301,9.2528,9.4191,9.3495,9.4462,9.6744,9.5274,9.5004,9.57,0.0,0.0,9.5679,9.6413,9.6661,9.6564,9.6597,9.6564,9.6425,9.6459,9.6463,9.6358,0.0,0.0,0.0,0.0,0.0,0.0,0.0,0.0,0.0,0.0,0.0,0.0,0.0,0.0,0.0,0.0,0.0,0.0,0.0,0.0,0.0,0.0,4.5696,4.559,4.5403,4.6209,4.7901,5.0446,5.115,5.2072,5.3212,5.3653,5.388,5.3872,5.3818,5.3372,5.2725,0.0,0.0,0.0,5.4907,0.0,0.0,0.0,0.0,0.0,0.0,0.0,0.0,5.9351,5.965,5.965,5.965,0.0,0.0,0.0,0.0,0.0,6.0707,6.2029,6.3236,6.3459,6.4174,6.4777,6.4848,6.4917,6.4917,6.4882,6.4882,6.504,6.5727,6.5954,6.6558,6.8033,7.0422,7.2926,7.5431,7.7328,7.9198,8.1155,8.2874,8.4098,8.4701,8.5389,8.6156,8.7075,8.7919,8.8764,8.957,9.0702,9.1198,9.0951,9.1431,9.1513,9.1104,9.1513,9.2528,9.4191,9.4075,9.5004,9.6783,9.6512,9.6474,9.659,0.0,9.6429,9.6193,9.6309,9.6207,9.5982,9.6172,9.6172,9.6097,9.632,9.6358,9.6325,0.0,0.0,0.0,0.0,0.0,0.0,0.0,0.0,0.0,0.0,0.0,0.0,0.0,0.0,0.0,0.0,0.0,0.0,0.0,0.0,0.0,4.6026,4.6837,4.6764,4.5621,4.7093,4.8753,5.0501,5.1397,5.2206,5.295,5.3636,5.3899,5.3707,5.311,5.2759,5.2672,5.3332,0.0,0.0,0.0,0.0,0.0,0.0,0.0,0.0,0.0,0.0,0.0,0.0,5.951,5.9616,5.9616,0.0,0.0,0.0,0.0,0.0,6.0278,6.1565,6.2965,6.3558,6.4855,6.588,6.5426,6.5691,6.6031,6.6031,6.5653,6.5615,6.6446,6.6975,6.8261,7.1365,7.3679,7.5653,7.7244,7.8874,8.0434,8.182,8.3079,8.4081,8.4863,8.5245,8.6088,8.758,8.8078,8.8883,9.0148,9.072,9.0951,9.08,9.1059,9.1129,9.1024,9.1129,9.2248,9.4191,9.3406,9.4034,9.5863,9.523,9.493,9.4968,0.0,9.5516,9.5444,9.5867,9.5943,9.5741,9.5821,9.5741,9.5657,9.5657,9.5696,9.5653,0.0,0.0,0.0,0.0,0.0,0.0,0.0,0.0,0.0,0.0,0.0,0.0,0.0,0.0,0.0,0.0,0.0,0.0,0.0,0.0,4.6502,4.5838,4.7388,4.75,4.5913,4.8051,4.9566,5.0399,5.1454,5.2316,5.308,5.3736,5.3893,5.3664,5.2929,5.2726,5.2917,5.4115,5.4901,0.0,0.0,0.0,0.0,0.0,0.0,0.0,0.0,0.0,0.0,0.0,0.0,0.0,0.0,0.0,0.0,5.9436,5.9436,5.9545,6.0047,6.1368,6.2773,6.3517,6.497,6.6256,6.6331,6.6478,6.6814,6.7379,6.6965,6.6779,6.746,6.8442,7.0372,7.4082,7.6171,7.777,7.8983,8.0466,8.1793,8.2854,8.3536,8.4278,8.5148,8.5376,8.6227,8.7961,8.8267,8.8993,9.0526,9.0643,9.0683,9.0602,9.0722,9.0762,9.0683,9.0683,9.1717,9.3694,9.2523,9.2948,9.4667,9.3717,9.3332,9.337,9.4213,9.4556,9.4554,9.5355,9.5571,9.5433,9.5387,9.5303,9.5257,9.5163,9.5018,9.492,0.0,0.0,0.0,0.0,0.0,0.0,0.0,0.0,0.0,0.0,0.0,0.0,0.0,0.0,0.0,0.0,0.0,0.0,0.0,0.0,4.5403,4.5329,4.6888,4.7424,4.6754,4.8864,5.0157,5.0399,5.1164,5.2371,5.3901,5.3973,5.4008,5.3973,5.4409,5.4218,5.366,5.514,5.6251,5.7032,0.0,0.0,0.0,0.0,0.0,0.0,0.0,0.0,0.0,0.0,0.0,0.0,0.0,0.0,5.9024,5.9024,5.9024,5.9288,6.0341,6.1845,6.3126,6.3163,6.3389,6.437,6.7269,6.6608,6.5976,6.8219,6.8758,6.8809,6.9015,7.0545,7.2331,7.4218,7.6047,7.8063,8.0364,8.1672,8.2892,8.4522,8.4787,8.4825,8.4947,8.5629,8.6426,8.7421,8.8179,8.8976,8.9849,9.0174,9.0219,8.9887,9.0478,9.0683,9.0351,9.0351,9.0941,9.2143,9.2066,9.2488,9.3409,9.3332,9.3332,9.337,9.4213,9.4432,9.4204,9.4867,9.492,9.4689,9.4793,9.4958,9.5115,9.5115,9.4819,9.44,0.0,0.0,0.0,0.0,0.0,0.0,0.0,0.0,0.0,0.0,0.0,0.0,0.0,0.0,0.0,0.0,0.0,0.0,0.0,0.0,4.5631,4.603,4.7107,4.7752,4.7792,4.96,5.0618,5.0741,5.1849,5.3288,5.5071,5.4101,5.4035,5.4749,5.448,5.4228,5.4269,5.5889,5.6884,5.7423,5.7988,0.0,0.0,0.0,0.0,0.0,0.0,0.0,0.0,0.0,5.8982,5.8984,5.8984,5.8984,5.8984,5.8984,5.8984,5.9137,5.974,6.1469,6.3124,6.3276,6.3916,6.511,6.731,6.804,6.866,7.0079,7.0013,6.9873,7.0533,7.2139,7.3928,7.563,7.7463,7.9139,8.0574,8.1972,8.3162,8.3852,8.4467,8.4808,8.4901,8.5621,8.6455,8.7326,8.816,8.8956,8.9752,8.9935,8.9935,8.979,9.0037,9.0129,9.0029,9.0029,9.0189,9.0631,9.0631,9.1184,9.224,9.1489,9.1088,9.1202,9.2489,9.2955,9.296,9.4135,9.4583,9.4459,9.4311,9.4217,9.4217,9.4161,9.3969,9.3792,0.0,0.0,0.0,0.0,0.0,0.0,0.0,0.0,0.0,0.0,0.0,0.0,0.0,0.0,0.0,0.0,0.0,0.0,4.4192,4.4752,4.537,4.6001,4.6783,4.7462,4.8117,4.9687,5.0532,5.0587,5.2471,5.4137,5.5397,5.4665,5.4651,5.5176,5.5021,5.5097,5.538,5.691,5.7672,5.7955,5.8471,5.9176,0.0,0.0,0.0,0.0,0.0,0.0,0.0,0.0,5.9048,5.9241,5.9017,5.8942,5.8942,5.8942,5.9092,5.9356,5.9628,6.128,6.3045,6.3465,6.4662,6.6095,6.7858,6.8931,7.0049,7.1615,7.1365,7.1077,7.2042,7.3222,7.4676,7.6423,7.822,7.967,8.0547,8.2141,8.3246,8.3342,8.4098,8.4675,8.476,8.5792,8.671,8.7317,8.8388,8.9222,8.979,8.979,8.979,8.979,8.979,8.979,8.979,9.0006,9.0044,8.9741,8.9994,9.0408,9.0966,9.0152,8.9741,8.9855,9.1369,9.2035,9.2186,9.3725,9.4293,9.418,9.3852,9.3709,9.3625,9.3563,9.3438,9.3438,0.0,0.0,0.0,0.0,0.0,0.0,0.0,0.0,0.0,0.0,0.0,0.0,0.0,0.0,0.0,0.0,0.0,0.0,4.3986,4.4023,4.4332,4.4986,4.5657,4.6504,4.7585,4.9053,4.9794,4.9794,5.3051,5.4603,5.4639,5.5836,5.5942,5.5295,5.6463,5.7007,5.7081,5.8238,5.8698,5.8735,5.8725,5.9208,0.0,0.0,0.0,0.0,0.0,0.0,0.0,0.0,5.9255,5.9775,5.8995,5.8735,5.8735,5.8735,5.9292,6.0008,6.0334,6.1574,6.2997,6.378,6.5277,6.706,6.9186,6.91,6.9472,7.2704,7.288,7.2696,7.3616,7.3815,7.4424,7.6219,7.7978,7.9428,8.044,8.2082,8.3198,8.3198,8.3952,8.4481,8.4481,8.6139,8.7171,8.7171,8.8783,8.979,8.979,8.979,8.979,8.979,8.979,8.979,8.979,9.0512,9.0461,8.9629,9.0344,9.041,8.9828,8.9642,8.9591,8.9705,9.1212,9.1914,9.2027,9.3558,9.4007,9.3709,9.3563,9.3501,9.3501,9.3501,9.3375,9.3211,0.0,0.0,0.0,0.0,0.0,0.0,0.0,0.0,0.0,0.0,0.0,0.0,0.0,0.0,0.0,0.0,0.0,0.0,4.4221,4.4631,4.518,4.5798,4.6324,4.6973,4.7663,4.9089,5.0669,5.2318,5.3303,5.4302,5.5359,5.575,5.5926,5.5997,5.6932,5.7344,5.7423,5.8322,5.9032,5.9552,5.9547,6.0364,0.0,0.0,0.0,0.0,0.0,0.0,0.0,0.0,0.0,0.0,5.9812,5.9961,6.0333,5.9738,6.0147,6.0815,6.0943,6.2135,6.3401,6.3661,6.582,6.8193,6.9434,6.9955,7.0809,7.2964,7.3684,7.3885,7.3703,7.4113,7.4909,7.6106,7.7241,7.849,8.0029,8.1205,8.2209,8.2975,8.3803,8.4381,8.4481,8.5511,8.6115,8.6115,8.7714,8.8709,8.8709,8.9187,8.9527,8.9527,8.9527,8.9527,8.9527,9.0358,9.0608,9.0382,9.0593,9.0608,9.0396,8.974,8.9777,9.0419,9.1353,9.1695,9.1659,9.3095,9.3686,9.3563,9.3338,9.3275,9.3275,9.3184,9.3119,9.3054,0.0,0.0,0.0,0.0,0.0,0.0,0.0,0.0,0.0,0.0,0.0,0.0,0.0,0.0,0.0,0.0,0.0,0.0,0.0,4.4703,4.5318,4.5956,4.6504,4.7365,4.8641,4.982,5.1348,5.3363,5.369,5.4464,5.5711,5.6208,5.6524,5.6803,5.7621,5.7992,5.8029,5.8512,5.9181,5.9961,6.0481,6.1373,6.245,0.0,0.0,0.0,0.0,0.0,0.0,0.0,0.0,0.0,6.0704,6.0778,6.1113,6.0593,6.1001,6.1744,6.2079,6.3082,6.4308,6.5311,6.7057,6.8914,7.0363,7.1329,7.2184,7.3187,7.3781,7.4131,7.3997,7.4629,7.55,7.6476,7.7334,7.8357,7.9822,8.0757,8.1687,8.2669,8.3494,8.4073,8.4191,8.4995,8.5587,8.5638,8.6933,8.7839,8.8178,8.8669,8.9084,8.9386,8.9423,8.9423,8.9423,9.054,9.0901,9.0508,9.1131,9.1226,9.0794,8.9792,8.977,9.0545,9.1151,9.1542,9.1799,9.2903,9.3152,9.2928,9.3035,9.3082,9.3082,9.3054,9.2988,9.2988,0.0,0.0,0.0,0.0,0.0,0.0,0.0,0.0,0.0,0.0,4.3177,0.0,0.0,0.0,0.0,0.0,0.0,0.0,0.0,0.0,4.5077,4.5658,4.6415,4.7897,5.0126,5.0841,5.1916,5.3429,5.4128,5.4865,5.5681,5.6899,5.7509,5.7546,5.8364,5.8698,5.8698,5.8698,5.9218,6.0147,6.1416,6.216,6.2599,6.3342,0.0,0.0,0.0,0.0,0.0,0.0,0.0,0.0,6.1558,6.1373,6.141,6.1336,6.1849,6.2666,6.3445,6.4262,6.545,6.7863,6.8643,6.9385,7.1775,7.2852,7.341,7.3372,7.3521,7.3818,7.445,7.5304,7.6212,7.7138,7.7974,7.881,7.9738,8.0651,8.1472,8.2294,8.3041,8.3583,8.373,8.4529,8.5086,8.532,8.6252,8.7184,8.7976,8.8089,8.8504,8.928,8.9318,8.9318,8.9318,9.0792,9.1076,9.0287,9.1708,9.1942,9.1148,8.9893,8.9666,9.0287,9.0707,9.1446,9.2318,9.2865,9.2689,9.2104,9.2756,9.2988,9.2988,9.2988,9.2988,9.2988,0.0,0.0,0.0,0.0,0.0,0.0,0.0,0.0,0.0,0.0,0.0,0.0,0.0,0.0,0.0,0.0,0.0,0.0,0.0,0.0,4.5732,4.6533,4.7838,4.9313,5.0923,5.1542,5.2642,5.4239,5.4423,5.4732,5.5161,5.6763,5.7509,5.7546,5.8364,5.8698,5.8698,5.8698,5.9552,6.0964,6.1261,6.2153,6.3379,6.3527,6.3602,0.0,0.0,0.0,0.0,0.0,0.0,0.0,6.2413,6.2472,6.2798,6.2168,6.2484,6.3168,6.4029,6.4842,6.5878,6.7714,6.9599,7.1353,7.2643,7.3141,7.3305,7.3372,7.4375,7.5118,7.4673,7.5824,7.6865,7.7105,7.7811,7.8684,7.963,8.0488,8.14,8.2294,8.2556,8.2929,8.3583,8.3246,8.3301,8.3937,8.4815,8.5732,8.6518,8.7136,8.7847,8.8671,8.8671,8.8671,8.8671,8.9719,9.0408,9.0857,9.1133,9.1918,9.2903,9.0707,9.0071,9.0819,9.0092,9.1038,9.2939,9.23,9.231,9.2793,9.2914,9.2988,9.2988,9.2988,9.2988,9.2988,0.0,0.0,0.0,0.0,0.0,0.0,0.0,0.0,0.0,0.0,0.0,0.0,0.0,0.0,0.0,0.0,0.0,0.0,0.0,0.0,4.6415,4.7756,4.8956,5.0277,5.1566,5.2307,5.3326,5.4744,5.5188,5.564,5.6209,5.71,5.7918,5.8661,5.8698,5.8921,5.9292,5.9292,6.0035,6.1224,6.1633,6.2524,6.3602,6.3602,6.3602,6.3602,6.3602,0.0,0.0,0.0,0.0,0.0,0.0,0.0,6.3215,6.2808,6.2946,6.349,6.4709,6.5595,6.6814,6.9215,7.1098,7.2428,7.298,7.3387,7.3683,7.3791,7.4529,7.5341,7.5713,7.6493,7.7199,7.7608,7.8016,7.8629,7.9465,7.9986,8.0638,8.1476,8.1923,8.2426,8.2893,8.2893,8.3098,8.3564,8.4013,8.4797,8.603,8.6478,8.7263,8.8458,8.8495,8.8495,8.8495,8.9765,9.0303,9.0279,9.1473,9.2231,9.2577,9.0963,9.0503,9.0876,9.0243,9.0924,9.2486,9.2384,9.2356,9.2431,9.2839,9.2988,9.2988,9.2988,9.2988,9.3062,0.0,0.0,0.0,0.0,0.0,0.0,0.0,0.0,0.0,0.0,0.0,0.0,0.0,0.0,0.0,0.0,0.0,0.0,0.0,0.0,0.0,4.9082,4.9864,5.0921,5.2201,5.3134,5.4112,5.5243,5.6017,5.6908,5.7835,5.7877,5.8582,5.9801,5.9133,5.9324,6.011,5.9727,6.0246,6.1484,6.2079,6.2859,6.3602,6.3602,6.3602,6.3602,6.3602,6.3602,6.3602,6.3557,0.0,0.0,0.0,0.0,6.3147,6.3147,6.3147,6.3468,6.5029,6.6321,6.7982,7.1082,7.241,7.2964,7.3056,7.3665,7.4219,7.4457,7.4774,7.5362,7.6827,7.7199,7.7533,7.8165,7.8276,7.8536,7.9205,7.9391,7.9725,8.0394,8.1248,8.1863,8.2127,8.276,8.3264,8.3489,8.3489,8.4292,8.5935,8.601,8.6794,8.8339,8.8414,8.8414,8.8414,8.9817,9.0242,8.9684,9.203,9.2561,9.1465,9.0961,9.0801,9.0913,9.0488,9.0907,9.1985,9.2542,9.2431,9.1985,9.2728,9.2988,9.2988,9.2988,9.2988,9.3099,0.0,0.0,0.0,0.0,0.0,0.0,0.0,0.0,0.0,0.0,4.2897,0.0,0.0,0.0,0.0,0.0,0.0,0.0,4.5287,0.0,0.0,5.0101,5.0529,5.1544,5.3256,5.4269,5.5241,5.6134,5.6589,5.7597,5.9071,5.9418,5.9529,5.9485,5.9374,5.996,6.0884,5.8969,5.976,6.2227,6.2072,6.2666,6.3602,6.3602,6.3602,6.3602,6.3602,6.3602,6.3557,6.3465,6.3382,0.0,0.0,0.0,6.3051,6.3051,6.2953,6.3075,6.403,6.6418,6.9247,7.1745,7.248,7.2679,7.3223,7.3655,7.4306,7.5565,7.6175,7.6588,7.6811,7.7589,7.8165,7.8276,7.8276,7.8313,7.8425,7.9056,7.9539,7.9651,8.0357,8.1174,8.1975,8.2124,8.2495,8.3202,8.3239,8.3945,8.5581,8.5655,8.6436,8.8072,8.8146,8.8146,8.8146,8.8369,8.9113,9.0414,9.2198,9.2171,9.0647,9.0536,9.0934,9.1465,9.0053,9.0722,9.2765,9.2133,9.2245,9.2839,9.2951,9.2988,9.2988,9.2988,9.2988,9.3099,0.0,0.0,0.0,0.0,0.0,0.0,0.0,0.0,0.0,0.0,0.0,4.3701,0.0,0.0,0.0,4.3429,4.3871,4.4964,4.671,4.747,4.8639,5.0326,5.0769,5.174,5.3444,5.4494,5.5429,5.632,5.6731,5.7602,5.8992,6.0324,6.0766,6.0311,6.0147,6.0415,6.1103,6.0367,6.084,6.2096,6.2695,6.3453,6.427,6.427,6.4605,6.5013,6.5013,6.4633,6.4179,6.4086,6.3659,6.3147,6.3099,0.0,0.0,0.0,6.2855,6.3319,6.5485,6.7268,6.9128,7.2011,7.2705,7.2924,7.3603,7.4519,7.5308,7.5946,7.67,7.7266,7.7324,7.7792,7.8127,7.8127,7.8221,7.8276,7.8276,7.8573,7.8982,7.9428,8.0208,8.1025,8.1917,8.24,8.2809,8.3143,8.318,8.3886,8.5521,8.5595,8.6375,8.8047,8.7638,8.7601,8.8084,8.8084,8.9124,9.1167,9.191,9.2133,9.1873,9.139,9.113,9.0982,9.0276,9.113,9.2951,9.2579,9.2653,9.2988,9.2988,9.2988,9.2988,9.2988,9.3285,9.3768,0.0,0.0,0.0,0.0,0.0,0.0,0.0,0.0,0.0,0.0,0.0,0.0,0.0,0.0,0.0,0.0,4.4673,4.5993,4.7849,4.8032,4.8762,5.041,5.0888,5.1968,5.382,5.483,5.5763,5.6617,5.694,5.7804,5.9189,6.053,6.1309,6.1547,6.1372,6.1495,6.1857,6.1569,6.1886,6.2593,6.3317,6.3973,6.4531,6.4716,6.5088,6.5534,6.5942,0.0,0.0,0.0,6.4007,6.326,6.3027,6.2855,0.0,0.0,0.0,6.3158,6.619,6.7352,6.8367,7.1376,7.2427,7.2935,7.3768,7.4888,7.5823,7.6166,7.6839,7.7365,7.7607,7.7842,7.7957,7.7957,7.8071,7.8221,7.8221,7.8276,7.8573,7.9391,8.0208,8.1025,8.1917,8.2734,8.318,8.318,8.318,8.3886,8.5521,8.5409,8.6041,8.7712,8.6932,8.6821,8.7452,8.7898,8.9198,9.139,9.1613,9.2022,9.2653,9.1985,9.1353,9.0796,9.0796,9.165,9.2988,9.2988,9.2988,9.2988,9.2988,9.3099,9.3285,9.3285,9.3805,9.4622,0.0,0.0,0.0,0.0,0.0,0.0,0.0,0.0,0.0,0.0,0.0,0.0,4.3497,4.3497,4.3894,4.4838,4.5254,4.625,4.8151,4.8108,4.8842,5.0692,5.1003,0.0,5.4869,5.58,5.6617,5.7435,5.7519,5.8542,6.0415,5.9838,6.0684,6.2851,6.3221,6.3643,6.3873,6.15,6.2095,6.4559,6.3899,6.3639,6.375,6.4531,6.4345,6.3936,6.5534,0.0,0.0,0.0,0.0,0.0,6.3112,6.2805,6.2705,0.0,0.0,0.0,6.459,6.5754,6.6906,6.9353,7.1081,7.2413,7.3405,7.4168,7.5029,7.6454,7.6664,7.67,7.7243,7.7607,7.7783,7.7783,7.79,7.8014,7.8014,7.8221,7.8573,7.9391,8.0208,8.1025,8.1917,8.2734,8.318,8.318,8.318,8.3886,8.5521,8.4889,8.5186,8.6821,8.6078,8.5669,8.5743,8.7304,8.8938,9.0573,9.1353,9.1725,9.1762,9.1725,9.1688,9.165,9.165,9.2171,9.2988,9.2988,9.2988,9.2988,9.2988,9.3471,9.414,9.414,9.466,9.544,0.0,0.0,0.0,0.0,0.0,0.0,0.0,0.0,0.0,0.0,0.0,0.0,0.0,4.4076,4.462,4.4983,4.6059,4.7205,4.8421,4.8898,4.9709,5.0929,5.2194,5.3495,5.4983,5.6357,5.7052,5.71,5.7418,5.8081,5.9074,6.0092,6.0844,6.1443,6.2384,6.3036,6.333,6.2954,6.3419,6.4425,6.4401,6.5013,6.5942,6.5719,6.5794,0.0,0.0,0.0,0.0,0.0,0.0,0.0,0.0,0.0,6.2602,6.2526,6.2356,6.2745,6.5154,6.5734,6.641,6.9265,7.08,7.2011,7.3368,7.451,7.5436,7.5963,7.6306,7.6716,7.7458,7.8013,7.8233,7.7754,7.8227,7.8433,7.7916,7.838,7.9068,7.9845,8.0696,8.1608,8.2445,8.2876,8.3024,8.318,8.318,8.3663,8.4778,8.4555,8.4889,8.6004,8.5261,8.5075,8.5595,8.7267,8.8578,8.9526,9.0898,9.1528,9.1394,9.1912,9.2172,9.2172,9.2172,9.2492,9.2988,9.2855,9.2855,9.2751,9.2684,9.3134,9.3837,9.3837,9.4721,9.5976,0.0,0.0,0.0,0.0,0.0,0.0,0.0,0.0,0.0,0.0,0.0,0.0,0.0,0.0,4.5571,4.5964,4.7416,4.8529,4.9084,4.9788,5.0749,5.1858,5.3122,5.4463,5.58,5.6792,5.7291,5.7295,5.7375,5.7933,5.9023,6.0092,6.1002,6.1802,6.2354,6.3033,6.3803,6.4677,6.5127,6.5275,6.5255,6.5905,6.6908,6.6861,0.0,0.0,0.0,0.0,0.0,0.0,0.0,0.0,0.0,0.0,0.0,6.2737,6.2617,6.2923,6.484,6.5261,6.5852,6.8752,6.9885,7.0912,7.3188,7.4009,7.4619,7.5512,7.5967,7.6384,7.7129,7.8236,7.8897,7.8382,7.8454,7.8463,7.8205,7.8611,7.9298,8.011,8.096,8.1871,8.2769,8.2843,8.2843,8.3001,8.3001,8.3372,8.4151,8.3965,8.4039,8.4595,8.4076,8.4336,8.5411,8.6523,8.7746,8.8951,9.0358,9.1105,9.1228,9.204,9.2409,9.2409,9.2409,9.2547,9.2788,9.2616,9.2616,9.2653,9.2774,9.3296,9.4071,9.433,9.5362,9.6651,0.0,0.0,0.0,0.0,0.0,0.0,0.0,0.0,0.0,0.0,0.0,0.0,0.0,0.0,0.0,4.7965,4.9328,5.0153,5.0153,5.0787,5.1858,5.3447,5.3716,5.4981,5.7394,5.7094,5.7287,5.8105,5.7388,5.8274,6.0535,5.9838,6.1163,6.4107,6.3407,6.3923,6.5483,6.6243,6.6901,6.728,6.6462,6.6165,6.6341,6.7716,0.0,0.0,6.8051,6.7543,0.0,6.5612,0.0,0.0,0.0,0.0,0.0,0.0,6.2782,6.2599,0.0,0.0,0.0,6.7585,6.8147,6.91,7.2722,7.2604,7.2383,7.5048,7.5442,7.5584,7.6373,7.8114,7.9535,7.9737,7.8603,7.7952,7.8688,7.892,7.9298,8.011,8.0997,8.1809,8.2622,8.2696,8.2696,8.2696,8.2696,8.3028,8.3841,8.3139,8.2696,8.2696,8.2696,8.3471,8.5096,8.5096,8.6315,8.8753,8.9566,9.0378,9.1191,9.2003,9.2373,9.2409,9.2409,9.2409,9.2409,9.2409,9.2409,9.2483,9.3296,9.4038,9.4921,9.5734,9.6546,9.7285,0.0,0.0,0.0,0.0,0.0,0.0,0.0,0.0,0.0,0.0,0.0,0.0,4.603,4.7532,4.8888,4.9903,5.0759,5.122,5.122,5.1824,5.2641,5.368,5.463,5.5766,5.7057,5.729,5.7507,5.7726,5.8117,5.8628,5.931,6.053,6.1594,6.2523,6.4266,6.5238,6.573,6.6086,6.695,6.7951,6.7172,6.7494,6.8269,0.0,0.0,0.0,0.0,6.7125,6.6006,0.0,6.6396,6.5566,0.0,0.0,0.0,0.0,0.0,6.2997,6.3799,0.0,0.0,0.0,0.0,0.0,6.9718,7.0266,7.0965,7.2977,7.3673,7.4363,7.5871,7.7158,7.8431,7.9699,7.9507,7.9055,7.8688,7.8713,7.9007,7.9779,8.0625,8.1497,8.2397,8.2471,8.2571,8.2696,8.2696,8.2807,8.3028,8.2843,8.2696,8.2696,8.2696,8.3471,8.5096,8.5096,8.5992,8.7703,8.8514,8.9256,8.9926,9.0735,9.1397,9.1948,9.1948,9.1948,9.1948,9.2091,9.2162,9.2236,9.2977,9.3713,9.4522,9.5331,9.6215,9.7063,0.0,0.0,0.0,0.0,0.0,0.0,0.0,0.0,0.0,0.0,0.0,0.0,4.8082,4.9615,5.0717,5.1306,5.1832,5.2298,5.2634,5.2939,5.368,5.5044,5.5465,5.6323,5.7657,5.7934,5.8276,5.8604,5.9091,5.9542,6.0103,6.1581,6.2546,6.3084,6.4953,6.5964,6.6248,6.6383,6.7123,6.8171,6.7691,6.8092,6.886,6.8019,6.7485,0.0,0.0,0.0,6.7195,6.7207,6.6595,0.0,0.0,0.0,0.0,0.0,0.0,0.0,0.0,6.428,6.4839,6.599,0.0,0.0,6.9157,6.9331,6.9617,7.1892,7.2781,7.3557,7.5023,7.6192,7.7414,7.8747,7.9126,7.9369,7.949,7.9517,7.9764,8.0241,8.1012,8.1737,8.2242,8.2316,8.238,8.2508,8.2508,8.2508,8.2508,8.2508,8.2508,8.2508,8.2508,8.3281,8.4903,8.4903,8.5684,8.7169,8.7978,8.868,8.9454,9.0225,9.1033,9.1803,9.1803,9.1803,9.1803,9.1948,9.2169,9.2573,9.3345,9.4079,9.4887,9.5694,9.6358,9.6838,0.0,0.0,0.0,0.0,0.0,0.0,0.0,0.0,0.0,0.0,0.0,4.8824,5.0685,5.1744,5.234,0.0,5.2881,5.3493,5.4203,5.4093,5.4862,5.6749,5.6147,5.6703,5.8726,5.875,5.9187,6.009,6.0236,6.0872,6.2029,6.2915,0.0,0.0,6.5557,6.6285,6.6888,6.6948,6.7391,6.7967,6.8078,6.8345,6.8637,0.0,6.9032,6.867,6.9046,6.9062,6.8644,6.7411,6.6209,0.0,0.0,0.0,0.0,0.0,6.3698,6.3738,0.0,0.0,0.0,6.6989,6.6433,0.0,6.9767,6.9003,6.842,7.127,7.2145,7.2746,7.3674,7.5023,7.6257,7.705,7.7883,7.8952,8.0369,8.0707,8.0837,8.091,8.1571,8.2113,8.2186,8.2186,8.2186,8.2186,8.2186,8.2186,8.2186,8.2186,8.2186,8.2186,8.2186,8.292,8.4462,8.4468,8.5312,8.6885,8.7515,8.8395,8.9454,9.008,9.0887,9.1803,9.1803,9.1803,9.1803,9.1913,9.2391,9.3198,9.3969,9.4777,9.5621,9.6392,9.6685,9.6685,0.0,0.0,4.2255,4.4225,0.0,0.0,0.0,4.6052,4.6843,4.838,5.0172,5.1511,5.2,5.2734,5.3428,0.0,5.4565,5.4913,5.5062,5.5352,5.5743,5.6385,5.6136,5.6999,5.9228,5.8601,5.9001,6.0478,6.1765,6.2693,6.3288,6.4594,6.5371,0.0,6.621,6.6588,6.6773,6.7332,6.7396,6.721,6.798,6.8596,6.9091,6.8498,6.8183,6.8061,6.8469,6.8398,6.8001,6.7417,6.6145,6.4847,0.0,0.0,0.0,6.459,0.0,0.0,0.0,0.0,0.0,0.0,0.0,0.0,6.7204,6.7376,6.7937,6.9543,6.9945,7.0347,7.1508,7.3238,7.4287,7.3835,7.5964,7.8242,7.9786,7.973,7.9785,8.0406,8.0758,8.1256,8.1915,8.2121,8.2186,8.2186,8.2186,8.2186,8.2186,8.2186,8.2186,8.2186,8.2186,8.2663,8.3618,8.3764,8.4637,8.604,8.5808,8.7045,8.9417,8.9019,8.997,9.1803,9.1803,9.1803,9.184,9.2574,9.2941,9.3198,9.3969,9.4777,9.5621,9.6392,9.6685,9.6685,4.203,4.2344,4.3025,4.5051,0.0,0.0,0.0,4.8309,4.9213,5.0522,5.2024,5.2975,5.3063,5.4012,5.4824,5.5239,0.0,0.0,0.0,5.6246,5.6413,5.7186,5.707,5.7872,5.9663,5.992,6.0604,6.1787,6.2788,6.3382,6.3548,6.5086,6.573,6.5706,6.6809,6.7116,6.6848,6.7195,6.7222,6.7174,6.747,6.7981,6.8507,6.7919,6.8044,6.8433,6.853,6.8299,6.7885,6.735,6.6385,0.0,0.0,6.4323,6.4074,0.0,6.4665,6.4461,0.0,0.0,0.0,6.6348,0.0,0.0,0.0,6.7168,6.7317,6.8692,6.8932,6.9254,7.0291,7.1423,7.2335,7.2718,7.4448,7.6311,7.7865,7.8602,7.9444,8.0849,8.0563,8.0636,8.1678,8.1683,8.1647,8.1885,8.1885,8.1885,8.1885,8.1751,8.1579,8.1579,8.1441,8.1666,8.2502,8.3012,8.3809,8.49,8.5459,8.665,8.8462,8.8862,8.9851,9.1358,9.1657,9.206,9.2464,9.2941,9.3565,9.4336,9.474,9.5401,9.6171,9.6539,9.6685,9.6685,4.2351,4.2737,4.3676,4.5768,4.6535,0.0,0.0,0.0,5.1537,5.2693,5.348,5.4048,5.4389,5.5297,5.6107,5.6559,5.674,0.0,0.0,5.7181,5.7085,5.7936,5.8179,5.8924,6.0201,6.125,6.224,6.3099,6.3613,6.3808,6.3901,6.5334,6.5965,6.6022,6.7206,6.7396,6.691,6.6976,6.7053,6.7195,6.7029,6.7366,6.7933,6.7799,6.8217,6.8927,6.8802,6.8457,6.797,6.7546,6.693,6.6097,6.4937,6.4686,0.0,0.0,0.0,0.0,0.0,0.0,0.0,0.0,0.0,6.7243,0.0,0.0,0.0,6.8076,6.8315,6.8569,6.9218,6.9756,7.0381,7.1346,7.2487,7.3712,7.4878,7.6363,7.8133,8.0436,7.9863,7.9719,8.0905,8.0982,8.1055,8.1441,8.1441,8.1372,8.1372,8.1055,8.0912,8.0912,8.0548,8.076,8.1551,8.2301,8.3199,8.4212,8.541,8.6558,8.7735,8.875,8.9748,9.074,9.1392,9.2094,9.2864,9.3194,9.4149,9.5435,9.5511,9.5988,9.6685,9.6685,9.6685,9.6685,4.2699,4.2671,4.365,4.6839,4.7277,0.0,0.0,0.0,5.2037,5.4486,5.4781,5.5337,5.6815,5.6317,5.6786,5.9012,5.824,0.0,5.8798,0.0,5.7888,5.7575,5.8391,5.9559,6.1018,6.1523,6.2382,6.3511,6.4262,6.4958,6.5568,0.0,6.7096,6.7605,6.7213,6.6967,6.6889,6.7234,6.6996,6.6447,6.7153,6.7829,6.854,6.8523,6.8566,6.8501,6.8762,6.8429,6.8005,0.0,6.7774,6.6228,0.0,6.6102,6.485,6.617,0.0,0.0,0.0,0.0,0.0,0.0,6.8827,0.0,0.0,0.0,6.7692,6.7418,0.0,6.7433,6.7749,0.0,0.0,6.7283,6.9001,7.051,7.0593,7.1469,7.3441,7.7027,7.7464,7.7865,7.8842,7.9894,8.0622,8.1055,8.0768,8.0548,8.0548,8.0474,8.0474,8.0474,8.04,8.076,8.1515,8.1755,8.2897,8.496,8.4733,8.5954,8.8408,8.8134,8.8684,9.0095,9.0779,9.1351,9.201,9.355,9.4634,9.5281,9.5435,9.5988,9.6685,9.6685,9.6685,9.6685,4.2736,4.3904,4.5489,4.7465,4.8075,0.0,0.0,0.0,5.4628,5.5722,5.6147,5.6626,5.7308,5.7375,5.7955,5.9465,5.9365,5.9358,0.0,0.0,5.9523,5.8622,6.0092,6.1126,6.1542,6.2401,6.3094,6.3602,6.4327,6.479,6.4979,0.0,0.0,6.7043,6.6955,6.7026,6.7162,6.686,6.6943,6.7234,6.7186,6.7671,6.8258,6.7885,6.7817,6.7914,6.8062,6.783,6.7462,0.0,6.7301,0.0,0.0,0.0,0.0,0.0,0.0,0.0,0.0,0.0,0.0,0.0,0.0,0.0,6.7658,0.0,6.7184,0.0,0.0,0.0,0.0,0.0,0.0,0.0,6.8466,6.9193,6.9141,6.9463,7.134,7.5684,7.5649,7.5819,7.7134,7.7915,7.8615,7.9196,7.9079,7.9215,7.9679,7.9479,7.9285,7.9285,7.924,7.955,8.0247,8.0977,8.2143,8.4039,8.4705,8.5867,8.7515,8.8064,8.8968,8.9978,9.073,9.1631,9.2737,9.347,9.4217,9.4902,9.5231,9.5888,9.6685,9.6685,9.6685,9.6759,4.3525,4.5091,4.6628,4.7857,4.8618,4.9924,0.0,5.4511,5.595,5.6635,5.6907,5.7422,5.8331,5.8585,5.9238,6.0521,6.0527,6.0584,0.0,0.0,6.0626,0.0,0.0,0.0,0.0,0.0,6.3752,6.3706,6.4298,6.4768,6.5066,0.0,0.0,0.0,6.7012,6.7122,6.7075,6.7121,6.7304,6.7626,6.7411,6.7556,6.7811,6.7295,6.7193,6.7462,6.7789,6.7604,6.7097,6.7165,6.7303,0.0,6.6576,0.0,0.0,0.0,0.0,0.0,6.9113,0.0,0.0,0.0,0.0,0.0,0.0,0.0,0.0,0.0,0.0,0.0,0.0,0.0,6.7776,6.7878,0.0,6.8266,6.794,6.7905,6.937,7.3256,7.3562,7.4077,7.5603,7.6162,7.6825,7.7762,7.7752,7.8024,7.8835,7.8539,7.8371,7.8371,7.8237,7.864,7.9618,8.0351,8.1629,8.3381,8.4712,8.5728,8.6534,8.7917,8.8967,8.9675,9.0428,9.1638,9.3103,9.3282,9.3889,9.4603,9.5121,9.5886,9.6667,9.6604,9.6755,9.7048,4.5388,4.5658,4.621,4.7979,4.8779,5.0035,5.2447,5.3479,5.4818,5.7253,5.6793,5.746,6.0605,6.0135,6.0559,6.2974,6.1865,6.141,6.2153,0.0,6.0572,0.0,0.0,6.2328,0.0,0.0,6.4131,6.398,6.4413,6.5312,6.6611,6.6152,0.0,0.0,6.7497,6.7256,6.6486,6.8252,6.8252,6.7083,6.7773,6.7684,6.7263,0.0,6.718,6.7384,6.859,0.0,0.0,6.9316,6.8639,0.0,0.0,0.0,0.0,0.0,0.0,0.0,0.0,0.0,0.0,6.9451,0.0,0.0,0.0,0.0,6.7861,0.0,0.0,0.0,0.0,6.9011,6.8538,0.0,6.7455,0.0,0.0,6.6092,6.6753,6.8617,7.0873,7.2912,7.4308,7.5025,7.5909,7.731,7.7083,7.7178,7.7858,7.7893,7.7893,7.7893,7.7893,7.8624,8.0156,8.019,8.1374,8.3636,8.4437,8.5202,8.5933,8.7021,8.7981,8.875,8.9713,9.0963,9.2211,9.3071,9.3761,9.4374,9.5036,9.576,9.6461,9.6392,9.6887,9.7545,4.5531,4.6699,4.7742,4.8883,4.9644,5.0687,5.2523,5.4814,5.6863,5.828,5.9033,6.0042,6.1675,6.146,6.1768,6.3012,0.0,6.2768,6.2287,6.2751,0.0,0.0,0.0,6.3017,0.0,0.0,0.0,0.0,6.5038,6.5532,6.5951,6.6178,0.0,0.0,6.7053,6.7295,6.7833,6.7998,6.7996,6.7729,6.8083,6.8284,6.8319,0.0,0.0,6.6964,6.7421,6.7252,0.0,6.8233,6.8504,6.8368,6.8605,6.9214,6.9688,6.918,6.9789,0.0,0.0,0.0,7.1684,7.0195,0.0,0.0,0.0,0.0,0.0,0.0,0.0,0.0,0.0,0.0,0.0,0.0,0.0,0.0,0.0,6.5033,6.5488,6.6554,6.9475,7.1593,7.2004,7.2725,7.3688,7.5154,7.5204,7.5667,7.6884,7.7099,7.7154,7.7154,7.7579,7.8152,7.9247,7.9858,8.113,8.2905,8.3671,8.4715,8.5933,8.6307,8.7387,8.9095,8.9472,9.0605,9.2091,9.2435,9.2832,9.312,9.374,9.4388,9.5249,9.6484,9.7414,9.8181,4.6487,4.8082,4.9247,4.9461,5.0567,5.1913,5.3479,5.5919,5.8043,5.9185,6.0627,6.1936,6.2967,6.3047,6.3314,0.0,6.4091,6.3659,6.2719,6.37,0.0,6.1423,6.3092,0.0,0.0,0.0,0.0,0.0,0.0,6.6069,6.5836,6.6391,6.6792,6.7139,6.7469,6.7799,6.8219,6.8334,6.8146,6.7948,6.813,6.8574,0.0,0.0,6.7793,6.803,0.0,6.7658,6.7354,6.8368,6.8707,6.8707,6.9011,6.9755,7.0432,6.9958,7.0331,7.0906,7.0906,7.165,0.0,7.0872,7.077,0.0,6.9045,0.0,0.0,0.0,0.0,0.0,0.0,0.0,0.0,0.0,0.0,0.0,0.0,6.4647,6.5053,6.5256,6.8218,7.0413,7.0686,7.1454,7.2512,7.4069,7.4172,7.4855,7.6427,7.6645,7.6736,7.6736,7.7043,7.7568,7.8292,7.9177,8.0363,8.1736,8.2776,8.3919,8.5229,8.5602,8.695,8.8862,8.924,9.021,9.1596,9.2255,9.2425,9.2449,9.3528,9.4348,9.4965,9.6336,9.7715,9.8937,4.8154,4.9753,5.0601,4.9869,5.1585,5.3598,5.5161,5.6681,5.8242,5.9946,6.1538,6.311,6.4593,6.4709,6.5156,6.6194,6.518,6.4217,6.3617,6.4239,0.0,0.0,6.4315,6.4723,6.352,0.0,0.0,0.0,0.0,6.675,6.656,6.6781,6.6815,6.6759,6.8504,6.8698,6.7765,6.8995,6.8728,6.753,6.7828,6.847,6.9214,6.9214,6.9654,7.0297,7.0161,6.918,6.8199,6.9688,6.9214,6.8166,6.8977,6.9214,6.9127,6.9214,6.96,7.014,7.0297,7.1345,7.2293,7.1582,0.0,0.0,0.0,0.0,7.1053,0.0,0.0,0.0,0.0,0.0,0.0,0.0,0.0,0.0,6.389,6.4667,6.5309,6.4749,6.7286,6.9437,7.0289,7.1158,7.2301,7.4069,7.4206,7.4855,7.6427,7.6495,7.6529,7.6563,7.6529,7.6871,7.7656,7.834,7.9187,8.0261,8.1771,8.3002,8.4052,8.5104,8.6379,8.7835,8.8932,8.9797,9.0632,9.2332,9.2744,9.232,9.4489,9.5516,9.571,9.6168,9.7766,9.9692,4.8128,5.0152,5.1933,5.2888,5.3552,5.4311,5.5249,5.7205,5.9155,6.0805,6.2909,6.459,6.5427,6.6068,6.6357,6.6118,6.6304,0.0,0.0,0.0,0.0,6.3899,6.5344,6.5898,6.5197,6.5716,0.0,6.7325,0.0,6.6339,6.7283,6.666,6.6846,6.7834,6.8179,6.8339,6.8461,6.8457,6.828,6.8148,6.8556,6.9586,7.0737,0.0,7.121,7.1616,6.9958,6.9113,6.8944,6.9857,6.9925,6.9722,7.05,7.0344,6.9946,7.0558,6.9988,6.9661,7.1378,7.2094,7.2451,7.2877,7.2606,7.2095,0.0,0.0,0.0,0.0,0.0,0.0,0.0,0.0,0.0,0.0,0.0,0.0,0.0,6.3581,6.4152,6.4774,6.704,6.8762,6.9437,7.0622,7.1977,7.3559,7.3661,7.4305,7.5832,7.6088,7.6454,7.6999,7.6675,7.711,7.8442,7.8613,7.9091,7.9939,8.1479,8.2672,8.3724,8.4613,8.5884,8.7568,8.8464,8.9327,9.0293,9.1367,9.1748,9.1984,9.323,9.5081,9.7148,9.816,9.892,9.9587,4.872,5.112,5.3413,5.4693,5.5446,5.6026,5.6346,5.813,5.9878,6.1153,6.3676,6.5426,6.5611,6.662,6.7149,6.6876,6.674,0.0,6.588,0.0,0.0,6.5538,6.6593,6.7087,6.6803,6.6803,0.0,6.7456,0.0,6.6727,6.6986,6.7164,6.7517,6.8217,6.8348,6.8682,6.8995,6.8785,6.8827,6.9151,6.9471,7.0263,0.0,7.1312,7.1582,7.1751,7.0534,6.9857,6.9688,7.0432,7.0254,6.9883,7.0959,7.0703,7.01,7.0609,7.0523,7.0596,7.1587,7.2357,7.2871,7.3385,7.304,7.2481,7.1722,7.1556,7.1357,0.0,0.0,0.0,0.0,0.0,0.0,0.0,0.0,0.0,0.0,0.0,6.376,6.4872,6.6901,6.8349,6.8864,7.0333,7.1921,7.3375,7.3477,7.4119,7.5608,7.5805,7.6272,7.7019,7.7142,7.7516,7.8366,7.8978,7.945,7.9649,8.1183,8.2474,8.3426,8.4214,8.5581,8.7229,8.8054,8.9019,8.9985,9.13,9.1681,9.1678,9.3304,9.5242,9.7483,9.8682,9.9329,9.9786,4.993,5.2453,5.4682,5.5682,5.7095,5.8131,5.8006,5.9367,0.0,6.1581,0.0,6.5991,6.5666,6.6799,6.7709,6.7922,6.6865,6.6385,6.6881,6.7364,6.7518,6.7254,6.7969,6.8296,6.8266,6.8159,6.7807,0.0,0.0,6.7475,6.6671,6.7941,6.8432,6.832,6.8838,6.9157,6.9371,6.932,6.9591,7.0195,7.0195,7.0635,7.1312,7.1312,7.1312,7.1312,7.1413,7.1041,7.0567,7.1154,7.0498,6.9677,7.0785,7.0666,6.9941,7.0073,7.093,7.1819,7.1546,7.2213,7.3111,7.3442,7.3305,7.2848,7.2228,7.1999,7.1778,7.1355,7.128,7.1198,0.0,0.0,0.0,0.0,0.0,0.0,0.0,0.0,6.3981,6.5049,6.6883,0.0,6.8479,7.0272,7.1931,7.319,7.3392,7.4033,7.5512,7.5484,7.6019,7.7029,7.7472,7.7911,7.8416,7.96,8.0072,7.993,8.1324,8.2411,8.3362,8.4114,8.5447,8.7023,8.7916,8.8776,8.9812,9.1437,9.1888,9.1819,9.3965,9.5707,9.7247,9.8283,9.9236,10.0091,5.2116,5.3549,5.4779,5.6352,5.7877,5.9081,5.9596,6.1088,6.2525,6.3615,6.5461,6.6767,6.7046,6.7756,6.8099,6.7684,6.778,0.0,0.0,0.0,0.0,6.8553,6.9273,6.9512,6.9087,6.8444,6.8592,0.0,0.0,0.0,6.8998,6.8502,6.8495,6.8943,6.8822,6.8734,6.8768,6.8573,6.9203,7.0195,7.0195,7.0635,7.1312,7.1312,7.1312,7.1379,7.1988,7.2124,7.1931,7.1386,7.147,7.1582,7.1128,7.0489,6.9976,7.0591,7.0105,6.9913,7.2382,7.2178,7.1922,7.3841,7.3258,7.2197,7.2036,7.1552,7.1278,7.1811,7.1555,7.1009,7.0463,0.0,0.0,0.0,0.0,0.0,0.0,0.0,0.0,6.5705,6.7287,6.813,6.791,7.0149,7.1693,7.2144,7.2776,7.3705,7.4966,7.4605,7.5438,0.0,7.6873,7.7816,0.0,0.0,8.075,8.1935,8.2816,8.3394,8.3875,8.527,8.6159,8.6781,8.8149,8.894,8.9463,9.0357,9.1675,9.3241,9.418,9.5774,9.7718,9.8477,9.9049,9.9513,5.3492,5.4489,5.56,5.7747,5.901,6.0103,0.0,6.2639,6.361,6.369,6.4916,6.6007,6.6462,6.7765,6.8505,6.8274,6.8444,6.8706,6.9201,6.9553,6.9764,6.9669,7.0094,7.0176,6.9943,6.9055,6.8884,6.9459,0.0,0.0,0.0,6.8852,6.8951,6.9078,6.889,6.8842,6.905,6.9203,0.0,7.1345,7.1345,7.1785,7.2428,7.2428,7.2191,7.1988,7.2699,7.2692,7.2284,7.1904,7.1424,7.0953,7.0935,7.0437,6.9797,7.0193,7.0694,7.127,7.2477,7.274,7.2999,7.3668,7.294,7.1906,7.1502,7.1137,7.0972,7.1407,7.0913,7.0107,6.9115,6.7424,0.0,0.0,0.0,0.0,0.0,0.0,6.4767,0.0,0.0,0.0,6.8169,6.9877,7.126,7.208,7.2482,7.3443,7.4868,0.0,7.497,0.0,0.0,0.0,8.0287,0.0,0.0,8.1989,8.3418,8.4171,8.4344,8.587,8.6894,8.759,8.8306,8.896,8.9727,9.0555,9.184,9.3445,9.4669,9.6125,9.7517,9.8345,9.8861,9.9049,5.4535,5.5352,5.6597,5.9102,6.0102,6.1103,6.2649,6.3982,6.452,6.3873,6.4545,6.5413,6.6223,6.7757,6.8788,6.8896,6.8959,6.9309,7.0112,6.9956,7.0086,7.0728,7.0764,7.0764,7.0764,6.9916,6.9386,0.0,0.0,0.0,0.0,0.0,6.9153,6.8886,6.8797,6.9081,0.0,0.0,7.1278,7.2631,7.2631,7.2969,7.3477,7.3477,7.3046,7.2456,7.3164,7.283,7.1986,7.2151,7.1345,7.0299,7.0771,7.0531,7.0125,7.0015,7.1424,7.3089,7.2532,7.3204,7.3869,7.3323,7.2517,7.1612,7.0981,7.0789,7.0822,7.1092,7.0469,6.9453,6.8046,6.6775,0.0,0.0,0.0,0.0,0.0,0.0,0.0,0.0,0.0,0.0,6.8275,6.9399,7.068,7.1887,7.2211,7.3003,7.424,0.0,0.0,0.0,0.0,7.7536,7.9537,0.0,8.1565,8.2,8.3881,8.4877,8.4911,8.6467,8.7558,8.8286,8.8456,8.9083,8.9949,9.0994,9.2075,9.3158,9.4949,9.6133,9.7006,9.7952,9.838,9.8345,5.5283,5.6168,5.7454,5.9944,0.0,6.1942,6.3524,6.4853,6.576,6.5983,6.584,6.6371,6.8129,6.8382,6.859,6.902,6.9444,6.9692,6.9669,7.0793,7.1513,7.1585,7.1585,7.1585,7.1585,7.1303,7.07,0.0,0.0,0.0,0.0,0.0,0.0,0.0,0.0,0.0,0.0,7.0961,7.2056,7.3375,7.3375,7.3443,7.3477,7.3477,7.2976,7.2438,7.3138,7.2378,7.1132,7.181,7.1896,7.1713,7.0965,7.1296,7.1593,7.0886,7.1842,7.322,7.3154,7.2664,7.2411,7.3012,7.2014,7.0869,7.0789,7.0789,7.0981,7.1733,7.0823,6.9439,6.806,6.7157,6.6311,0.0,0.0,0.0,0.0,0.0,6.6492,6.6533,0.0,0.0,6.7747,6.9052,7.0252,7.1003,7.1424,7.195,0.0,0.0,0.0,7.4851,7.453,7.6013,7.9537,8.0281,8.1531,8.3507,8.5034,8.5689,8.5723,8.7211,8.7922,8.8023,8.87,8.9228,8.9585,9.0666,9.1782,9.2866,9.4207,9.5398,9.6414,9.6903,9.7212,9.7212,0.0,0.0,0.0,0.0,0.0,0.0,0.0,6.5011,6.5582,6.6231,6.6435,6.7073,6.8476,6.8909,6.9295,6.9792,7.0274,7.0482,7.032,7.1154,7.1478,7.1014,7.1126,7.0948,7.0452,7.0623,7.0261,0.0,0.0,0.0,0.0,0.0,0.0,0.0,0.0,7.0293,7.0995,7.165,7.28,7.4153,7.3648,7.3596,7.3769,7.3277,7.2612,7.2047,7.2769,7.2118,7.1049,7.1757,7.1689,7.1282,7.1502,7.1689,7.2014,7.2197,7.2729,7.322,7.322,7.294,7.2729,7.2517,7.1692,7.0882,7.0774,7.0441,7.0363,7.1108,7.0486,6.9371,6.7969,6.7082,6.6417,0.0,0.0,0.0,0.0,0.0,0.0,6.6067,0.0,6.6417,6.7559,6.8264,6.9082,7.0188,7.0902,0.0,0.0,0.0,0.0,7.3512,0.0,7.556,7.8769,7.9894,8.1565,8.3708,8.5532,8.6467,8.6501,8.7989,8.8632,8.8666,8.897,8.9295,8.9619,9.0955,9.1826,9.2536,9.4365,9.524,9.5735,9.6238,9.645,9.645,5.712,0.0,5.9278,0.0,6.2216,6.2515,6.4848,6.5421,6.5827,6.6425,6.7009,6.7723,6.8787,6.9231,6.9721,7.0464,7.0757,7.0991,7.1076,7.1654,7.18,7.1233,7.137,0.0,7.0546,7.0734,7.0552,6.9858,7.0704,0.0,0.0,0.0,0.0,0.0,7.0926,7.1566,7.1988,7.2456,7.3373,7.4517,7.3608,7.3406,7.3632,7.2907,7.2266,7.1699,7.2184,7.1767,7.0908,7.142,7.1392,7.1282,7.1798,7.2304,7.2729,7.2835,7.322,7.3426,7.3012,7.2835,7.2729,7.2122,7.1445,7.0895,7.0774,7.0378,7.0157,7.0662,7.0188,6.9398,6.831,6.7395,6.6752,6.665,0.0,0.0,0.0,0.0,0.0,0.0,6.5107,6.5513,6.7603,6.779,6.8352,6.9693,0.0,0.0,0.0,0.0,0.0,0.0,0.0,0.0,7.7544,7.9023,8.1009,8.341,8.5725,8.6907,8.6974,8.8429,8.9072,8.9072,8.9072,8.9184,8.9542,9.1036,9.1761,9.2235,9.4189,9.4997,9.5108,9.5516,9.5626,9.5626,5.7772,5.8642,5.9883,6.2383,6.2649,6.3217,6.5351,6.6289,6.6866,6.6998,6.758,6.8415,6.9493,6.9322,6.9632,7.0901,7.0919,7.104,7.162,7.237,7.2832,0.0,0.0,7.2865,7.2676,7.2477,7.2205,7.196,0.0,0.0,7.1315,0.0,7.166,7.1985,7.2471,7.2949,7.351,7.3365,7.3806,7.4373,7.3323,7.2802,7.2802,7.2453,7.2025,7.1516,7.1516,7.125,7.0757,7.0789,7.1282,7.2014,7.2014,7.3149,7.4172,7.2517,7.3149,7.4172,7.2411,7.2014,7.2014,7.2014,7.1392,7.0757,7.0789,7.0757,7.0757,7.0789,7.0188,6.9572,6.927,6.8139,6.7308,6.7665,0.0,0.0,0.0,0.0,0.0,6.5607,6.5107,6.5513,6.7603,6.779,6.8352,6.9693,0.0,0.0,0.0,0.0,0.0,7.1203,7.1235,0.0,7.5803,7.7356,7.9573,8.2428,8.5504,8.6907,8.6974,8.8429,8.9072,8.9072,8.9072,8.9072,8.9207,9.0696,9.1534,9.1931,9.3427,9.427,9.45,9.45,9.45,9.45,5.7698,5.8536,5.9701,6.1894,6.2208,6.286,6.4991,6.5739,6.6323,6.6803,6.772,6.8528,6.9213,6.9201,6.957,0.0,7.0919,7.1076,0.0,7.1517,7.1688,7.2242,7.1473,7.1041,7.128,7.1596,7.1607,7.1315,0.0,0.0,0.0,7.2631,7.2932,7.2805,7.3434,7.3737,7.3721,7.3642,7.3772,7.3869,7.2485,7.1842,7.1516,7.0662,7.0212,7.013,7.0243,7.0774,7.125,7.0869,7.1689,7.2729,7.2197,7.2729,7.3665,7.3665,7.3252,7.2729,7.209,7.1612,7.1203,7.1203,7.06,7.0157,7.0662,7.0789,7.0789,7.0532,7.0231,6.9804,6.9139,6.8589,6.7915,6.6976,6.6368,0.0,0.0,0.0,0.0,0.0,6.4568,6.4861,6.693,6.7147,0.0,0.0,0.0,0.0,0.0,0.0,0.0,0.0,7.246,0.0,7.6117,7.7702,7.9694,8.2344,8.4756,8.6825,8.8395,8.8869,8.9072,8.9072,8.9072,8.9376,8.9918,9.0899,9.1609,9.23,9.3282,9.3806,9.3923,9.3923,9.3923,9.3991,5.7586,5.8892,6.0342,6.1727,6.2258,6.3086,6.5054,6.5551,6.6112,6.7347,6.7926,6.8523,6.9466,6.9389,0.0,7.0842,7.1036,7.1299,7.1766,7.1688,7.1734,7.204,7.1399,7.1153,7.1317,0.0,0.0,7.211,7.2993,7.3357,7.3261,7.3964,7.4159,7.3923,7.431,7.4232,7.3741,7.3365,7.3149,7.294,7.1438,7.0774,7.055,6.9588,6.9472,6.9933,7.0243,7.0997,7.1982,7.1392,7.2122,7.3012,7.2197,7.2304,7.2835,7.3459,7.2835,7.1906,7.158,7.1203,7.0789,7.0789,7.0441,7.022,7.0662,7.0645,7.0532,7.0306,7.0161,6.9922,6.9174,6.8779,6.8406,6.7446,6.6807,6.6344,6.5719,0.0,0.0,0.0,0.0,0.0,0.0,6.6919,6.7473,0.0,0.0,0.0,0.0,0.0,0.0,7.1487,7.2788,0.0,7.5922,7.7381,7.9608,8.2552,8.519,8.7329,8.9072,8.9072,8.9072,8.9072,8.9072,8.9512,9.0256,9.1,9.1744,9.2489,9.3267,9.3571,9.3571,9.3571,9.3571,9.3706,5.7438,5.9513,6.1424,0.0,6.2598,0.0,6.5504,6.5632,6.6316,6.8311,6.8277,6.8536,7.0092,6.9901,6.9997,7.075,0.0,0.0,0.0,7.2519,7.2713,7.2398,7.27,7.2783,7.2686,7.3122,7.3601,7.415,7.4403,7.4718,7.4929,7.5241,7.5315,7.5228,7.4902,7.4373,7.3562,7.2729,7.223,7.1798,7.0356,6.9818,6.9703,6.924,6.9703,7.0694,7.1108,7.1874,7.2762,7.223,7.2517,7.3012,7.2197,7.1906,7.1906,7.2014,7.2014,7.1798,7.0981,7.0789,7.0789,7.0789,7.0789,7.0789,7.0789,7.0532,7.0275,7.0306,7.0047,6.9703,6.9387,6.886,6.8497,6.8852,6.775,6.6888,6.6858,0.0,0.0,0.0,0.0,0.0,0.0,6.695,6.7504,0.0,0.0,0.0,0.0,0.0,7.1167,7.1939,7.2238,7.3446,7.5456,7.6624,7.9212,8.3165,8.6466,8.8395,8.9072,8.9072,8.9072,8.9072,8.9072,8.9545,9.0324,9.1034,9.1778,9.259,9.33,9.3571,9.3571,9.3571,9.3571,9.3706,0.0,0.0,6.0041,6.0986,6.2352,6.3771,6.5211,6.5778,6.6609,6.8215,6.8632,6.909,6.9849,7.0273,7.0539,7.0547,7.0842,7.1372,7.2513,7.1915,7.211,7.3437,7.2592,7.2429,7.3135,7.3808,7.4647,7.5487,7.5199,7.5137,7.5116,7.5442,7.5315,7.4671,7.4003,7.3492,7.3077,7.2154,7.1502,7.0917,7.013,6.9703,6.9472,6.9787,7.013,7.0438,7.1625,7.2272,7.2517,7.2122,7.2122,7.209,7.1282,7.1092,7.1203,7.1798,7.1612,7.1092,7.0901,7.0789,7.0789,7.0789,7.0789,7.0789,7.0789,7.0532,7.0161,6.9933,6.9703,6.9356,6.9123,6.8883,6.8667,6.8212,6.7442,6.6735,6.6211,6.5411,0.0,0.0,6.5195,6.5811,6.6827,6.7381,6.8027,0.0,0.0,0.0,0.0,7.1288,7.1901,7.2297,7.3036,7.4178,7.5456,7.6324,7.9156,8.3887,8.67,8.8395,8.9072,8.9072,8.9072,8.9072,8.9072,8.9816,9.1034,9.1237,9.2083,9.3334,9.3503,9.3571,9.3571,9.3571,9.3571,9.3774,5.7492,5.914,6.0711,6.1804,6.3086,6.4302,6.5506,6.5969,6.659,6.8059,6.8573,6.9057,6.9692,7.0284,7.065,7.0514,7.1233,7.1906,7.2332,7.2331,7.2634,7.3437,7.2847,7.2939,7.3821,7.4485,7.5078,7.5764,7.5397,7.5159,7.4898,7.5017,7.4671,7.3902,7.3492,7.2867,7.2262,7.183,7.1171,7.0501,7.0016,6.9588,6.9472,7.0016,7.0438,7.0965,7.2453,7.3012,7.294,7.2624,7.2304,7.1906,7.1092,7.0789,7.0901,7.1282,7.1203,7.0789,7.0789,7.0789,7.0789,7.0789,7.0789,7.0789,7.0645,7.0306,6.9933,6.9703,6.9356,6.9123,6.8889,6.8889,6.8674,6.8027,6.7627,6.7042,6.6057,6.5596,0.0,6.5349,6.5688,6.6304,6.7289,6.772,6.8335,6.9259,6.969,0.0,7.1352,7.1752,7.2244,7.2644,7.3694,7.4624,7.5433,7.7924,8.0827,8.4117,8.6801,8.8395,8.9072,8.9072,8.9072,8.9072,8.9072,8.9918,9.1305,9.1305,9.2184,9.3571,9.3571,9.3571,9.3571,9.3571,9.3571,9.374,5.8486,6.0214,6.1861,6.29,6.3844,6.4795,6.584,6.5989,6.6422,6.78,6.8255,6.8758,6.9526,7.0043,7.0371,7.0478,7.1906,7.2584,7.2074,7.3217,7.3632,7.3183,7.338,7.3845,7.453,7.4881,7.5288,7.5775,7.5262,7.4839,7.4444,7.437,7.397,7.3214,7.311,7.2582,7.1644,7.1534,7.106,7.0161,6.9933,6.9588,6.9356,7.013,7.0886,7.1733,7.3083,7.3562,7.3525,7.3149,7.2517,7.1689,7.0981,7.0789,7.0789,7.0789,7.0789,7.0789,7.0789,7.0789,7.0789,7.0789,7.0789,7.0676,7.0419,7.0047,6.9703,6.9503,6.9123,6.8889,6.8889,6.8889,6.8674,6.8027,6.7843,6.735,6.6088,0.0,6.5903,6.5903,6.6088,6.6673,6.7812,6.8089,6.8674,6.9813,7.009,7.0736,7.1906,7.2091,7.2429,7.3106,7.3942,7.4873,7.5616,8.0091,8.29,8.3998,8.6641,8.8351,8.9072,8.9072,8.9072,8.9072,8.9072,8.9918,9.1305,9.1305,9.2184,9.3571,9.3571,9.3571,9.3571,9.3571,9.3571,9.3706,5.8221,5.9693,6.1006,6.1739,6.3025,6.4207,6.5055,6.5569,6.6308,6.7728,6.7786,6.8183,6.949,6.9542,6.9765,7.0443,7.1906,7.2727,7.2656,7.3411,7.4061,7.4364,7.4209,7.4405,7.4983,7.499,7.5517,7.663,7.5043,7.4258,7.414,7.3937,7.3389,7.2582,7.2401,7.2079,7.1644,7.1314,7.0726,6.9901,6.9787,6.9472,6.9123,7.0743,7.1406,7.1733,7.3149,7.3285,7.2582,7.2337,7.1689,7.0981,7.0901,7.0789,7.0789,7.0789,7.0789,7.0789,7.0789,7.0789,7.0789,7.0789,7.0789,7.0676,7.0419,7.0047,6.9703,6.9503,6.9123,6.8889,6.8889,6.8889,6.8674,6.8027,6.7442,6.6796,6.6027,0.0,6.5903,6.5903,6.6919,6.7689,6.7904,6.892,6.969,6.9874,7.0982,7.1752,7.1967,7.2521,7.3137,7.3814,7.3937,7.4837,7.6329,7.9985,8.2412,8.3759,8.6059,8.7844,8.9072,8.9072,8.9072,8.9072,8.9072,8.9918,9.1305,9.1305,9.2184,9.3571,9.3571,9.3571,9.3571,9.3571,9.3571,9.3706,5.93,6.0471,6.1592,6.2595,6.3716,6.4672,6.5314,6.5929,6.6496,6.6981,6.7204,6.7733,6.8684,6.9118,6.9622,7.0443,7.1906,7.2727,7.2656,7.3673,7.4329,7.4441,7.4209,7.4616,7.5533,7.5465,7.5873,7.6576,7.4888,7.404,7.3869,7.3285,7.29,7.2508,7.2187,7.197,7.1644,7.1314,7.0613,6.9787,6.9787,6.9472,6.9006,7.0325,7.0774,7.0965,7.2517,7.2411,7.1798,7.1906,7.1502,7.0789,7.0789,7.0789,7.0789,7.0789,7.1042,7.1263,7.0884,7.1042,7.1231,7.0884,7.0645,7.0419,7.0161,6.9818,6.9472,6.924,6.9006,6.8889,6.8889,6.8889,6.8674,6.8027,6.735,0.0,0.0,6.615,6.618,6.6919,6.7843,6.8581,6.8951,6.9874,7.0582,7.0982,7.1598,7.2152,7.2491,7.2829,7.3445,7.4491,7.4892,7.5667,7.7042,7.9414,8.1251,8.2541,8.5286,8.7079,8.8094,8.8813,8.9072,8.9072,8.9072,8.9918,9.1305,9.1305,9.2184,9.3571,9.3571,9.3571,9.3571,9.3571,9.3571,9.3639,6.0361,6.1224,6.212,6.335,6.4124,6.4858,6.5383,6.6047,6.6391,6.6269,6.6621,6.7211,6.798,6.8658,6.9444,7.0407,7.1836,7.2656,7.244,7.3708,7.4441,7.4287,7.4229,7.4647,7.561,7.5637,7.5732,7.5926,7.4473,7.3698,7.3492,7.2794,7.2508,7.2508,7.2187,7.1862,7.1534,7.1203,7.0501,6.9787,6.9703,6.9356,6.9006,6.9901,7.0212,7.0325,7.1516,7.1625,7.1108,7.147,7.1282,7.0789,7.0789,7.0789,7.0789,7.0789,7.1389,7.1926,7.1389,7.1642,7.1926,7.1276,7.0879,7.0412,7.0036,6.9712,6.924,6.9006,6.8889,6.8889,6.8889,6.8889,6.8674,6.8027,0.0,0.0,0.0,6.6611,6.6827,6.788,6.8618,6.9263,6.9819,7.0494,7.1108,7.166,7.1875,7.2182,7.2703,7.3012,7.3719,7.5199,7.5907,7.6622,7.7377,7.8932,8.0363,8.157,8.4121,8.5812,8.6852,8.7829,8.8472,8.87,8.87,8.969,9.1305,9.1305,9.2184,9.3571,9.3571,9.3571,9.3571,9.3571,9.3571,9.3571,6.0425,6.108,6.1689,6.253,6.3162,6.3729,6.4396,6.5041,6.5563,6.5976,6.6057,6.6602,6.7909,6.8159,6.8801,7.0371,7.1765,7.244,7.2221,7.3557,7.4287,7.4287,7.4562,7.4726,7.4843,7.4707,7.4613,7.4605,7.3525,7.3037,7.29,7.2615,7.2508,7.2508,7.1862,7.1644,7.1534,7.0726,7.0161,6.9787,6.9472,6.924,6.9006,6.9901,7.0212,7.0212,7.0694,7.0917,7.0997,7.0613,7.0645,7.0789,7.0789,7.0789,7.0789,7.0789,7.1705,7.2717,7.2685,7.2685,7.2601,7.2338,7.1719,7.1133,7.0552,6.9821,6.924,6.9006,6.8889,6.8889,6.8889,6.8889,6.8674,6.8027,0.0,0.0,6.7012,6.7412,6.7911,6.8295,6.8967,6.9519,6.9822,7.0489,7.0884,7.0945,7.1552,7.2073,7.2104,7.2937,7.4267,7.5877,7.6585,7.6954,7.7016,7.8473,7.9755,8.1188,8.2647,8.4187,8.5727,8.585,8.6492,8.7746,8.7746,8.9047,9.1305,9.1305,9.2184,9.3571,9.3571,9.3571,9.3571,9.3571,9.3571,9.3571,6.0346,6.1299,6.2369,6.2964,6.3639,6.4215,6.4896,6.5418,6.5787,6.5949,6.5958,6.6439,6.7909,6.8088,6.8663,7.0198,7.1624,7.2367,7.2109,7.3482,7.4018,7.3426,7.3543,7.3772,7.4138,7.3587,7.3663,7.4206,7.3318,7.2827,7.2615,7.2508,7.2401,7.2187,7.1862,7.1534,7.1314,7.0613,7.0161,6.9818,6.9472,6.924,6.8889,6.9209,6.9441,6.9441,6.9818,7.0016,7.0356,7.0275,7.0532,7.0789,7.0789,7.0789,7.0947,7.18,7.2601,7.3187,7.3627,7.3439,7.2998,7.2473,7.1808,7.1267,7.103,7.0694,7.0271,7.0151,7.012,7.012,7.012,6.9782,6.9443,6.9197,0.0,6.7739,6.8352,6.8172,6.824,6.9184,6.9914,7.0401,7.055,7.1188,7.1582,7.1582,7.1855,7.2007,7.2007,7.3394,7.466,7.5709,7.6515,7.7016,7.7016,7.8401,7.9347,7.9849,8.2088,8.3475,8.4123,8.4854,8.5727,8.6371,8.6971,8.8461,9.0455,9.104,9.2184,9.3571,9.3571,9.3571,9.3571,9.3571,9.3571,9.3571,6.0518,6.1821,6.2944,6.3257,6.407,6.4766,6.513,6.5607,6.5985,6.5958,6.6082,6.666,6.7945,6.8337,6.8948,7.0095,7.1552,7.233,7.1995,7.3175,7.3587,7.2936,7.306,7.3275,7.3409,7.2988,7.3044,7.3698,7.311,7.2721,7.2508,7.2508,7.2401,7.2079,7.1753,7.1424,7.1203,7.0388,7.0047,6.9818,6.9356,6.9123,6.8889,6.8889,6.8889,6.8889,6.9123,6.9472,6.9818,7.0047,7.0576,7.1105,7.1105,7.1263,7.161,7.2412,7.2967,7.354,7.4111,7.3834,7.3245,7.2776,7.2257,7.1712,7.1622,7.1196,7.089,7.089,7.089,7.089,7.089,7.0521,7.0213,7.0093,6.9087,6.8692,6.9367,6.9002,6.888,6.9877,7.0421,7.0754,7.0839,7.1322,7.1594,7.1594,7.1594,7.1903,7.2456,7.3594,7.4607,7.5754,7.6507,7.6976,7.7323,7.8524,7.9201,7.9447,8.1414,8.2481,8.2615,8.3606,8.4347,8.5013,8.585,8.7557,8.9827,9.0573,9.1951,9.3571,9.3571,9.3571,9.3571,9.3571,9.3571,9.3571,6.1149,6.2453,6.3366,6.3237,6.4332,6.5202,6.4864,6.5484,6.5958,6.5804,6.6482,6.7267,6.8016,6.8837,6.9554,7.0131,7.1409,7.2148,7.1995,7.2589,7.2936,7.2936,7.3411,7.3352,7.2625,7.2844,7.3006,7.2932,7.2615,7.2508,7.2508,7.2508,7.2401,7.2079,7.1753,7.1424,7.1092,7.0161,6.9787,6.9818,6.9123,6.8889,6.8889,6.8889,6.8889,6.8889,6.8889,6.924,6.9818,6.9818,7.0746,7.1832,7.1832,7.2274,7.2696,7.2347,7.2849,7.3421,7.3839,7.3692,7.3509,7.3509,7.2951,7.2334,7.209,7.1413,7.0921,7.0921,7.0921,7.0921,7.0921,7.0921,7.08,7.0465,7.0465,7.0312,6.9943,6.9943,7.0092,7.035,7.0441,7.0555,7.0829,7.0889,7.0889,7.0919,7.0919,7.1618,7.3334,7.3395,7.4425,7.6426,7.6488,7.6926,7.8031,7.8739,7.9447,8.0124,8.0771,8.1323,8.1597,8.1597,8.2347,8.3637,8.4026,8.6074,8.9244,8.9706,9.1361,9.3571,9.3571,9.3571,9.3571,9.3571,9.3571,9.3571,6.0646,6.2132,6.3382,6.3754,6.4459,6.5141,6.5555,6.5752,6.6046,6.6553,6.6839,6.7481,6.8801,6.8783,6.8894,6.9527,7.0068,7.0619,7.1295,7.2364,7.2756,7.2225,7.2338,7.2532,7.2713,7.2512,7.2564,7.2932,7.2615,7.2508,7.2508,7.2294,7.2079,7.1753,7.1424,7.1203,7.0869,7.0161,6.9787,6.9818,6.9123,6.8889,6.8889,6.8889,6.8889,6.8889,6.8889,6.9432,7.0303,7.0451,7.1268,7.2149,7.2412,7.2854,7.3187,7.3069,7.3214,7.3475,7.3539,7.3355,7.3231,7.3509,7.32,7.2799,7.2675,7.2521,7.2368,7.2368,7.2368,7.2368,7.212,7.1567,7.1107,7.0766,7.0122,6.9877,7.0205,7.0043,7.0157,7.0659,7.0749,7.0809,7.0889,7.0889,7.1098,7.1547,7.2026,7.2684,7.3687,7.3954,7.4613,7.5654,7.6221,7.7171,7.8304,7.8851,7.9447,8.0124,8.0771,8.1217,8.1186,8.1186,8.1597,8.2244,8.3114,8.4694,8.7018,8.8787,9.0538,9.2237,9.3182,9.3182,9.2514,9.2514,9.2025,9.1529,6.0267,6.2109,6.3589,6.3883,6.4491,6.5098,6.5533,6.5474,6.5729,6.651,6.6865,6.754,6.8818,6.8716,6.8632,6.8898,6.9411,7.0209,7.1388,7.2151,7.2655,7.2767,7.2457,7.2313,7.2542,7.2532,7.2581,7.2721,7.2615,7.2508,7.2294,7.2187,7.1862,7.1424,7.1314,7.1092,7.0789,7.0047,6.9787,6.9818,6.9123,6.8889,6.8889,6.8889,6.8889,6.8889,6.8889,6.9401,7.0155,7.0669,7.1768,7.2904,7.2989,7.3344,7.3729,7.312,7.3195,7.3509,7.3355,7.3107,7.3107,7.3231,7.3107,7.2983,7.2983,7.2983,7.3076,7.3322,7.3258,7.3102,7.3007,7.2601,7.2073,7.1304,7.0839,7.0615,7.0907,7.0629,7.0679,7.1577,7.1457,7.1398,7.1667,7.1697,7.1876,7.2265,7.2684,7.3193,7.3851,7.4151,7.4586,7.5414,7.5819,7.6861,7.8475,7.8777,7.9404,8.0494,8.0894,8.1079,8.1079,8.1079,8.1217,8.1461,8.2244,8.3637,8.5705,8.7243,8.8982,9.0674,9.1588,9.1463,9.0928,9.0928,9.058,9.0065,6.0024,6.2184,6.3777,6.3693,6.4508,6.5145,6.4908,6.4911,6.5228,6.6003,6.6778,6.7553,6.8363,6.8588,6.8551,6.8319,6.922,7.0362,7.1538,7.183,7.2445,7.3821,7.3177,7.2572,7.2302,7.2679,7.2827,7.2508,7.2508,7.2294,7.2079,7.2079,7.1753,7.1203,7.1203,7.0981,7.0789,7.0047,6.9787,6.9818,6.9123,6.8889,6.8889,6.8889,6.8889,6.8889,6.8889,6.9216,6.9666,7.0793,7.2355,7.3863,7.3627,7.3917,7.4053,7.2825,7.2982,7.3386,7.3107,7.2983,7.2983,7.2983,7.2983,7.2983,7.2983,7.3045,7.326,7.3876,7.365,7.3553,7.3425,7.3655,7.3395,7.1797,7.2098,7.236,7.1966,7.1457,7.1547,7.2774,7.2355,7.2235,7.2864,7.2954,7.3013,7.3013,7.3043,7.3343,7.3941,7.3971,7.4406,7.5278,7.5414,7.632,7.8338,7.8475,7.9421,8.1079,8.1079,8.1079,8.1079,8.1079,8.1079,8.1079,8.1461,8.2858,8.5033,8.5603,8.7067,8.9052,8.9184,8.9216,8.9216,8.9216,8.9084,8.9084,5.9107,6.1468,6.3325,6.3325,6.425,6.4908,6.4908,6.5023,6.5404,6.6244,6.6938,6.7741,6.8508,6.818,6.7811,6.765,6.8132,6.8831,6.9645,7.117,7.208,7.2085,7.2773,7.3089,7.2776,7.2835,7.2827,7.2508,7.2294,7.2187,7.2079,7.1644,7.1314,7.1203,7.0981,7.0901,7.0789,7.0047,6.9787,6.9818,6.9123,6.8889,6.8889,6.8889,6.8889,6.8889,6.8889,6.9566,7.0884,7.2604,7.3557,7.3928,7.408,7.3964,7.357,7.3323,7.3231,7.3107,7.2983,7.2983,7.2983,7.2983,7.2983,7.2983,7.2983,7.3383,7.3688,7.3558,7.3889,7.4157,7.3577,7.3436,7.3304,7.2667,7.2727,7.2817,7.2684,7.2565,7.2595,7.2894,7.2774,7.2744,7.2894,7.3373,7.3672,7.3672,7.4151,7.451,7.4659,7.4659,7.4719,7.5006,7.5278,7.6047,7.7651,7.8202,7.9421,8.1079,8.1079,8.1079,8.1079,8.1079,8.1079,8.1079,8.1217,8.2096,8.3612,8.4761,8.623,8.774,8.8819,8.8819,8.818,8.818,8.7667,8.7039,5.8094,6.0311,6.2229,6.2516,6.3098,6.3729,6.4077,6.452,6.506,6.5821,6.6616,6.7376,6.8137,6.7604,6.7165,6.7201,6.7703,6.8519,6.9855,7.1059,7.2019,7.2611,7.2925,7.3005,7.2932,7.2827,7.2615,7.2294,7.2187,7.197,7.1644,7.1314,7.1092,7.0981,7.0901,7.0676,7.0532,7.0047,6.9703,6.9588,6.9123,6.8889,6.8889,6.8889,6.8889,6.8889,6.8889,6.987,7.1316,7.2701,7.3503,7.3905,7.3967,7.3723,7.3509,7.3355,7.3107,7.2983,7.2983,7.2983,7.2983,7.2983,7.2983,7.2983,7.2983,7.3381,7.368,7.3889,7.4241,7.4304,7.401,7.4015,7.3881,7.3013,7.3163,7.3373,7.3373,7.3103,7.3163,7.3762,7.3582,7.3492,7.3821,7.4151,7.436,7.436,7.4689,7.4869,7.4869,7.4869,7.4869,7.4869,7.5006,7.591,7.7373,7.7789,7.8872,8.0771,8.1079,8.1079,8.1079,8.1079,8.1079,8.1079,8.1079,8.1848,8.3221,8.386,8.4917,8.6307,8.6945,8.6976,8.6448,8.6448,8.6196,8.5831,5.7161,5.9199,6.1043,6.1606,6.1947,6.2341,6.3096,6.3878,6.4624,6.5241,6.6131,6.6839,6.742,6.6812,6.6584,6.7012,6.7554,6.8759,7.0759,7.1391,7.2182,7.3431,7.3077,7.2932,7.2827,7.2615,7.2294,7.2079,7.2079,7.1753,7.1203,7.1092,7.0981,7.0789,7.0789,7.0532,7.0306,6.9933,6.9588,6.9387,6.9006,6.8889,6.8889,6.8889,6.8889,6.8889,6.9012,7.0174,7.156,7.2362,7.3104,7.3692,7.3601,7.3509,7.3386,7.3107,7.2983,7.2983,7.2983,7.2983,7.2983,7.2983,7.2951,7.3012,7.2889,7.3129,7.3547,7.4218,7.4365,7.445,7.4406,7.4752,7.451,7.3432,7.3702,7.4061,7.4061,7.3582,7.3642,7.4749,7.439,7.427,7.4839,7.4869,7.4869,7.4869,7.4869,7.4869,7.4869,7.4869,7.4869,7.4869,7.4869,7.5635,7.7234,7.7403,7.8347,8.0352,8.0771,8.1079,8.1079,8.1079,8.1079,8.1079,8.1079,8.1848,8.308,8.308,8.388,8.5111,8.5111,8.5111,8.5111,8.5111,8.5111,8.5111,5.6638,5.8599,6.0532,6.1258,6.1731,6.2341,6.3096,6.3972,6.464,6.4742,6.588,6.6711,6.6643,6.6215,6.6434,6.7745,6.7762,6.8572,7.0759,7.1391,7.1851,7.2437,7.2679,7.2827,7.2615,7.2294,7.2187,7.2079,7.1862,7.1534,7.1203,7.0981,7.0789,7.0789,7.0532,7.0306,7.0275,6.9703,6.9472,6.9387,6.9006,6.8889,6.8889,6.8889,6.8889,6.8951,6.9566,7.0644,7.2059,7.3014,7.3293,7.3231,7.3386,7.3231,7.3107,7.2983,7.2983,7.2983,7.2983,7.2983,7.2983,7.2608,7.2911,7.3186,7.2383,7.2876,7.3516,7.3537,7.407,7.4436,7.4766,7.4809,7.4809,7.4629,7.4689,7.4749,7.4749,7.4659,7.4689,7.4869,7.4809,7.4779,7.4869,7.4869,7.4869,7.4869,7.4869,7.4869,7.4869,7.4869,7.4869,7.4869,7.4869,7.5497,7.6814,7.7264,7.8067,7.9505,8.0212,8.0771,8.1079,8.1079,8.1079,8.1079,8.1079,8.1848,8.308,8.308,8.388,8.5111,8.5111,8.5111,8.5111,8.5111,8.5111,8.5111,5.6269,5.7808,5.9382,6.0472,6.0802,6.134,6.2532,6.3419,6.414,6.4546,6.5444,6.612,6.6473,6.6076,6.629,6.7696,6.7645,6.8644,7.116,7.1325,7.1713,7.2587,7.2632,7.2615,7.2508,7.2294,7.197,7.1862,7.1534,7.1203,7.0981,7.0645,7.0532,7.0532,7.0161,6.9933,6.9818,6.9472,6.924,6.9123,6.9006,6.8889,6.8889,6.8889,6.8889,6.8982,6.9659,7.0521,7.1475,7.2306,7.2799,7.2983,7.3107,7.3107,7.2983,7.2983,7.2983,7.3076,7.3445,7.3412,7.3252,7.3522,7.37,7.3564,7.2871,7.3153,7.3334,7.2852,7.3834,7.4662,7.433,7.4629,7.4869,7.4869,7.4869,7.4869,7.4869,7.4869,7.4869,7.4869,7.4869,7.4869,7.4869,7.4869,7.4869,7.4869,7.4869,7.4869,7.4869,7.4869,7.4869,7.4869,7.4869,7.5497,7.6814,7.6984,7.7926,7.9363,7.9789,8.0212,8.0771,8.1079,8.1079,8.1079,8.1079,8.1848,8.308,8.308,8.388,8.5111,8.5111,8.5111,8.5111,8.5111,8.5111,8.5111]}]]